     2.11           OBSERVATION DATA    G (GPS)             RINEX VERSION / TYPE
teqc 2007Mar30 UNAVCO Archive Ops 20070409 20:04:22UTC      PGM / RUN BY / DATE
Solaris 5.9|UltraSparc IIIi|cc -xarch=v9 SC5.8|=+-|*Sparc   COMMENT
BIT 2 OF LLI FLAGS DATA COLLECTED UNDER A/S CONDITION       COMMENT
SLAC                                                        MARKER NAME
49523S001                                                   MARKER NUMBER
Blume, Freddy UNAVCO                                        OBSERVER / AGENCY
4508245722 TRIMBLE NETRS 1.1-2                              REC # / TYPE / VERS
880 LEIAT504 NONE                                           ANT # / TYPE
 -2703115.9210 -4291767.2078  3854247.9066                  APPROX POSITION XYZ
        0.0000        0.0000        0.0000                  ANTENNA: DELTA H/E/N
     1     1                                                WAVELENGTH FACT L1/2
     7    L1    L2    C1    P2    P1    S1    S2            # / TYPES OF OBSERV
     1.0000                                                 INTERVAL
RINEX file created by UNAVCO GPS Archive.                   COMMENT
For more information contact archive@unavco.org             COMMENT
Monument ID: 18858                                          COMMENT
UNAVCO 4-char name: SLAC                                    COMMENT
4-char name from Log or data file: SLAC                     COMMENT
Monument location: 37.416517 -122.204262 63.6962            COMMENT
Visit ID: 86093                                             COMMENT
End of DB comments                                          COMMENT
SNR is mapped to RINEX snr flag value [0-9]                 COMMENT
L1 & L2: min(max(int(snr_dBHz/6), 0), 9)                    COMMENT
  2007     3    30     0     0    0.0000000     GPS         TIME OF FIRST OBS
                                                            END OF HEADER
 07  3 30  0  0  0.0000000  0 10G 5G14G31G22G 1G19G11G20G30G25
  -1384642.06546  -1679645.72742  25242443.1174   25242431.6094
        37.7504         14.7504
 -20044855.55647 -15586807.95746  21743188.0004   21743175.6724
        47.5004         36.0004
 -22309547.13048 -17352402.26747  21016307.9454   21016294.9104
        50.7504         43.0004
 -11227142.14547  -8734113.86545  23184541.9454   23184529.0274
        45.2504         30.0004
 -25627423.46748 -19950498.87847  20495306.7734   20495295.6174
        53.7504         45.7504
  -4715247.32546  -3548186.83943  24519046.2194   24519035.9414
        38.0004         22.2504
 -19019475.80048 -14697238.17146  21628539.1804   21628526.4414
        50.0004         39.5004
  -9814269.13246  -7586130.70244  23482075.4774   23482064.3794
        40.5004         24.5004
  -2211840.12746  -1715492.84143  24939138.2034   24939127.8674
        37.5004         20.2504
  -2341235.86945  -1781253.33743  24531339.1884   24531330.3164
        35.7504         19.0004
 07  3 30  0  0  1.0000000  0 10G 5G14G31G22G 1G19G11G20G30G25
  -1384823.66546  -1679787.23742  25242407.7034   25242396.9574
        37.7504         15.5004
 -20042584.27448 -15585038.13246  21743620.1334   21743607.8634
        48.0004         36.5004
 -22310981.70648 -17353520.11247  21016034.7344   21016022.0554
        51.0004         43.2504
 -11224808.81347  -8732295.69545  23184985.4304   23184972.3954
        45.5004         30.0004
 -25627469.81349 -19950534.99347  20495298.4454   20495286.5274
        54.0004         45.7504
  -4712443.88346  -3546002.35043  24519579.3984   24519569.7664
        37.7504         22.2504
 -19020335.41148 -14697907.98946  21628375.6024   21628362.9224
        50.2504         39.5004
  -9817104.30946  -7588339.91444  23481536.3364   23481524.8874
        40.5004         24.5004
  -2213217.81746  -1716566.37343  24938876.3914   24938865.7624
        37.2504         20.2504
  -2344962.30746  -1784157.02943  24530630.9064   24530621.6844
        36.0004         19.5004
 07  3 30  0  0  2.0000000  0 10G 5G14G31G22G 1G19G11G20G30G25
  -1385004.64546  -1679928.26342  25242373.5864   25242362.6644
        37.5004         15.5004
 -20040312.73548 -15583268.10446  21744052.6884   21744040.0664
        48.0004         36.7504
 -22312415.60748 -17354637.44247  21015761.9384   21015749.1994
        50.7504         43.2504
 -11222475.19647  -8730477.30145  23185429.8594   23185416.6484
        45.2504         30.2504
 -25627515.67649 -19950570.72247  20495289.3134   20495277.6884
        54.0004         45.5004
  -4709640.29046  -3543817.73243  24520113.1564   24520102.9964
        37.5004         22.5004
 -19021194.37548 -14698577.31246  21628211.6414   21628199.4304
        49.5004         39.7504
  -9819939.38546  -7590549.05344  23480996.7584   23480985.3674
        39.7504         24.2504
  -2214594.98346  -1717639.48943  24938614.3984   24938603.7114
        37.5004         20.0004
  -2348688.58245  -1787060.59643  24529921.4304   24529912.3834
        35.7504         19.2504
 07  3 30  0  0  3.0000000  0 10G 5G14G31G22G 1G19G11G20G30G25
  -1385185.20246  -1680068.93242  25242338.5164   25242327.6524
        37.5004         15.5004
 -20038041.07948 -15581497.98146  21744485.0864   21744472.2274
        48.0004         36.5004
 -22313848.99648 -17355754.37047  21015489.1954   21015476.6334
        50.5004         43.2504
 -11220141.49647  -8728658.83844  23185873.8134   23185860.8364
        45.5004         29.7504
 -25627561.24148 -19950606.22847  20495280.7274   20495269.1604
        53.7504         45.5004
  -4706836.78146  -3541633.17643  24520646.9534   24520636.7344
        38.5004         22.5004
 -19022052.81948 -14699246.23546  21628048.3364   21628036.2424
        50.0004         39.7504
  -9822774.50746  -7592758.24143  23480457.4614   23480445.8364
        41.0004         22.7504
  -2215971.81346  -1718712.36143  24938351.9064   24938341.7464
        37.5004         20.2504
  -2352414.85946  -1789964.18343  24529212.5004   24529202.9264
        37.2504         19.2504
 07  3 30  0  0  4.0000000  0 10G 5G14G31G22G 1G19G11G20G30G25
  -1385365.06946  -1680209.10042  25242303.2344   25242293.6024
        37.0004         15.5004
 -20035769.13448 -15579727.64246  21744916.8984   21744903.9804
        48.2504         36.5004
 -22315281.73448 -17356870.78347  21015216.2894   21015203.7854
        50.7504         43.2504
 -11217807.52047  -8726840.15145  23186317.8834   23186304.9654
        45.5004         30.2504
 -25627606.33848 -19950641.37647  20495272.6564   20495260.9144
        53.5004         45.5004
  -4704033.19246  -3539448.56043  24521180.8134   24521169.9494
        38.0004         22.7504
 -19022910.60048 -14699914.63346  21627885.0704   21627872.4494
        50.0004         39.5004
  -9825609.51346  -7594967.33743  23479919.0004   23479906.7304
        40.7504         22.7504
  -2217348.14546  -1719784.82243  24938090.0394   24938080.1724
        37.5004         20.0004
  -2356141.03446  -1792867.71643  24528502.4224   24528493.8444
        36.5004         19.2504
 07  3 30  0  0  5.0000000  0 10G 5G14G31G22G 1G19G11G20G30G25
  -1385544.38646  -1680348.83642  25242269.1884   25242259.3204
        37.0004         14.7504
 -20033497.05847 -15577957.19146  21745349.9614   21745336.8094
        47.7504         36.5004
 -22316713.89048 -17357986.75347  21014943.5474   21014931.5124
        51.0004         43.2504
 -11215473.39747  -8725021.35745  23186762.4534   23186749.1254
        45.5004         30.5004
 -25627651.06548 -19950676.22947  20495263.9064   20495252.1644
        53.5004         45.5004
  -4701229.59246  -3537263.93343  24521714.0864   24521703.7504
        38.7504         23.0004
 -19023767.81548 -14700582.59646  21627721.7424   21627709.5314
        50.0004         39.7504
  -9828444.52046  -7597176.43543  23479379.6414   23479367.1954
        40.5004         23.0004
  -2218724.05546  -1720856.97143  24937827.9844   24937818.0004
        37.5004         19.7504
  -2359867.19646  -1795771.18943  24527794.0784   24527784.7974
        36.5004         19.0004
 07  3 30  0  0  6.0000000  0 10G 5G14G31G22G 1G19G11G20G30G25
  -1385723.26046  -1680488.24342  25242235.3674   25242225.6174
        36.7504         15.5004
 -20031224.87047 -15576186.65846  21745781.4534   21745769.2424
        47.7504         36.0004
 -22318145.51748 -17359102.30047  21014671.1094   21014659.1334
        51.0004         43.2504
 -11213139.13147  -8723202.44445  23187206.2504   23187193.4534
        45.5004         30.7504
 -25627695.49848 -19950710.84747  20495255.4844   20495243.3914
        53.5004         45.7504
  -4698426.06946  -3535079.36844  24522248.2424   24522237.4384
        38.5004         24.2504
 -19024624.49748 -14701250.13946  21627558.8984   21627546.6294
        49.7504         39.5004
  -9831279.53746  -7599385.54543  23478840.4844   23478827.5084
        41.0004         23.7504
  -2220099.59646  -1721928.81143  24937566.8054   24937556.3524
        37.5004         20.0004
  -2363593.35046  -1798674.67743  24527085.5554   24527076.1564
        36.5004         19.0004
 07  3 30  0  0  7.0000000  0 10G 5G14G31G22G 1G19G11G20G30G25
  -1385901.47346  -1680627.10242  25242200.7974   25242191.3404
        36.2504         16.2504
 -20028952.33848 -15574415.84946  21746213.9844   21746201.5984
        48.0004         36.0004
 -22319576.42948 -17360217.30347  21014398.9614   21014386.5744
        50.7504         43.2504
 -11210804.54947  -8721383.29645  23187650.7734   23187637.9144
        46.0004         30.2504
 -25627739.39948 -19950745.05047  20495246.9844   20495235.3594
        53.7504         45.7504
  -4695622.38946  -3532894.68944  24522782.5164   24522770.8914
        39.5004         24.0004
 -19025480.48048 -14701917.13446  21627396.1724   21627383.3134
        49.2504         39.7504
  -9834114.42546  -7601594.55044  23478300.1174   23478288.0824
        40.7504         25.0004
  -2221474.58646  -1723000.21643  24937304.4304   24937294.4454
        37.5004         20.0004
  -2367319.32346  -1801578.03043  24526375.9454   24526367.1914
        36.7504         19.0004
 07  3 30  0  0  8.0000000  0 10G 5G14G31G22G 1G19G11G20G30G25
  -1386079.24346  -1680765.65642  25242168.0004   25242157.8404
        36.5004         15.5004
 -20026679.72648 -15572644.98646  21746646.8754   21746633.7814
        48.2504         36.5004
 -22321006.84048 -17361331.90047  21014126.6804   21014114.2934
        50.5004         43.2504
 -11208469.88647  -8719564.08145  23188094.7584   23188081.6644
        46.0004         31.0004
 -25627782.97049 -19950779.00647  20495238.8284   20495226.9694
        54.2504         45.7504
  -4692818.76646  -3530710.06843  24523316.0084   24523304.5594
        39.7504         22.7504
 -19026335.94948 -14702583.73946  21627233.1334   21627220.8634
        49.7504         40.0004
  -9836949.31546  -7603803.55744  23477760.9304   23477748.6604
        41.5004         24.2504
  -2222849.20746  -1724071.34543  24937043.5314   24937032.7274
        37.7504         19.7504
  -2371045.29546  -1804481.37643  24525668.5234   24525658.0704
        37.2504         19.0004
 07  3 30  0  0  9.0000000  0 10G 5G14G31G22G 1G19G11G20G30G25
  -1386256.55746  -1680903.79042  25242135.0314   25242123.9344
        36.7504         15.5004
 -20024407.04548 -15570874.05846  21747079.1254   21747066.7974
        48.0004         36.2504
 -22322436.77448 -17362446.13047  21013854.5234   21013842.1954
        50.5004         43.5004
 -11206135.16247  -8717744.81745  23188538.9304   23188525.6024
        45.7504         31.0004
 -25627826.29549 -19950812.76547  20495230.5554   20495218.4024
        54.0004         45.7504
  -4690015.24946  -3528525.55043  24523849.3364   24523838.0044
        40.5004         23.5004
 -19027190.95748 -14703249.98246  21627070.5084   21627058.3554
        50.0004         39.7504
  -9839784.30746  -7606012.63444  23477220.9924   23477209.3094
        41.5004         24.5004
  -2224223.53646  -1725142.25143  24936782.2734   24936771.1174
        37.7504         19.7504
  -2374771.42346  -1807384.87943  24524958.0634   24524948.9574
        37.0004         19.0004
 07  3 30  0  0 10.0000000  0 10G 5G14G31G22G 1G19G11G20G30G25
  -1386433.19446  -1681041.40042  25242101.7034   25242090.7814
        37.0004         14.7504
 -20022134.03047 -15569102.88446  21747512.0634   21747499.4414
        47.7504         36.5004
 -22323865.97248 -17363559.79947  21013582.4144   21013570.1454
        50.7504         43.2504
 -11203800.08147  -8715925.28445  23188984.0634   23188970.9694
        45.7504         31.0004
 -25627869.08449 -19950846.11447  20495222.2894   20495210.3134
        54.2504         45.5004
  -4687211.66846  -3526340.89243  24524383.7034   24524371.4344
        40.7504         23.5004
 -19028045.23948 -14703915.65946  21626907.6334   21626895.7154
        50.0004         40.0004
  -9842619.09147  -7608221.56544  23476681.9224   23476669.6524
        42.0004         24.5004
  -2225597.27846  -1726212.69343  24936521.0164   24936510.0944
        38.0004         20.5004
  -2378497.33546  -1810288.20343  24524250.0004   24524239.8404
        37.0004         19.2504
 07  3 30  0  0 11.0000000  0 10G 5G14G31G22G 1G19G11G20G30G25
  -1386609.30146  -1681178.64042  25242068.1174   25242057.2544
        37.2504         15.5004
 -20019860.86947 -15567331.59046  21747944.2584   21747931.8134
        47.7504         36.7504
 -22325294.61448 -17364673.02347  21013310.5004   21013298.2894
        51.2504         43.2504
 -11201464.88447  -8714105.65045  23189428.1724   23189414.9614
        45.5004         31.5004
 -25627911.53948 -19950879.19047  20495214.1564   20495202.4734
        53.7504         45.5004
  -4684408.05346  -3524156.25044  24524917.5084   24524905.4144
        40.2504         24.0004
 -19028898.97848 -14704580.91046  21626745.6644   21626733.3364
        49.7504         40.0004
  -9845453.92347  -7610430.53844  23476141.9924   23476130.1914
        42.0004         25.2504
  -2226970.66246  -1727282.85143  24936259.3524   24936248.6054
        38.0004         20.7504
  -2382223.18746  -1813191.47343  24523541.0784   24523531.2114
        36.2504         19.0004
 07  3 30  0  0 12.0000000  0 10G 5G14G31G22G 1G19G11G20G30G25
  -1386784.87946  -1681315.45642  25242035.2114   25242023.2344
        37.2504         15.5004
 -20017587.49947 -15565560.13346  21748377.3204   21748364.2854
        47.7504         36.5004
 -22326722.64148 -17365785.76947  21013038.9454   21013026.5004
        51.2504         43.2504
 -11199129.48347  -8712285.85745  23189872.1484   23189859.4694
        45.5004         31.0004
 -25627953.55548 -19950911.92747  20495206.0944   20495194.4694
        53.5004         45.5004
  -4681604.43346  -3521971.62644  24525450.1804   24525438.3794
        39.7504         25.5004
 -19029752.08348 -14705245.66746  21626583.2194   21626571.0084
        50.2504         40.0004
  -9848288.67946  -7612639.44244  23475603.1024   23475591.1844
        41.5004         25.7504
  -2228343.59946  -1728352.66243  24935997.8834   24935987.3134
        37.7504         21.0004
  -2385949.02146  -1816094.70643  24522831.8364   24522821.7344
        36.2504         18.5004
 07  3 30  0  0 13.0000000  0 10G 5G14G31G22G 1G19G11G20G30G25
  -1386959.74846  -1681451.73242  25242001.7274   25241990.3954
        37.5004         15.5004
 -20015313.81047 -15563788.42546  21748810.2194   21748797.0664
        47.5004         36.5004
 -22328149.92748 -17366897.94247  21012767.4064   21012755.0784
        50.7504         43.2504
 -11196793.73547  -8710465.80545  23190316.7664   23190303.3794
        45.5004         30.5004
 -25627995.05648 -19950944.26547  20495198.2504   20495186.2734
        53.5004         45.5004
  -4678800.64746  -3519786.85544  24525984.8674   24525972.1884
        40.0004         24.5004
 -19030604.48348 -14705909.87246  21626421.2274   21626408.6054
        50.2504         39.7504
  -9851123.23846  -7614848.18944  23475063.5234   23475051.6054
        41.2504         25.5004
  -2229715.92446  -1729422.00843  24935737.2664   24935726.1684
        38.5004         21.2504
  -2389674.61846  -1818997.75343  24522122.6094   24522112.9774
        36.5004         19.0004
 07  3 30  0  0 14.0000000  0 10G 5G14G31G22G 1G19G11G20G30G25
  -1387134.43046  -1681587.83642  25241968.6804   25241956.9964
        37.5004         15.5004
 -20013040.28547 -15562016.84946  21749242.7584   21749229.6644
        47.7504         36.5004
 -22329576.97248 -17368009.92447  21012495.5394   21012483.5634
        50.7504         43.0004
 -11194458.13747  -8708645.85145  23190761.0474   23190748.0124
        45.7504         30.2504
 -25628036.52348 -19950976.57647  20495190.3204   20495178.8714
        53.5004         45.5004
  -4675997.18946  -3517602.34244  24526518.1024   24526505.7154
        40.0004         25.2504
 -19031456.65748 -14706573.90246  21626258.8984   21626246.6884
        50.2504         39.7504
  -9853958.09446  -7617057.15644  23474523.5704   23474512.1214
        41.2504         24.5004
  -2231088.17946  -1730491.29943  24935476.3204   24935465.0474
        38.5004         21.2504
  -2393400.51746  -1821901.03943  24521412.8674   24521403.5274
        36.2504         19.0004
 07  3 30  0  0 15.0000000  0 10G 5G14G31G22G 1G19G11G20G30G25
  -1387308.33446  -1681723.35642  25241934.5164   25241924.4144
        37.5004         14.7504
 -20010766.36248 -15560244.95646  21749674.8134   21749662.1914
        48.0004         36.5004
 -22331003.21548 -17369121.28847  21012224.1804   21012212.4964
        51.0004         43.5004
 -11192122.15547  -8706825.59845  23191205.8984   23191192.0434
        46.0004         30.0004
 -25628077.38448 -19951008.41747  20495182.4454   20495170.8794
        53.2504         45.5004
  -4673193.51246  -3515417.66844  24527051.9224   24527039.3014
        40.2504         25.2504
 -19032308.02248 -14707237.30446  21626096.5164   21626084.0124
        50.2504         39.7504
  -9856792.73546  -7619265.96444  23473984.5554   23473973.1644
        41.2504         24.5004
  -2232459.82546  -1731560.11143  24935215.1954   24935204.2154
        38.7504         21.7504
  -2397126.17746  -1824804.12443  24520704.2194   24520694.5274
        36.7504         19.2504
 07  3 30  0  0 16.0000000  0 10G 5G14G31G22G 1G19G11G20G30G25
  -1387481.81146  -1681858.53642  25241900.7584   25241890.7154
        37.0004         15.5004
 -20008492.36847 -15558473.02446  21750107.7424   21750095.0044
        47.7504         36.2504
 -22332428.98548 -17370232.26447  21011952.9224   21011940.8874
        51.0004         43.5004
 -11189786.09147  -8705005.28745  23191650.3674   23191637.2154
        46.0004         30.0004
 -25628117.96348 -19951040.03847  20495174.6884   20495163.0044
        53.0004         45.5004
  -4670389.96046  -3513233.07644  24527585.2034   24527572.9344
        40.2504         26.2504
 -19033158.89448 -14707900.31646  21625934.8754   21625922.4884
        50.2504         40.0004
  -9859627.43046  -7621474.81844  23473445.4144   23473433.4964
        41.0004         25.2504
  -2233831.08346  -1732628.62743  24934954.2274   24934943.4224
        38.5004         22.0004
  -2400851.86846  -1827707.27643  24519995.4614   24519985.9454
        37.5004         19.2504
 07  3 30  0  0 17.0000000  0 10G 5G14G31G22G 1G19G11G20G30G25
  -1387654.65346  -1681993.23242  25241867.4534   25241857.9384
        36.0004         15.5004
 -20006218.12948 -15556700.88546  21750540.3284   21750528.1764
        48.0004         36.0004
 -22333854.08848 -17371342.74247  21011681.8204   21011669.3754
        51.0004         43.5004
 -11187449.79747  -8703184.80145  23192094.9534   23192081.6844
        46.0004         30.0004
 -25628158.10248 -19951071.31747  20495167.0084   20495155.3244
        53.2504         45.5004
  -4667586.33046  -3511048.42544  24528118.8834   24528106.4384
        40.2504         26.0004
 -19034009.14148 -14708562.85246  21625773.1954   21625760.7504
        50.2504         39.7504
  -9862462.05646  -7623683.60044  23472904.8834   23472894.2544
        40.5004         25.7504
  -2235201.87046  -1733696.75743  24934693.1094   24934682.7154
        39.0004         22.0004
  -2404577.48546  -1830610.35843  24519286.5634   24519277.1644
        37.5004         19.2504
 07  3 30  0  0 18.0000000  0 10G 5G14G31G22G 1G19G11G20G30G25
  -1387826.86546  -1682127.41642  25241835.0864   25241825.5704
        36.2504         15.5004
 -20003943.55247 -15554928.49146  21750973.0084   21750960.7384
        47.5004         36.2504
 -22335278.47148 -17372452.64447  21011410.5634   21011398.7624
        50.7504         43.5004
 -11185113.17347  -8701364.05645  23192539.0944   23192526.4734
        46.0004         30.0004
 -25628197.71248 -19951102.18447  20495159.5554   20495147.6954
        53.7504         45.5004
  -4664782.55446  -3508863.66544  24528652.2274   24528640.0164
        40.2504         25.5004
 -19034858.65348 -14709224.80546  21625611.7274   21625598.8094
        50.2504         40.0004
  -9865296.46146  -7625892.22444  23472365.7344   23472355.1054
        40.5004         25.0004
  -2236572.10846  -1734764.47943  24934431.7814   24934421.7384
        39.0004         21.7504
  -2408302.87146  -1833513.24743  24518577.3134   24518568.0314
        36.7504         19.2504
 07  3 30  0  0 19.0000000  0 10G 5G14G31G22G 1G19G11G20G30G25
  -1387998.56046  -1682261.18942  25241802.6334   25241792.7664
        36.5004         15.5004
 -20001668.83847 -15553155.98746  21751405.9304   21751393.3094
        47.2504         36.5004
 -22336702.28348 -17373562.10747  21011140.0634   21011127.6764
        50.7504         43.5004
 -11182776.39347  -8699543.18845  23192984.3444   23192971.0744
        46.0004         30.0004
 -25628236.95448 -19951132.75747  20495152.2034   20495140.5204
        53.7504         45.5004
  -4661978.79346  -3506678.92244  24529186.0004   24529173.8484
        40.5004         25.5004
 -19035707.62548 -14709886.33946  21625450.0784   21625437.2814
        49.5004         40.5004
  -9868130.87846  -7628100.85544  23471826.7664   23471815.4344
        41.2504         25.5004
  -2237941.95546  -1735831.89543  24934171.0314   24934161.2814
        39.5004         21.5004
  -2412028.24846  -1836416.13243  24517868.3284   24517858.8714
        37.0004         19.2504
 07  3 30  0  0 20.0000000  0 10G 5G14G31G22G 1G19G11G20G30G25
  -1388169.89946  -1682394.71042  25241770.7814   25241760.0944
        36.0004         15.5004
 -19999394.15947 -15551383.51346  21751838.5004   21751826.2894
        47.0004         36.5004
 -22338125.72748 -17374671.28447  21010869.1644   21010856.5434
        51.0004         43.5004
 -11180439.66247  -8697722.35545  23193428.6564   23193415.8594
        45.5004         30.0004
 -25628276.03948 -19951163.21647  20495144.6254   20495132.9414
        53.2504         45.5004
  -4659175.24746  -3504494.33944  24529718.7034   24529706.9614
        40.2504         25.5004
 -19036556.23048 -14710547.59546  21625288.1954   21625276.0434
        49.7504         40.5004
  -9870965.45746  -7630309.62144  23471286.7974   23471276.2854
        41.2504         25.5004
  -2239311.53646  -1736899.11143  24933911.1024   24933900.3554
        40.2504         21.5004
  -2415753.82346  -1839319.18343  24517159.6724   24517149.8054
        37.5004         19.5004
 07  3 30  0  0 21.0000000  0 10G 5G14G31G22G 1G19G11G20G30G25
  -1388340.51746  -1682527.66842  25241737.9454   25241727.3164
        36.5004         14.7504
 -19997119.14847 -15549610.77346  21752271.8444   21752259.6334
        47.0004         36.5004
 -22339548.43048 -17375779.88747  21010598.4144   21010585.7344
        51.0004         43.7504
 -11178102.60247  -8695901.27544  23193874.0704   23193860.5084
        45.2504         29.7504
 -25628314.59848 -19951193.25747  20495137.4454   20495125.7034
        53.5004         45.5004
  -4656371.54546  -3502309.63844  24530252.7814   24530240.5124
        40.5004         25.7504
 -19037404.07848 -14711208.25246  21625127.4304   21625114.6334
        50.0004         40.5004
  -9873799.89846  -7632518.27444  23470748.0704   23470736.6804
        40.5004         24.5004
  -2240680.59446  -1737965.91043  24933650.7734   24933639.9694
        40.5004         21.5004
  -2419479.15046  -1842222.03143  24516451.5784   24516440.9494
        38.2504         20.0004
 07  3 30  0  0 22.0000000  0 10G 5G14G31G22G 1G19G11G20G30G25
  -1388510.56546  -1682660.16342  25241706.2504   25241695.4454
        36.5004         14.7504
 -19994843.92447 -15547837.87046  21752704.5864   21752692.2584
        47.2504         36.5004
 -22340970.49048 -17376887.98347  21010328.1804   21010314.9104
        51.5004         43.7504
 -11175765.28847  -8694080.00144  23194318.6564   23194305.2704
        45.5004         29.5004
 -25628352.72148 -19951222.97047  20495130.1954   20495118.2194
        53.5004         45.5004
  -4653567.79046  -3500124.89644  24530785.6174   24530774.2274
        40.2504         24.5004
 -19038251.32148 -14711868.44246  21624965.8754   21624953.2544
        49.7504         40.2504
  -9876634.20346  -7634726.83044  23470209.3594   23470197.0314
        40.7504         25.5004
  -2242049.13846  -1739032.30243  24933390.8984   24933380.0944
        41.0004         21.5004
  -2423204.38146  -1845124.79343  24515743.2424   24515732.3204
        38.5004         19.7504
 07  3 30  0  0 23.0000000  0 10G 5G14G31G22G 1G19G11G20G30G25
  -1388680.36946  -1682792.45542  25241673.4614   25241663.1844
        37.0004         14.7504
 -19992568.80047 -15546065.04546  21753137.8754   21753125.1954
        47.2504         36.5004
 -22342392.26648 -17377995.86447  21010057.3834   21010044.7034
        51.2504         43.7504
 -11173428.13647  -8692258.84445  23194762.9844   23194749.5394
        45.0004         30.0004
 -25628390.75148 -19951252.59847  20495122.9144   20495110.8204
        53.7504         45.5004
  -4650764.33346  -3497940.39144  24531319.4454   24531307.9964
        40.5004         24.0004
 -19039098.27748 -14712528.40946  21624804.9534   21624792.0944
        49.7504         40.0004
  -9879468.83046  -7636935.63244  23469669.6484   23469657.3794
        41.2504         26.0004
  -2243417.55946  -1740098.60943  24933129.9304   24933119.3594
        41.5004         21.5004
  -2426929.92546  -1848027.81443  24515033.4614   24515023.0664
        38.5004         19.5004
 07  3 30  0  0 24.0000000  0 10G 5G14G31G22G 1G19G11G20G30G25
  -1388849.13146  -1682923.96442  25241642.5634   25241630.9964
        37.5004         14.7504
 -19990292.98947 -15544291.68946  21753571.0864   21753558.2274
        47.0004         36.5004
 -22343812.93848 -17379102.88147  21009787.3674   21009774.5084
        51.5004         43.5004
 -11171090.25447  -8690437.11645  23195207.4454   23195194.4694
        45.5004         30.2504
 -25628427.90148 -19951281.54547  20495116.1484   20495104.3484
        53.7504         45.5004
  -4647960.35546  -3495755.48444  24531853.2194   24531841.8284
        39.5004         24.7504
 -19039944.12148 -14713187.50546  21624644.2194   21624631.3014
        50.0004         40.0004
  -9882302.84146  -7639143.94944  23469129.8674   23469118.3014
        41.5004         25.2504
  -2244785.07146  -1741164.20443  24932869.9304   24932858.9494
        41.7504         21.5004
  -2430654.84246  -1850930.35743  24514325.2424   24514314.6724
        38.5004         19.2504
 07  3 30  0  0 25.0000000  0 10G 5G14G31G22G 1G19G11G20G30G25
  -1389017.71646  -1683055.28142  25241609.0474   25241598.8284
        37.2504         14.7504
 -19988017.32447 -15542518.44346  21754003.9454   21753991.1484
        47.0004         36.0004
 -22345233.37448 -17380209.71347  21009516.8204   21009504.0824
        51.5004         43.7504
 -11168752.54747  -8688615.53545  23195652.3364   23195639.6564
        45.2504         30.2504
 -25628465.01248 -19951310.46747  20495108.9224   20495097.0044
        53.7504         45.5004
  -4645156.74546  -3493570.85244  24532386.2194   24532375.0634
        40.0004         24.5004
 -19040789.75348 -14713846.43446  21624482.8674   21624470.7734
        50.2504         39.7504
  -9885137.24046  -7641352.57744  23468590.7424   23468578.4734
        41.0004         26.0004
  -2246152.47946  -1742229.70443  24932610.2344   24932598.9024
        41.2504         21.0004
  -2434380.10046  -1853833.14943  24513615.7114   24513605.8444
        37.7504         19.5004
 07  3 30  0  0 26.0000000  0 10G 5G14G31G22G 1G19G11G20G30G25
  -1389185.45746  -1683186.00542  25241577.8984   25241566.8014
        37.7504         16.2504
 -19985741.21547 -15540744.85645  21754436.6884   21754424.4774
        47.0004         35.7504
 -22346652.94648 -17381315.87447  21009246.6334   21009234.1294
        51.7504         43.5004
 -11166414.39147  -8686793.59644  23196097.4694   23196084.5514
        45.7504         29.2504
 -25628501.45349 -19951338.85947  20495101.9924   20495090.1914
        54.0004         45.7504
  -4642352.81946  -3491385.97944  24532920.2664   24532908.2304
        40.5004         25.2504
 -19041634.51348 -14714504.69346  21624322.5004   21624309.7624
        50.2504         40.0004
  -9887971.25446  -7643560.89044  23468051.3674   23468039.2734
        40.5004         26.2504
  -2247519.17746  -1743294.65843  24932350.1254   24932338.9104
        41.5004         21.2504
  -2438105.01646  -1856735.67743  24512906.3364   24512896.5864
        37.2504         19.5004
 07  3 30  0  0 27.0000000  0 10G 5G14G31G22G 1G19G11G20G30G25
  -1389353.10046  -1683316.67442  25241545.9454   25241534.7894
        37.2504         15.5004
 -19983465.37447 -15538971.47046  21754869.8594   21754857.4734
        47.2504         36.0004
 -22348072.35848 -17382421.91047  21008976.5164   21008964.0124
        52.0004         43.7504
 -11164076.49947  -8684971.86744  23196542.5234   23196529.5474
        45.7504         29.5004
 -25628537.96348 -19951367.30947  20495094.9064   20495082.9884
        53.7504         45.5004
  -4639549.35446  -3489201.47344  24533454.1954   24533441.3364
        40.7504         24.2504
 -19042479.12848 -14715162.83846  21624161.6954   21624148.8984
        50.5004         40.2504
  -9890805.71946  -7645769.56544  23467512.0784   23467500.3364
        41.0004         25.7504
  -2248885.90546  -1744359.64343  24932090.3134   24932079.2154
        41.0004         20.7504
  -2441830.34046  -1859638.53143  24512197.4844   24512187.9104
        37.0004         19.5004
 07  3 30  0  0 28.0000000  0 10G 5G14G31G22G 1G19G11G20G30G25
  -1389519.76846  -1683446.54642  25241513.4224   25241503.0274
        37.0004         14.7504
 -19981188.93047 -15537197.61746  21755303.0864   21755290.5234
        47.5004         36.0004
 -22349490.76848 -17383527.15647  21008706.8134   21008693.8364
        51.7504         43.5004
 -11161737.99247  -8683149.65445  23196987.5634   23196974.7034
        45.7504         30.0004
 -25628573.67048 -19951395.13447  20495088.1174   20495076.3754
        53.7504         45.5004
  -4636745.45746  -3487016.61544  24533987.7194   24533975.5664
        40.5004         25.0004
 -19043322.75748 -14715820.21046  21624000.8444   21623988.1054
        50.5004         40.0004
  -9893639.72246  -7647977.86644  23466973.2034   23466960.7584
        40.5004         25.5004
  -2250251.78346  -1745423.95543  24931829.6954   24931818.8914
        41.5004         21.0004
  -2445555.14746  -1862540.99243  24511488.1724   24511478.7734
        36.5004         19.5004
 07  3 30  0  0 29.0000000  0 10G 5G14G31G22G 1G19G11G20G30G25
  -1389686.02046  -1683576.09142  25241481.5944   25241471.4344
        36.2504         15.5004
 -19978912.42147 -15535423.71746  21755736.2894   21755723.8444
        47.5004         36.2504
 -22350908.69548 -17384632.04147  21008437.0944   21008424.5314
        52.0004         43.5004
 -11159399.42547  -8681327.39144  23197432.6884   23197419.3594
        45.5004         29.7504
 -25628609.09048 -19951422.73447  20495081.2894   20495069.6644
        53.5004         45.5004
  -4633941.67546  -3484831.85744  24534521.5314   24534509.0864
        40.7504         26.0004
 -19044165.89948 -14716477.20146  21623840.2114   21623827.8834
        50.7504         40.2504
  -9896473.76646  -7650186.21544  23466433.8364   23466421.6254
        41.2504         25.0004
  -2251617.32046  -1746488.00843  24931570.2194   24931559.0044
        41.5004         21.0004
  -2449280.05446  -1865443.49743  24510780.0234   24510770.6254
        37.5004         19.7504
 07  3 30  0  0 30.0000000  0 10G 5G14G31G22G 1G19G11G20G30G25
  -1389851.77046  -1683705.23342  25241449.5474   25241439.6804
        36.0004         15.5004
 -19976635.79348 -15533649.71546  21756169.8134   21756156.9534
        48.0004         36.2504
 -22352326.07348 -17385736.48747  21008167.2734   21008154.7704
        51.7504         43.7504
 -11157060.71147  -8679505.02245  23197877.7034   23197864.2584
        45.5004         30.2504
 -25628644.19548 -19951450.07947  20495074.7274   20495062.8674
        53.5004         45.2504
  -4631137.94546  -3482647.12844  24535055.5554   24535042.8164
        41.2504         25.2504
 -19045008.51248 -14717133.78446  21623679.8674   21623667.3634
        50.7504         40.0004
  -9899307.87346  -7652394.61744  23465894.3054   23465882.2114
        41.0004         26.5004
  -2252982.51446  -1747551.79843  24931310.7664   24931298.9064
        41.0004         20.7504
  -2453004.95846  -1868345.97343  24510070.8834   24510061.1334
        37.0004         19.7504
 07  3 30  0  0 31.0000000  0 10G 5G14G31G22G 1G19G11G20G30G25
  -1390017.00946  -1683833.99242  25241418.6414   25241408.5394
        36.0004         15.5004
 -19974358.97448 -15531875.57346  21756602.9774   21756590.4734
        48.2504         36.0004
 -22353742.88248 -17386840.49647  21007897.6414   21007885.0784
        52.0004         43.7504
 -11154721.83847  -8677682.51645  23198323.1644   23198309.7774
        45.5004         30.7504
 -25628678.91148 -19951477.13547  20495067.8524   20495056.1684
        53.2504         45.5004
  -4628334.22046  -3480462.40444  24535588.9694   24535575.9924
        41.7504         24.2504
 -19045850.54448 -14717789.90646  21623519.8204   21623507.7274
        50.5004         39.7504
  -9902141.90846  -7654602.95844  23465355.9064   23465342.9884
        40.5004         24.5004
  -2254347.26446  -1748615.24843  24931050.3914   24931039.5274
        41.2504         20.7504
  -2456729.77746  -1871248.43843  24509361.4774   24509352.3714
        37.0004         19.7504
 07  3 30  0  0 32.0000000  0 10G 5G14G31G22G 1G19G11G20G30G25
  -1390181.55045  -1683962.21042  25241386.5634   25241377.1054
        35.7504         15.5004
 -19972081.86048 -15530101.19846  21757036.1564   21757023.6524
        48.0004         36.2504
 -22355158.96648 -17387943.93647  21007627.9924   21007615.6054
        51.7504         43.5004
 -11152382.64547  -8675859.77845  23198767.9844   23198754.7154
        46.0004         30.2504
 -25628713.12048 -19951503.79447  20495061.8524   20495049.7584
        53.5004         45.5004
  -4625530.35246  -3478277.58043  24536122.8054   24536109.7704
        41.2504         23.2504
 -19046691.86248 -14718445.48746  21623359.8674   21623347.2464
        50.5004         40.0004
  -9904975.79546  -7656811.18243  23464815.7194   23464803.5084
        40.7504         23.2504
  -2255711.45746  -1749678.25943  24930791.2114   24930779.5274
        41.0004         20.7504
  -2460454.44946  -1874150.79143  24508652.9924   24508643.7114
        36.7504         19.5004
 07  3 30  0  0 33.0000000  0 11G 5G23G14G31G22G 1G19G11G20G30G25
  -1390345.74346  -1684090.14342  25241356.1564   25241345.8204
        36.2504         14.7504
                                  25403405.195
        31.750
 -19969804.75748 -15528326.83146  21757469.3134   21757456.8674
        48.0004         36.5004
 -22356574.66248 -17389047.07247  21007358.5394   21007346.0354
        51.7504         43.5004
 -11150043.49647  -8674037.06344  23199213.0474   23199200.1884
        45.7504         29.7504
 -25628747.14548 -19951530.30647  20495055.3674   20495043.1564
        53.7504         45.5004
  -4622726.72646  -3476092.94043  24536656.0944   24536643.4144
        41.0004         23.5004
 -19047532.82548 -14719100.77546  21623199.8284   21623187.1484
        50.7504         40.0004
  -9907809.85446  -7659019.53244  23464277.4224   23464264.5634
        41.0004         24.5004
  -2257075.45546  -1750741.11343  24930531.6094   24930519.9264
        40.7504         20.7504
  -2464179.27446  -1877053.27443  24507944.1024   24507934.9964
        37.0004         19.2504
 07  3 30  0  0 34.0000000  0 11G 5G23G14G31G22G 1G19G11G20G30G25
  -1390509.13245  -1684217.49342  25241325.9844   25241315.1214
        35.0004         15.5004
                                  25402830.094
        31.500
 -19967527.19848 -15526552.10746  21757903.1564   21757890.4184
        48.2504         36.5004
 -22357989.48848 -17390149.53947  21007089.3594   21007076.9144
        52.0004         43.5004
 -11147703.86647  -8672213.97745  23199658.1724   23199645.0204
        46.0004         30.2504
 -25628780.49148 -19951556.28847  20495048.6024   20495036.9774
        53.7504         45.5004
  -4619922.74546  -3473908.02544  24537189.8594   24537177.0004
        41.2504         24.7504
 -19048372.89348 -14719755.37546  21623039.9924   21623027.7234
        50.0004         40.0004
  -9910643.59346  -7661227.64744  23463737.2894   23463724.7274
        40.5004         24.5004
  -2258438.67946  -1751803.34643  24930272.7424   24930260.4734
        40.7504         20.5004
  -2467903.78646  -1879955.50143  24507234.8674   24507225.8204
        36.5004         18.5004
 07  3 30  0  0 35.0000000  0 11G 5G23G14G31G22G 1G19G11G20G30G25
  -1390672.14445  -1684344.50742  25241294.2424   25241283.9064
        35.0004         16.2504
                                  25402255.438
        31.000
 -19965249.64848 -15524777.39546  21758336.7504   21758324.0704
        48.0004         36.7504
 -22359403.90948 -17391251.67747  21006819.8364   21006807.6844
        52.0004         43.2504
 -11145364.26547  -8670390.90945  23200103.5704   23200090.3014
        45.7504         30.5004
 -25628813.67148 -19951582.14247  20495042.4694   20495030.4344
        53.5004         45.2504
  -4617119.01246  -3471723.29744  24537723.1954   24537710.3984
        41.5004         26.0004
 -19049212.58048 -14720409.67446  21622880.2814   21622867.8954
        50.5004         40.0004
  -9913477.44246  -7663435.87544  23463198.0394   23463185.8874
        41.0004         24.2504
  -2259801.70246  -1752865.44943  24930011.9064   24930001.2194
        40.5004         20.2504
  -2471628.43646  -1882857.79943  24506526.8674   24506517.2344
        37.0004         18.5004
 07  3 30  0  0 36.0000000  0 11G 5G23G14G31G22G 1G19G11G20G30G25
  -1390834.48845  -1684471.01142  25241262.9454   25241252.8444
        34.5004         15.5004
                                  25401681.055
        31.000
 -19962971.78648 -15523002.44346  21758770.2584   21758757.2234
        48.0004         36.5004
 -22360817.62048 -17392353.26747  21006550.9144   21006538.6454
        52.0004         43.2504
 -11143024.34847  -8668567.59845  23200548.6414   23200535.4884
        46.0004         30.0004
 -25628846.33948 -19951607.59947  20495036.0394   20495024.3554
        53.2504         45.5004
  -4614315.13446  -3469538.45444  24538256.4304   24538244.5704
        41.5004         25.5004
 -19050051.57648 -14721063.44346  21622719.9694   21622707.6414
        50.2504         40.2504
  -9916311.20846  -7665643.97144  23462658.9614   23462646.6914
        41.0004         25.2504
  -2261164.20546  -1753927.14843  24929752.6484   24929741.4924
        40.5004         20.2504
  -2475352.88446  -1885759.94643  24505818.9304   24505808.3014
        38.5004         18.5004
 07  3 30  0  0 37.0000000  0 11G 5G23G14G31G22G 1G19G11G20G30G25
  -1390996.40445  -1684597.18542  25241231.5164   25241222.3524
        34.2504         15.5004
    579441.745 5                  25401106.992
        30.750
 -19960693.84848 -15521227.43046  21759203.3984   21759191.2464
        48.0004         36.2504
 -22362230.81748 -17393454.46347  21006281.6484   21006269.7304
        51.2504         43.2504
 -11140684.33647  -8666744.21345  23200993.7894   23200980.5784
        46.2504         31.0004
 -25628878.69748 -19951632.80447  20495030.0704   20495017.8594
        53.5004         45.5004
  -4611511.34146  -3467353.68344  24538790.0004   24538777.7304
        41.7504         25.2504
 -19050890.04348 -14721716.78946  21622560.4534   21622548.4184
        49.5004         40.0004
  -9919144.98246  -7667852.11244  23462118.7894   23462107.5164
        40.7504         25.5004
  -2262526.32846  -1754988.54043  24929493.7974   24929482.5824
        40.5004         20.2504
  -2479077.41246  -1888662.18143  24505110.3754   24505099.9224
        39.2504         18.5004
 07  3 30  0  0 38.0000000  0 11G 5G23G14G31G22G 1G19G11G20G30G25
  -1391157.73845  -1684722.90442  25241200.8914   25241191.3754
        35.0004         14.7504
    576423.070 5                  25400532.828
        32.250
 -19958415.70148 -15519452.25146  21759637.3134   21759624.5164
        48.2504         36.2504
 -22363643.42748 -17394555.19447  21006012.9694   21006000.9344
        51.2504         43.0004
 -11138344.13247  -8664920.68345  23201438.8444   23201426.5164
        46.0004         31.0004
 -25628910.66748 -19951657.71847  20495023.8444   20495012.2774
        53.5004         45.5004
  -4608707.53847  -3465168.89944  24539324.0004   24539311.4384
        42.0004         25.5004
 -19051727.92348 -14722369.68746  21622400.8834   21622388.9064
        49.7504         40.0004
  -9921978.72446  -7670060.22544  23461579.3674   23461567.9774
        40.2504         25.0004
  -2263888.02446  -1756049.59443  24929234.9224   24929223.2974
        40.2504         20.0004
  -2482801.82946  -1891564.32842  24504402.0084   24504391.0864
        39.2504         17.7504
 07  3 30  0  0 39.0000000  0 11G 5G23G14G31G22G 1G19G11G20G30G25
  -1391318.48345  -1684848.17142  25241171.3594   25241161.1994
        35.0004         15.5004
    573404.611 5                  25399958.758
        31.250
 -19956137.33448 -15517676.89846  21760071.1254   21760058.0314
        48.0004         36.2504
 -22365055.37148 -17395655.41347  21005744.3984   21005732.5984
        51.5004         43.2504
 -11136003.68647  -8663096.96345  23201884.6174   23201871.5824
        45.7504         30.7504
 -25628942.20548 -19951682.29847  20495017.8054   20495006.1214
        53.2504         45.5004
  -4605903.65647  -3462984.06244  24539857.4064   24539844.7854
        42.0004         27.2504
 -19052565.16048 -14723022.08346  21622241.3444   21622229.2504
        49.2504         39.5004
  -9924812.37046  -7672268.26044  23461040.1174   23461029.1954
        40.5004         25.0004
  -2265249.22246  -1757110.24843  24928974.7584   24928964.1884
        40.5004         19.7504
  -2486526.13946  -1894466.39143  24503692.5784   24503682.7704
        39.0004         18.2504
 07  3 30  0  0 40.0000000  0 11G 5G23G14G31G22G 1G19G11G20G30G25
  -1391478.78545  -1684973.05142  25241141.2274   25241130.6564
        35.0004         14.7504
                                  25399383.523
        32.000
 -19953858.82148 -15515901.43146  21760504.2974   21760491.3204
        48.0004         36.2504
 -22366466.77448 -17396755.20747  21005476.0394   21005463.3014
        51.2504         43.2504
 -11133663.10647  -8661273.13745  23202329.8594   23202317.0634
        45.7504         30.2504
 -25628973.39448 -19951706.59647  20495012.1724   20495000.5474
        53.0004         45.7504
  -4603099.84247  -3460799.26744  24540390.6334   24540378.4224
        42.0004         27.0004
 -19053401.86448 -14723674.05346  21622082.9614   21622070.3404
        49.7504         39.7504
  -9927646.03846  -7674476.30444  23460500.6884   23460489.7074
        41.2504         26.2504
  -2266610.05146  -1758170.63143  24928716.2034   24928705.2234
        40.2504         19.7504
  -2490250.49046  -1897368.48443  24502984.1564   24502973.5864
        39.0004         18.2504
 07  3 30  0  0 41.0000000  0 11G 5G23G14G31G22G 1G19G11G20G30G25
  -1391638.41845  -1685097.45342  25241109.9694   25241100.2194
        34.7504         14.7504
                                  25398810.234
        31.750
 -19951580.06847 -15514125.78046  21760937.7664   21760925.2034
        47.7504         36.7504
 -22367877.52448 -17397854.49247  21005207.6414   21005195.0784
        51.7504         43.2504
 -11131322.29947  -8659449.12645  23202775.2664   23202762.8204
        45.5004         30.5004
 -25629004.13248 -19951730.55347  20495006.0864   20494994.1094
        53.0004         45.7504
  -4600295.94446  -3458614.41744  24540924.4774   24540912.3244
        41.7504         26.5004
 -19054237.91148 -14724325.51746  21621923.7664   21621911.3794
        50.0004         39.5004
  -9930479.58746  -7676684.25944  23459960.9534   23459950.4414
        40.5004         26.5004
  -2267970.35546  -1759230.62343  24928457.6884   24928446.7074
        39.5004         20.2504
  -2493974.62546  -1900270.42143  24502275.7974   24502265.5204
        39.0004         19.0004
 07  3 30  0  0 42.0000000  0 11G 5G23G14G31G22G 1G19G11G20G30G25
  -1391797.41445  -1685221.34642  25241079.4774   25241069.7274
        35.0004         15.5004
                                  25398236.719
        33.500
 -19949301.04648 -15512349.91946  21761371.5554   21761358.5784
        48.2504         36.2504
 -22369287.62148 -17398953.26347  21004939.2584   21004926.9304
        51.7504         43.2504
 -11128981.23847  -8657624.92145  23203220.6094   23203207.8134
        45.7504         30.2504
 -25629034.42548 -19951754.15347  20495000.4774   20494989.0274
        53.2504         45.7504
  -4597491.96146  -3456429.50144  24541457.6804   24541445.7624
        41.7504         26.2504
 -19055073.31348 -14724976.48046  21621764.2894   21621752.1954
        50.0004         39.5004
  -9933313.04346  -7678892.15144  23459422.0784   23459411.3914
        40.7504         25.5004
  -2269330.18346  -1760290.21843  24928198.0004   24928188.2504
        39.5004         20.5004
  -2497698.78446  -1903172.36643  24501566.3284   24501556.4614
        39.2504         19.7504
 07  3 30  0  0 43.0000000  0 11G 5G23G14G31G22G 1G19G11G20G30G25
  -1391955.96345  -1685344.87442  25241049.9694   25241039.2234
        34.7504         15.5004
    561331.668 5                  25397662.398
        32.750
 -19947021.93148 -15510573.98646  21761805.6644   21761792.4534
        48.0004         36.2504
 -22370697.18948 -17400051.63047  21004671.0084   21004658.5634
        51.7504         43.2504
 -11126640.04547  -8655800.61745  23203666.2974   23203653.0864
        45.7504         30.7504
 -25629064.40048 -19951777.51247  20494994.5864   20494983.0784
        53.2504         45.7504
  -4594688.09346  -3454244.66644  24541991.4144   24541979.3794
        41.7504         26.5004
 -19055908.20948 -14725627.05446  21621605.7814   21621593.3364
        50.2504         39.5004
  -9936146.54746  -7681100.03344  23458883.0944   23458872.3484
        41.0004         25.0004
  -2270689.64146  -1761349.56643  24927939.7194   24927929.6764
        39.7504         20.0004
  -2501422.86246  -1906074.22843  24500858.1024   24500847.8834
        38.2504         20.2504
 07  3 30  0  0 44.0000000  0 11G 5G23G14G31G22G 1G19G11G20G30G25
  -1392114.04745  -1685468.06442  25241019.5004   25241009.5164
        34.7504         16.2504
    558313.617 5                  25397087.258
        33.750
 -19944742.70048 -15508797.96246  21762239.0634   21762226.3834
        48.5004         36.2504
 -22372106.22648 -17401149.57847  21004403.0554   21004390.1954
        51.5004         43.5004
 -11124298.75147  -8653976.23445  23204112.1094   23204098.7814
        45.7504         30.5004
 -25629094.06648 -19951800.62547  20494989.0084   20494977.2664
        53.5004         45.7504
  -4591884.26446  -3452059.86944  24542524.6564   24542512.9144
        41.5004         25.7504
 -19056742.57048 -14726277.20146  21621447.0944   21621434.7074
        50.2504         39.2504
  -9938980.05246  -7683307.98844  23458343.8594   23458332.8794
        40.5004         25.5004
  -2272048.73646  -1762408.58443  24927680.6724   24927670.5124
        40.0004         20.2504
  -2505147.01046  -1908976.15243  24500149.3594   24500139.1994
        38.5004         20.0004
 07  3 30  0  0 45.0000000  0 11G 5G23G14G31G22G 1G19G11G20G30G25
  -1392271.46945  -1685590.72042  25240989.5394   25240979.4384
        35.0004         15.5004
    555295.790 5                  25396513.734
        34.750
 -19942463.15848 -15507021.69446  21762673.0474   21762660.0124
        48.0004         36.0004
 -22373514.53448 -17402246.96047  21004135.2424   21004122.4454
        51.5004         43.5004
 -11121957.14347  -8652151.60645  23204557.8754   23204544.5474
        45.7504         30.5004
 -25629123.20348 -19951823.33647  20494983.6484   20494971.7304
        53.2504         45.5004
  -4589080.28546  -3449874.95644  24543058.1024   24543046.2424
        41.0004         25.5004
 -19057576.21548 -14726926.79946  21621288.5704   21621276.2424
        50.2504         39.5004
  -9941813.40346  -7685515.79544  23457804.3524   23457793.8404
        41.0004         24.7504
  -2273407.25946  -1763467.17343  24927421.9924   24927412.2424
        40.5004         20.2504
  -2508870.91546  -1911877.89343  24499441.2344   24499431.0744
        38.7504         20.5004
 07  3 30  0  0 46.0000000  0 11G 5G23G14G31G22G 1G19G11G20G30G25
  -1392428.27745  -1685712.91542  25240960.4384   25240950.1024
        35.2504         15.5004
    552278.116 5                  25395939.469
        34.000
 -19940183.38447 -15505245.24846  21763106.4614   21763093.7814
        47.7504         36.5004
 -22374922.22048 -17403343.85847  21003867.1174   21003854.7304
        51.5004         43.5004
 -11119615.32347  -8650326.81745  23205003.1644   23204989.6024
        45.5004         30.0004
 -25629151.92048 -19951845.70647  20494978.0634   20494966.3794
        53.0004         45.5004
  -4586276.26646  -3447690.00344  24543591.5864   24543579.8444
        41.0004         26.5004
 -19058409.25348 -14727575.91946  21621130.2424   21621117.3834
        50.5004         39.7504
  -9944646.66246  -7687723.52444  23457265.0554   23457255.2464
        41.0004         25.2504
  -2274765.32846  -1764525.41843  24927163.4614   24927153.5944
        39.7504         20.2504
  -2512594.74846  -1914779.58643  24498732.8054   24498722.1764
        38.5004         20.5004
 07  3 30  0  0 47.0000000  0 11G 5G23G14G31G22G 1G19G11G20G30G25
  -1392584.74245  -1685834.82942  25240929.8674   25240919.9414
        34.7504         14.7504
    549260.371 5                  25395364.070
        34.500
 -19937903.64448 -15503468.82346  21763540.4614   21763527.6644
        48.0004         36.0004
 -22376329.51748 -17404440.45547  21003599.2194   21003587.0084
        51.2504         43.5004
 -11117273.47647  -8648502.00244  23205449.1414   23205435.9304
        45.2504         29.2504
 -25629180.45648 -19951867.94447  20494972.5234   20494960.4884
        53.2504         45.5004
  -4583472.43146  -3445505.19544  24544125.2974   24544113.9064
        41.2504         25.2504
 -19059241.89848 -14728224.72846  21620971.7814   21620958.8054
        50.2504         39.7504
  -9947480.04846  -7689931.34744  23456726.6024   23456715.6804
        40.7504         25.5004
  -2276123.14946  -1765583.44143  24926905.3204   24926895.5704
        40.2504         20.5004
  -2516318.66946  -1917681.34243  24498023.8134   24498013.1844
        38.0004         20.7504
 07  3 30  0  0 48.0000000  0 11G 5G23G14G31G22G 1G19G11G20G30G25
  -1392740.61145  -1685956.28042  25240899.9064   25240890.2734
        34.5004         14.7504
    546242.773 5                  25394790.320
        34.500
 -19935623.70147 -15501692.24046  21763974.2344   21763961.1414
        47.7504         36.5004
 -22377736.19448 -17405536.56547  21003331.5704   21003319.3014
        51.5004         43.5004
 -11114931.47547  -8646677.07044  23205895.2424   23205881.5634
        45.0004         29.2504
 -25629208.58348 -19951889.86447  20494967.4224   20494955.3284
        53.0004         45.5004
  -4580668.61846  -3443320.41244  24544658.1484   24544646.8164
        41.0004         25.7504
 -19060073.95048 -14728873.08046  21620813.5944   21620801.0904
        50.2504         40.0004
  -9950313.46246  -7692139.20344  23456187.3674   23456176.6804
        41.0004         26.2504
  -2277480.50146  -1766641.12643  24926646.9454   24926637.1954
        40.0004         20.2504
  -2520042.60346  -1920583.10043  24497314.6484   24497305.1914
        38.2504         21.0004
 07  3 30  0  0 49.0000000  0 11G 5G23G14G31G22G 1G19G11G20G30G25
  -1392895.79245  -1686077.23042  25240870.3674   25240860.6174
        34.7504         14.7504
    543225.425 5                  25394215.602
        34.250
 -19933343.39147 -15499915.37946  21764408.3834   21764395.7034
        47.7504         36.5004
 -22379142.07448 -17406632.05947  21003063.8284   21003052.0274
        51.0004         43.5004
 -11112589.07647  -8644851.82644  23206340.6174   23206327.2304
        45.5004         29.0004
 -25629236.13548 -19951911.33447  20494961.9064   20494950.1644
        53.0004         45.2504
  -4577864.60946  -3441135.47044  24545191.8204   24545180.7234
        40.7504         26.2504
 -19060905.21348 -14729520.81646  21620655.1094   21620642.6054
        50.0004         40.0004
  -9953146.58046  -7694346.82144  23455648.7274   23455637.1024
        41.2504         25.2504
  -2278837.24146  -1767698.34243  24926388.9144   24926379.4574
        40.5004         20.0004
  -2523766.30646  -1923484.69443  24496606.3444   24496595.8914
        37.7504         21.5004
 07  3 30  0  0 50.0000000  0 11G 5G23G14G31G22G 1G19G11G20G30G25
  -1393050.43145  -1686197.72142  25240840.7274   25240831.0944
        35.0004         14.7504
    540208.272 5                  25393641.688
        34.500
 -19931062.87947 -15498138.35446  21764842.2274   21764829.3094
        47.7504         36.0004
 -22380547.38048 -17407727.10047  21002796.8204   21002784.1994
        50.7504         43.2504
 -11110246.48547  -8643026.43944  23206786.1334   23206772.6884
        45.0004         29.2504
 -25629263.30948 -19951932.50447  20494956.7894   20494944.5204
        52.5004         45.5004
  -4575060.50346  -3438950.45744  24545725.6804   24545713.6454
        41.0004         25.2504
 -19061735.86748 -14730168.08446  21620497.3524   21620484.6134
        50.0004         39.7504
  -9955979.70646  -7696554.44344  23455109.7734   23455098.0314
        41.5004         25.5004
  -2280193.53546  -1768755.16843  24926129.9924   24926120.8284
        39.7504         20.5004
  -2527489.86946  -1926386.16443  24495897.0474   24495887.6484
        38.0004         21.2504
 07  3 30  0  0 51.0000000  0 11G 5G23G14G31G22G 1G19G11G20G30G25
  -1393204.65745  -1686317.88942  25240811.1414   25240801.4494
        35.0004         14.7504
    537190.939 5                  25393067.102
        35.500
 -19928782.37147 -15496361.34046  21765275.9614   21765263.5164
        47.5004         36.5004
 -22381952.26248 -17408821.81147  21002529.1254   21002517.0904
        50.7504         43.2504
 -11107903.90347  -8641201.05344  23207231.8364   23207218.8594
        45.0004         29.2504
 -25629290.26948 -19951953.51747  20494951.4614   20494939.8364
        52.2504         45.5004
  -4572256.67446  -3436765.65844  24546259.3054   24546247.4454
        41.5004         24.2504
 -19062566.13548 -14730815.04146  21620339.2504   21620326.2734
        50.0004         39.5004
  -9958812.96147  -7698762.18144  23454571.3984   23454559.1884
        42.0004         25.7504
  -2281549.60046  -1769811.84743  24925872.5634   24925863.1054
        40.0004         20.5004
  -2531213.66346  -1929287.82343  24495188.1334   24495178.6764
        37.5004         21.0004
 07  3 30  0  0 52.0000000  0 11G 5G23G14G31G22G 1G19G11G20G30G25
  -1393358.10045  -1686437.44742  25240782.3134   25240772.2704
        35.0004         14.7504
    534174.048 5                  25392493.008
        35.000
 -19926501.44447 -15494583.99646  21765710.4064   21765697.5474
        47.5004         36.2504
 -22383356.30948 -17409915.87247  21002262.1644   21002250.0704
        51.2504         43.5004
 -11105560.89047  -8639375.31544  23207677.7344   23207664.4654
        44.5004         28.5004
 -25629316.60348 -19951974.03147  20494946.6174   20494935.1094
        52.0004         45.5004
  -4569452.52946  -3434580.61544  24546793.1644   24546780.9534
        41.5004         25.2504
 -19063395.55548 -14731461.34146  21620181.1954   21620168.8674
        50.0004         39.7504
  -9961645.89146  -7700969.65944  23454031.9064   23454020.0474
        41.2504         24.5004
  -2282904.97646  -1770867.97943  24925614.2114   24925604.8714
        40.5004         20.7504
  -2534937.06946  -1932189.19243  24494480.1094   24494470.1844
        37.5004         20.0004
 07  3 30  0  0 53.0000000  0 11G 5G23G14G31G22G 1G19G11G20G30G25
  -1393511.31445  -1686556.78442  25240752.2344   25240743.1294
        34.2504         14.7504
    531156.926 5                  25391919.305
        34.750
 -19924220.60347 -15492806.71646  21766144.1564   21766131.2384
        47.2504         36.2504
 -22384760.05048 -17411009.69747  21001994.7974   21001982.5864
        51.2504         43.5004
 -11103217.98347  -8637549.67644  23208123.9454   23208110.2074
        44.5004         29.0004
 -25629342.82448 -19951994.46647  20494941.0314   20494929.9924
        52.5004         45.2504
  -4566648.69746  -3432395.81644  24547326.9454   24547314.7934
        41.7504         25.2504
 -19064224.68248 -14732107.41646  21620023.4924   21620010.9304
        50.5004         40.0004
  -9964479.08847  -7703177.35144  23453492.9144   23453481.0554
        42.2504         25.0004
  -2284260.17446  -1771923.96043  24925356.8444   24925347.1524
        40.2504         20.2504
  -2538660.77346  -1935090.75443  24493771.5474   24493761.6804
        37.0004         19.7504
 07  3 30  0  0 54.0000000  0 11G 5G23G14G31G22G 1G19G11G20G30G25
  -1393663.77245  -1686675.57142  25240724.8204   25240714.3674
        34.5004         14.7504
    528140.207 5                  25391344.797
        34.500
 -19921939.39547 -15491029.15345  21766578.2664   21766565.2894
        47.0004         35.5004
 -22386163.01248 -17412102.91347  21001727.9224   21001715.7704
        51.5004         43.5004
 -11100874.71647  -8635723.75744  23208570.2424   23208556.6214
        44.5004         29.5004
 -25629368.47848 -19952014.45647  20494936.6804   20494925.0554
        52.2504         45.5004
  -4563844.68346  -3430210.86144  24547860.1564   24547848.1804
        41.0004         26.0004
 -19065053.03548 -14732752.88646  21619865.8914   21619853.3284
        51.0004         39.7504
  -9967312.08447  -7705384.87944  23452953.2504   23452941.7424
        42.2504         25.7504
  -2285614.80346  -1772979.50843  24925098.4384   24925089.2734
        39.5004         20.5004
  -2542384.19846  -1937992.11443  24493063.3204   24493052.9844
        38.0004         19.7504
 07  3 30  0  0 55.0000000  0 11G 5G23G14G31G22G 1G19G11G20G30G25
  -1393815.79045  -1686794.03042  25240695.8054   25240685.2344
        35.5004         15.5004
    525123.327 5                  25390770.781
        33.500
 -19919658.09347 -15489251.51845  21767012.2504   21766999.5704
        47.0004         35.5004
 -22387565.43148 -17413195.71147  21001461.1024   21001448.9494
        51.5004         43.5004
 -11098531.29347  -8633897.71644  23209015.9144   23209002.5274
        44.2504         29.0004
 -25629393.83248 -19952034.21247  20494931.8444   20494920.1024
        52.2504         45.5004
  -4561040.71446  -3428025.96544  24548393.9454   24548381.7344
        41.0004         25.0004
 -19065880.86548 -14733397.94646  21619708.4924   21619695.9304
        50.5004         39.7504
  -9970145.08446  -7707592.41144  23452414.4774   23452402.5594
        41.2504         24.5004
  -2286969.05546  -1774034.76743  24924841.3054   24924831.3204
        40.0004         20.2504
  -2546107.67546  -1940893.52043  24492354.4384   24492343.8674
        38.0004         20.2504
 07  3 30  0  0 56.0000000  0 11G 5G23G14G31G22G 1G19G11G20G30G25
  -1393967.29146  -1686912.08342  25240667.6484   25240656.2584
        36.5004         15.5004
    522106.531 5                  25390196.797
        34.250
 -19917376.68547 -15487473.79946  21767446.5554   21767433.5784
        46.7504         36.0004
 -22388967.35848 -17414288.11947  21001194.2664   21001181.7624
        52.0004         43.5004
 -11096187.83147  -8632071.64544  23209461.4844   23209448.5084
        44.0004         29.5004
 -25629418.86848 -19952053.72247  20494927.1724   20494915.4884
        51.7504         45.5004
  -4558236.84946  -3425841.12944  24548927.2034   24548915.1684
        40.7504         24.2504
 -19066708.20248 -14734042.62846  21619550.7894   21619538.1684
        50.5004         40.0004
  -9972978.15146  -7709799.99044  23451875.5164   23451863.7154
        41.2504         24.5004
  -2288322.95046  -1775089.76143  24924583.4384   24924574.2734
        39.5004         20.5004
  -2549831.16346  -1943794.95143  24491647.2274   24491635.5434
        38.7504         20.5004
 07  3 30  0  0 57.0000000  0 11G 5G23G14G31G22G 1G19G11G20G30G25
  -1394118.10146  -1687029.63242  25240639.4304   25240628.0394
        37.0004         14.7504
    519090.140 5                  25389623.563
        33.750
 -19915094.91847 -15485695.79446  21767880.4774   21767867.7974
        46.7504         36.0004
 -22390368.52348 -17415379.93447  21000927.4694   21000915.3164
        52.0004         43.5004
 -11093843.97047  -8630245.26545  23209907.2974   23209894.1454
        43.2504         30.5004
 -25629443.35848 -19952072.79847  20494922.2664   20494910.5234
        51.7504         45.2504
  -4555432.78946  -3423656.12844  24549461.5554   24549448.5204
        41.0004         25.5004
 -19067534.77748 -14734686.70846  21619393.6884   21619381.1254
        50.2504         39.7504
  -9975810.98746  -7712007.40144  23451335.7034   23451324.2544
        41.0004         25.0004
  -2289676.26446  -1776144.29043  24924325.6254   24924316.7544
        39.5004         20.7504
  -2553554.42446  -1946696.18643  24490938.3054   24490927.0904
        39.0004         20.5004
 07  3 30  0  0 58.0000000  0 11G 5G23G14G31G22G 1G19G11G20G30G25
  -1394268.36746  -1687146.72042  25240611.2814   25240599.1294
        37.2504         15.5004
    516073.723 5                  25389049.422
        34.750
 -19912812.96647 -15483917.64446  21768314.8134   21768302.4844
        46.5004         36.5004
 -22391769.06948 -17416471.27147  21000660.9534   21000648.9184
        51.5004         43.7504
 -11091499.92447  -8628418.73344  23210352.5634   23210340.0004
        43.0004         28.7504
 -25629467.44048 -19952091.56647  20494917.9534   20494906.4454
        52.0004         45.5004
  -4552628.72846  -3421471.14744  24549995.3054   24549982.5664
        41.5004         25.7504
 -19068360.76548 -14735330.33546  21619236.2664   21619223.7624
        50.7504         40.0004
  -9978643.77546  -7714214.77344  23450797.5784   23450785.3094
        41.5004         26.2504
  -2291029.09946  -1777198.44943  24924068.3754   24924059.2114
        40.0004         20.7504
  -2557277.60246  -1949597.36343  24490230.0234   24490218.1644
        39.5004         20.5004
 07  3 30  0  0 59.0000000  0 11G 5G23G14G31G22G 1G19G11G20G30G25
  -1394418.27546  -1687263.52642  25240581.9224   25240570.5904
        37.2504         15.5004
    513057.212 5                  25388476.180
        35.000
 -19910531.05047 -15482139.53246  21768748.9844   21768736.5984
        46.5004         36.2504
 -22393169.25048 -17417562.31847  21000394.4844   21000382.3324
        51.0004         43.7504
 -11089155.91147  -8626592.22644  23210799.5234   23210785.8444
        43.0004         28.7504
 -25629491.38348 -19952110.22347  20494913.3284   20494901.5274
        52.2504         45.5004
  -4549824.89046  -3419286.32844  24550528.5864   24550516.0824
        41.2504         25.2504
 -19069186.37648 -14735973.67246  21619078.7814   21619066.6884
        50.7504         39.7504
  -9981476.78646  -7716422.31244  23450258.6174   23450246.2894
        41.7504         26.0004
  -2292381.74446  -1778252.45743  24923811.0704   24923801.9064
        39.2504         20.7504
  -2561000.96546  -1952498.68643  24489521.7344   24489510.2274
        39.7504         20.5004
 07  3 30  0  1  0.0000000  0 11G 5G23G14G31G22G 1G19G11G20G30G25
  -1394567.48046  -1687379.80242  25240553.0704   25240542.0904
        37.7504         14.7504
    510041.058 5                  25387902.563
        34.000
 -19908248.76847 -15480361.13446  21769183.2974   21769170.6764
        46.5004         36.2504
 -22394568.64248 -17418652.75447  21000128.0704   21000115.8594
        51.0004         43.7504
 -11086811.53947  -8624765.44544  23211244.3364   23211232.0664
        42.5004         29.5004
 -25629514.74948 -19952128.42947  20494908.7344   20494897.1094
        52.2504         45.5004
  -4547020.82046  -3417101.34344  24551062.1174   24551049.9064
        40.7504         25.5004
 -19070011.21848 -14736616.40146  21618921.8984   21618909.6294
        50.0004         39.7504
  -9984309.51046  -7718629.63044  23449718.7114   23449707.2034
        41.0004         25.5004
  -2293733.77346  -1779305.98643  24923553.8284   24923544.4884
        39.7504         21.2504
  -2564724.05946  -1955399.80143  24488812.4304   24488801.8014
        39.2504         20.7504
 07  3 30  0  1  1.0000000  0 11G 5G23G14G31G22G 1G19G11G20G30G25
  -1394716.14346  -1687495.64942  25240525.7974   25240513.9384
        38.0004         14.7504
    507024.963 5                  25387328.117
        35.750
 -19905966.34247 -15478582.61846  21769617.8444   21769604.9844
        46.2504         36.5004
 -22395967.48848 -17419742.75747  20999861.9534   20999849.8594
        51.2504         43.5004
 -11084467.01647  -8622938.54644  23211690.9924   23211678.3134
        42.5004         29.7504
 -25629537.73248 -19952146.33847  20494904.3754   20494892.6334
        52.0004         45.5004
  -4544216.83146  -3414916.41343  24551596.2814   24551583.1294
        41.0004         23.5004
 -19070835.50648 -14737258.70846  21618765.0634   21618752.7934
        49.7504         39.7504
  -9987142.25746  -7720836.96044  23449180.2734   23449168.1214
        41.2504         26.2504
  -2295085.38946  -1780359.17343  24923297.0004   24923287.0744
        40.0004         21.2504
  -2568447.11946  -1958300.88143  24488103.7974   24488093.0514
        38.7504         20.7504
 07  3 30  0  1  2.0000000  0 11G 5G23G14G31G22G 1G19G11G20G30G25
  -1394864.18346  -1687610.99142  25240496.5554   25240485.4574
        38.2504         14.7504
    504009.030 5                  25386753.484
        35.500
 -19903683.64547 -15476803.89846  21770052.4304   21770039.4534
        46.0004         36.7504
 -22397365.61848 -17420832.21247  20999596.3054   20999583.8014
        51.5004         43.7504
 -11082122.21347  -8621111.42844  23212137.2344   23212124.5554
        42.7504         29.5004
 -25629560.25648 -19952163.89547  20494900.2344   20494888.8444
        52.0004         45.2504
  -4541412.69746  -3412731.37044  24552129.8754   24552116.7814
        41.5004         24.0004
 -19071659.11248 -14737900.48046  21618608.3284   21618596.1174
        49.5004         39.7504
  -9989974.87846  -7723044.21144  23448641.0004   23448629.0824
        41.2504         25.0004
  -2296436.44846  -1781411.94043  24923040.3284   24923030.0514
        39.5004         21.0004
  -2572170.06446  -1961201.88543  24487394.6954   24487385.1804
        38.7504         21.0004
 07  3 30  0  1  3.0000000  0 11G 5G23G14G31G22G 1G19G11G20G30G25
  -1395011.87846  -1687726.08342  25240468.7504   25240457.4774
        37.5004         15.5004
    500993.005 6                  25386180.531
        36.000
 -19901400.97447 -15475025.19446  21770486.0864   21770473.8754
        45.5004         36.5004
 -22398763.40248 -17421921.39047  20999330.6174   20999317.8794
        51.7504         43.7504
 -11079777.44847  -8619284.34144  23212584.2664   23212570.5274
        42.5004         29.5004
 -25629582.62348 -19952181.31947  20494895.9534   20494884.5044
        52.0004         45.5004
  -4538608.82646  -3410546.54144  24552662.9224   24552650.5354
        40.7504         24.0004
 -19072482.36548 -14738541.97046  21618451.5864   21618439.5514
        50.0004         40.0004
  -9992807.69746  -7725251.59544  23448101.4384   23448089.9884
        40.7504         26.2504
  -2297787.33046  -1782464.57843  24922782.6254   24922772.7584
        39.5004         21.5004
  -2575893.21046  -1964103.02743  24486687.0314   24486676.7544
        39.2504         21.0004
 07  3 30  0  1  4.0000000  0 11G 5G23G14G31G22G 1G19G11G20G30G25
  -1395158.76246  -1687840.53542  25240439.6564   25240429.4384
        36.7504         14.7504
    497977.306 5                  25385606.852
        35.000
 -19899117.88647 -15473246.16246  21770920.5944   21770908.6174
        45.5004         36.0004
 -22400160.31748 -17423009.89647  20999064.6954   20999052.2504
        51.7504         43.7504
 -11077432.25847  -8617456.91945  23213030.4224   23213017.3284
        43.0004         30.2504
 -25629604.34748 -19952198.24747  20494891.8284   20494880.4384
        52.2504         45.5004
  -4535804.67646  -3408361.49344  24553196.0314   24553184.2894
        40.0004         24.2504
 -19073304.76048 -14739182.79746  21618295.2344   21618282.9654
        50.0004         39.7504
  -9995640.23146  -7727458.75344  23447562.4144   23447551.2584
        41.5004         26.0004
  -2299137.51446  -1783516.66643  24922526.4384   24922516.1604
        40.2504         21.2504
  -2579615.98346  -1967003.87243  24485977.8524   24485967.9264
        39.0004         21.0004
 07  3 30  0  1  5.0000000  0 11G 5G23G14G31G22G 1G19G11G20G30G25
  -1395305.32546  -1687954.74542  25240412.5314   25240401.4924
        36.2504         14.7504
    494961.647 5                  25385033.117
        35.750
 -19896834.79047 -15471467.12446  21771354.8594   21771342.4734
        45.5004         36.2504
 -22401556.84848 -17424098.10247  20998798.6884   20998786.3014
        51.5004         43.7504
 -11075087.04147  -8615629.47444  23213476.5864   23213463.8484
        42.5004         29.7504
 -25629625.85548 -19952215.00947  20494887.8204   20494876.0204
        52.0004         45.5004
  -4533000.72846  -3406176.60744  24553729.8204   24553718.1374
        39.5004         24.7504
 -19074126.75748 -14739823.31246  21618138.8524   21618126.4654
        50.2504         40.0004
  -9998472.89946  -7729666.02544  23447022.3594   23447012.1414
        41.0004         26.2504
  -2300487.43246  -1784568.54543  24922269.0084   24922259.1994
        40.2504         21.5004
  -2583338.89946  -1969904.84343  24485269.8054   24485259.7624
        38.5004         21.0004
 07  3 30  0  1  6.0000000  0 11G 5G23G14G31G22G 1G19G11G20G30G25
  -1395451.24546  -1688068.44342  25240385.1724   25240373.9574
        36.7504         15.5004
    491946.122 6                  25384459.609
        36.250
 -19894551.43747 -15469687.89246  21771790.0004   21771777.1414
        45.7504         36.0004
 -22402952.70148 -17425185.78047  20998533.1644   20998520.8954
        51.7504         43.7504
 -11072741.59947  -8613801.85245  23213922.9774   23213909.7074
        42.7504         30.0004
 -25629646.92848 -19952231.42547  20494883.6174   20494872.2274
        51.2504         45.5004
  -4530196.68946  -3403991.64244  24554263.0474   24554251.7734
        40.0004         24.7504
 -19074948.11048 -14740463.33846  21617982.4454   21617970.5864
        50.5004         39.7504
 -10001305.45446  -7731873.21044  23446484.4774   23446473.3794
        41.2504         25.7504
  -2301836.86746  -1785620.04743  24922011.8674   24922002.2934
        40.2504         21.7504
  -2587061.73246  -1972805.75443  24484561.6484   24484551.0784
        38.7504         21.2504
 07  3 30  0  1  7.0000000  0 11G 5G23G14G31G22G 1G19G11G20G30G25
  -1395596.70446  -1688181.77842  25240357.2504   25240346.4454
        37.5004         15.5004
    488930.572 6                  25383885.195
        36.250
 -19892267.96347 -15467908.56445  21772224.2274   21772211.8404
        45.7504         35.7504
 -22404348.01848 -17426273.03247  20998267.6024   20998255.3914
        51.0004         43.7504
 -11070396.02347  -8611974.13745  23214369.1094   23214355.9574
        42.7504         30.0004
 -25629667.66348 -19952247.58847  20494879.6484   20494868.0234
        51.5004         45.5004
  -4527392.72646  -3401806.74743  24554796.3134   24554785.1564
        39.7504         23.5004
 -19075768.92848 -14741102.93446  21617826.0164   21617814.3914
        50.2504         39.7504
 -10004138.02446  -7734080.40344  23445944.7194   23445933.9734
        40.5004         26.0004
  -2303185.93446  -1786671.26443  24921755.5704   24921745.7624
        40.7504         21.5004
  -2590784.52446  -1975706.62643  24483852.9144   24483842.8714
        38.2504         21.5004
 07  3 30  0  1  8.0000000  0 11G 5G23G14G31G22G 1G19G11G20G30G25
  -1395741.32246  -1688294.46442  25240330.8054   25240318.1254
        38.2504         14.7504
    485915.373 6                  25383311.734
        36.000
 -19889984.07947 -15466128.91045  21772659.1644   21772646.3674
        45.7504         35.7504
 -22405742.49248 -17427359.64047  20998002.1414   20997989.9304
        51.0004         43.7504
 -11068049.99047  -8610146.06944  23214815.6804   23214802.5274
        42.5004         29.2504
 -25629687.78248 -19952263.26247  20494875.9064   20494864.2814
        51.5004         45.2504
  -4524588.50646  -3399621.64044  24555329.5314   24555318.7854
        39.5004         24.7504
 -19076588.89048 -14741741.86246  21617670.1024   21617657.9494
        50.0004         39.7504
 -10006970.29046  -7736287.35344  23445406.2274   23445395.0704
        40.0004         25.2504
  -2304534.25946  -1787721.92643  24921498.4224   24921488.9654
        40.5004         21.0004
  -2594507.00046  -1978607.25643  24483143.6024   24483134.3794
        37.5004         20.7504
 07  3 30  0  1  9.0000000  0 11G 5G23G14G31G22G 1G19G11G20G30G25
  -1395885.72446  -1688407.00642  25240303.1724   25240290.4924
        38.2504         14.7504
    482900.078 6                  25382738.945
        36.250
 -19887700.28647 -15464349.33345  21773093.5704   21773081.1844
        45.7504         35.7504
 -22407136.64348 -17428445.99047  20997737.0554   20997725.0204
        51.2504         43.5004
 -11065704.09947  -8608318.10944  23215262.0394   23215248.8874
        42.5004         29.0004
 -25629707.79348 -19952278.85647  20494871.9614   20494860.5124
        51.0004         45.5004
  -4521784.56546  -3397436.76644  24555862.8674   24555852.4734
        39.0004         25.0004
 -19077408.57248 -14742380.57646  21617514.3914   21617502.0634
        50.2504         39.7504
 -10009802.84246  -7738494.53544  23444867.0704   23444856.2664
        40.2504         25.2504
  -2305882.47346  -1788772.49143  24921242.1484   24921232.6334
        40.5004         21.0004
  -2598229.78346  -1981508.09843  24482435.0634   24482425.6644
        37.0004         20.2504
 07  3 30  0  1 10.0000000  0 11G 5G23G14G31G22G 1G19G11G20G30G25
  -1396029.31246  -1688518.89442  25240276.1724   25240263.7854
        38.2504         14.7504
    479885.062 6                  25382163.641
        37.250
 -19885416.07047 -15462569.43245  21773528.6644   21773515.5704
        46.0004         35.7504
 -22408529.96948 -17429531.69847  20997472.0634   20997459.4414
        51.7504         43.5004
 -11063357.76347  -8606489.80244  23215708.4224   23215695.3874
        42.5004         29.5004
 -25629727.17748 -19952293.95847  20494868.6334   20494856.7154
        51.0004         45.7504
  -4518980.36946  -3395251.67344  24556396.2814   24556386.0044
        40.0004         24.0004
 -19078227.42948 -14743018.64746  21617358.4614   21617346.2504
        50.2504         39.7504
 -10012635.09746  -7740701.48844  23444327.7894   23444316.9844
        39.7504         26.2504
  -2307230.03346  -1789822.53443  24920985.5234   24920976.0664
        40.7504         21.5004
  -2601952.22846  -1984408.71143  24481725.6174   24481717.2734
        36.0004         20.5004
 07  3 30  0  1 11.0000000  0 11G 5G23G14G31G22G 1G19G11G20G30G25
  -1396172.48646  -1688630.42742  25240248.5314   25240236.3204
        38.5004         15.5004
    476870.135 6                  25381590.063
        36.500
 -19883131.78847 -15460789.47046  21773963.1954   21773949.8094
        46.2504         36.0004
 -22409922.81448 -17430617.03547  20997207.0084   20997194.5044
        51.7504         43.7504
 -11061011.37147  -8604661.44544  23216154.1334   23216141.7464
        42.5004         29.2504
 -25629746.28548 -19952308.85147  20494864.8134   20494853.1884
        51.2504         45.5004
  -4516176.27146  -3393066.66943  24556930.1884   24556919.9104
        40.0004         23.5004
 -19079045.78348 -14743656.33246  21617202.9064   21617190.8714
        50.2504         39.7504
 -10015467.41046  -7742908.49344  23443789.3054   23443778.5594
        40.2504         25.7504
  -2308577.21046  -1790872.29443  24920729.5234   24920719.7154
        40.5004         22.0004
  -2605674.68646  -1987309.34043  24481018.4534   24481009.1134
        37.5004         20.2504
 07  3 30  0  1 12.0000000  0 11G 5G23G14G31G22G 1G19G11G20G30G25
  -1396315.01646  -1688741.52242  25240221.6804   25240208.8204
        38.5004         16.2504
    473855.310 6                  25381015.945
        36.500
 -19880847.24847 -15459009.29945  21774397.6334   21774385.0704
        46.5004         35.7504
 -22411314.95348 -17431701.81747  20996942.4614   20996929.3674
        52.0004         43.5004
 -11058664.68747  -8602832.85344  23216601.3524   23216588.3164
        42.5004         29.7504
 -25629764.92548 -19952323.37547  20494861.3674   20494849.9774
        50.7504         45.2504
  -4513372.11446  -3390881.62343  24557464.3204   24557453.1054
        41.0004         22.7504
 -19079863.49248 -14744293.50546  21617047.0864   21617034.8164
        50.0004         40.0004
 -10018299.59546  -7745115.39944  23443250.2274   23443239.3634
        40.0004         25.7504
  -2309923.92346  -1791921.69743  24920473.9384   24920463.5434
        41.0004         22.5004
  -2609397.05046  -1990209.87543  24480310.7894   24480300.6884
        37.2504         20.0004
 07  3 30  0  1 13.0000000  0 11G 5G23G14G31G22G 1G19G11G20G30G25
  -1396457.05346  -1688852.19142  25240193.5474   25240181.9224
        37.2504         16.2504
    470840.547 6                  25380442.461
        36.000
 -19878562.58447 -15457229.04746  21774832.6334   21774819.5394
        46.7504         36.2504
 -22412706.59948 -17432786.21247  20996677.0944   20996664.5314
        51.2504         43.5004
 -11056317.91347  -8601004.19544  23217047.6174   23217034.6414
        42.5004         29.0004
 -25629783.26348 -19952337.66547  20494857.7734   20494846.0904
        51.0004         45.2504
  -4510568.05146  -3388696.63343  24557997.7894   24557986.9264
        40.0004         22.2504
 -19080680.69448 -14744930.27946  21616891.6564   21616879.5044
        50.0004         40.0004
 -10021131.84246  -7747322.33744  23442711.4144   23442700.4344
        40.5004         25.5004
  -2311270.23846  -1792970.76843  24920217.6414   24920207.5984
        41.0004         22.5004
  -2613119.41846  -1993110.41843  24479601.9774   24479591.6414
        36.5004         20.0004
 07  3 30  0  1 14.0000000  0 11G 5G23G14G31G22G 1G19G11G20G30G25
  -1396599.07046  -1688962.87142  25240166.9534   25240155.2114
        37.5004         15.5004
    467825.379 6                  25379868.430
        37.250
 -19876278.27447 -15455449.06445  21775267.7274   21775254.3404
        47.0004         35.5004
 -22414098.15548 -17433870.54447  20996412.1804   20996399.9104
        51.2504         43.5004
 -11053971.47847  -8599175.80544  23217494.5704   23217481.4774
        43.0004         28.7504
 -25629801.72148 -19952352.04447  20494854.2114   20494842.9384
        51.0004         45.2504
  -4507764.46846  -3386512.02543  24558532.1254   24558520.3834
        40.5004         22.5004
 -19081497.80448 -14745566.99046  21616736.4844   21616724.2154
        50.2504         39.7504
 -10023964.54546  -7749529.64144  23442173.0634   23442161.0864
        41.2504         26.7504
  -2312616.66046  -1794019.92043  24919961.3984   24919951.4734
        41.2504         22.2504
  -2616842.28146  -1996011.35443  24478893.6804   24478883.6954
        37.7504         19.7504
 07  3 30  0  1 15.0000000  0 11G 5G23G14G31G22G 1G19G11G20G30G25
  -1396740.19446  -1689072.83242  25240139.8364   25240128.3284
        37.0004         15.5004
    464810.679 6                  25379294.875
        37.250
 -19873993.38347 -15453668.63146  21775702.1954   21775689.1604
        47.2504         36.0004
 -22415488.74048 -17434954.11147  20996147.5314   20996135.3204
        51.0004         43.5004
 -11051624.44747  -8597346.95544  23217940.7734   23217927.7384
        42.5004         29.0004
 -25629819.43548 -19952365.84947  20494850.8674   20494839.1254
        51.0004         45.2504
  -4504960.50746  -3384327.11643  24559065.5554   24559053.9884
        40.7504         22.7504
 -19082313.94448 -14746202.93946  21616580.9924   21616568.6054
        50.0004         40.0004
 -10026796.81646  -7751736.59744  23441633.7344   23441622.4614
        41.5004         26.2504
  -2313962.24946  -1795068.42443  24919705.6334   24919695.0634
        40.7504         22.5004
  -2620564.68046  -1998911.93143  24478185.6094   24478175.0984
        37.5004         19.5004
 07  3 30  0  1 16.0000000  0 11G 5G23G14G31G22G 1G19G11G20G30G25
  -1396880.53946  -1689182.21242  25240112.8674   25240101.2424
        36.7504         15.5004
    461796.30846    458846.29453  25378720.7814   25378709.9774
        37.2504         19.7504
 -19871708.15447 -15451887.93446  21776137.5314   21776123.8524
        46.7504         36.0004
 -22416878.54448 -17436037.07647  20995882.8364   20995870.6254
        51.0004         43.5004
 -11049277.08247  -8595517.84344  23218387.4384   23218374.8164
        42.7504         29.5004
 -25629836.57348 -19952379.19847  20494847.5944   20494836.1454
        51.0004         45.2504
  -4502156.36046  -3382142.07943  24559599.8364   24559587.5084
        41.0004         22.7504
 -19083129.33148 -14746838.31146  21616425.8364   21616413.4494
        50.2504         40.5004
 -10029628.87446  -7753943.39044  23441094.9304   23441083.3634
        41.0004         26.2504
  -2315307.24146  -1796116.45543  24919449.5704   24919439.1174
        41.0004         22.7504
  -2624286.82446  -2001812.30943  24477477.4694   24477466.8984
        37.7504         19.2504
 07  3 30  0  1 17.0000000  0 11G 5G23G14G31G22G 1G19G11G20G30G25
  -1397020.38746  -1689291.18242  25240086.1024   25240074.8874
        36.5004         15.5004
    458781.98546    456497.45743  25378148.0314   25378135.6454
        36.5004         19.7504
 -19869422.75047 -15450107.09645  21776572.4534   21776559.0084
        47.0004         35.7504
 -22418267.77948 -17437119.60047  20995618.5394   20995606.6804
        51.5004         43.5004
 -11046929.54047  -8593688.59544  23218834.4614   23218822.0164
        43.0004         29.0004
 -25629853.34348 -19952392.26647  20494844.6414   20494833.0744
        51.0004         45.2504
  -4499352.21846  -3379957.03843  24560133.2114   24560121.3524
        40.7504         22.7504
 -19083944.14448 -14747473.23146  21616270.8914   21616258.4454
        50.0004         40.5004
 -10032460.92446  -7756150.18744  23440555.9454   23440544.4384
        40.5004         25.5004
  -2316651.79646  -1797164.15643  24919193.7194   24919183.2664
        40.7504         22.5004
  -2628008.98346  -2004712.70443  24476768.8914   24476758.3204
        37.0004         19.0004
 07  3 30  0  1 18.0000000  0 11G 5G23G14G31G22G 1G19G11G20G30G25
  -1397159.73546  -1689399.72742  25240059.8444   25240048.4534
        36.0004         15.5004
    455767.72846    454148.66843  25377574.4694   25377562.1994
        36.2504         19.5004
 -19867137.26747 -15448326.20045  21777006.8674   21776994.1294
        47.0004         35.5004
 -22419656.50948 -17438201.72747  20995354.3444   20995341.6644
        51.5004         43.5004
 -11044581.90947  -8591859.27344  23219281.3444   23219268.1334
        43.5004         28.7504
 -25629869.82048 -19952405.11147  20494841.1334   20494829.1564
        51.5004         45.2504
  -4496548.20346  -3377772.08443  24560666.3594   24560654.5004
        41.0004         22.7504
 -19084758.44948 -14748107.75546  21616115.7424   21616103.2384
        50.0004         40.5004
 -10035293.01746  -7758357.01644  23440017.0004   23440005.4924
        40.7504         25.7504
  -2317995.99946  -1798211.57943  24918937.8914   24918927.4384
        41.0004         22.0004
  -2631731.06746  -2007613.04043  24476061.2974   24476050.1994
        37.5004         19.5004
 07  3 30  0  1 19.0000000  0 11G 5G23G14G31G22G 1G19G11G20G30G25
  -1397298.45646  -1689507.78742  25240033.8754   25240022.1334
        36.5004         15.5004
    452753.68146    451800.07843  25377001.2194   25376988.3014
        36.7504         19.2504
 -19864851.48447 -15446545.06946  21777442.0944   21777429.0004
        47.0004         36.0004
 -22421044.55048 -17439283.31347  20995090.1724   20995077.6684
        51.0004         43.5004
 -11042233.99447  -8590029.72844  23219728.4614   23219715.4844
        44.0004         29.2504
 -25629885.81048 -19952417.56647  20494838.2114   20494826.5864
        50.7504         45.5004
  -4493744.08946  -3375587.05843  24561201.0164   24561187.9804
        41.2504         22.7504
 -19085572.09148 -14748741.75646  21615961.0394   21615948.5354
        50.2504         40.5004
 -10038124.98246  -7760563.75044  23439477.8284   23439466.3794
        41.5004         25.5004
  -2319339.68846  -1799258.61543  24918682.1334   24918671.5044
        41.5004         21.5004
  -2635453.06446  -2010513.29043  24475352.7734   24475342.1454
        37.2504         19.0004
 07  3 30  0  1 20.0000000  0 11G 5G23G14G31G22G 1G19G11G20G30G25
  -1397436.73846  -1689615.54442  25240008.1174   25239995.6134
        36.2504         16.2504
    449739.58746    449451.44343  25376428.2114   25376414.7664
        36.0004         19.2504
 -19862565.63147 -15444763.88645  21777876.6484   21777864.2034
        47.0004         35.7504
 -22422432.07848 -17440364.50447  20994826.2424   20994813.8554
        51.2504         43.5004
 -11039885.99247  -8588200.11944  23220174.8444   23220162.1054
        43.7504         29.0004
 -25629901.51048 -19952429.80347  20494835.1174   20494823.9024
        50.7504         45.2504
  -4490940.07946  -3373402.11344  24561734.3984   24561721.6604
        41.5004         24.0004
 -19086385.20948 -14749375.35746  21615806.1484   21615793.5864
        50.2504         40.2504
 -10040956.97447  -7762770.49844  23438939.1254   23438927.7934
        42.0004         26.0004
  -2320683.03646  -1800305.37143  24918426.2194   24918416.3524
        41.5004         21.5004
  -2639175.07946  -2013413.54643  24474643.9614   24474633.5084
        36.2504         19.0004
 07  3 30  0  1 21.0000000  0 11G 5G23G14G31G22G 1G19G11G20G30G25
  -1397574.39146  -1689722.83942  25239981.9304   25239969.7194
        36.7504         16.2504
    446725.73345    447102.98843  25375853.9844   25375841.0664
        35.2504         19.0004
 -19860279.51947 -15442982.49445  21778311.9534   21778298.4494
        47.5004         35.7504
 -22423818.92148 -17441445.16247  20994562.0634   20994550.0274
        51.5004         43.7504
 -11037537.70847  -8586370.28744  23220621.4694   23220608.6094
        43.5004         29.0004
 -25629916.74148 -19952441.67347  20494832.3134   20494820.4534
        51.0004         45.2504
  -4488135.91746  -3371217.05043  24562268.1024   24562255.4224
        41.0004         23.0004
 -19087197.65448 -14750008.43846  21615652.2734   21615639.2974
        50.5004         40.0004
 -10043788.87246  -7764977.16044  23438400.4454   23438388.8794
        41.5004         26.7504
  -2322025.83646  -1801351.72143  24918171.1484   24918160.6954
        41.5004         22.0004
  -2642896.95246  -2016313.69243  24473936.1884   24473925.3244
        36.7504         18.5004
 07  3 30  0  1 22.0000000  0 11G 5G23G14G31G22G 1G19G11G20G30G25
  -1397711.56846  -1689829.73142  25239955.3444   25239943.6604
        36.2504         16.2504
    443711.85545    444754.51643  25375279.7974   25375267.7034
        35.7504         18.5004
 -19857993.30547 -15441201.03146  21778746.8674   21778734.3634
        47.2504         36.0004
 -22425205.26548 -17442525.42547  20994298.3204   20994285.8754
        51.2504         43.7504
 -11035189.32747  -8584540.38244  23221068.3134   23221055.7504
        44.2504         29.0004
 -25629931.67648 -19952453.30747  20494829.4774   20494817.7934
        51.0004         45.2504
  -4485331.90746  -3369032.10343  24562801.6174   24562789.2304
        40.7504         22.7504
 -19088009.60048 -14750641.12246  21615497.0784   21615484.6334
        50.5004         40.0004
 -10046620.79346  -7767183.85544  23437861.0084   23437849.7344
        41.7504         26.0004
  -2323368.27846  -1802397.78443  24917915.9384   24917905.4844
        41.7504         21.7504
  -2646618.87746  -2019213.89843  24473227.1174   24473217.4844
        36.5004         18.5004
 07  3 30  0  1 23.0000000  0 11G 5G23G14G31G22G 1G19G11G20G30G25
  -1397848.16546  -1689936.17142  25239930.0784   25239917.3984
        36.0004         16.2504
    440698.21245    442406.22143  25374706.9844   25374693.5984
        35.5004         18.5004
 -19855706.87647 -15439419.39846  21779181.9454   21779169.4414
        47.5004         36.2504
 -22426590.96048 -17443605.18947  20994034.7274   20994022.4574
        51.7504         43.7504
 -11032840.74547  -8582710.31544  23221515.1804   23221502.5594
        43.7504         28.2504
 -25629946.18748 -19952464.61447  20494826.6254   20494814.8244
        51.2504         45.2504
  -4482527.82546  -3366847.08743  24563334.3444   24563322.4844
        41.0004         23.0004
 -19088820.91648 -14751273.30846  21615342.8284   21615330.4414
        50.5004         39.7504
 -10049452.61547  -7769390.46644  23437322.3914   23437310.8834
        42.0004         26.2504
  -2324710.28146  -1803443.50543  24917660.3204   24917649.8094
        41.7504         21.5004
  -2650340.69546  -2022114.00543  24472519.0394   24472509.1134
        36.7504         18.5004
 07  3 30  0  1 24.0000000  0 11G 5G23G14G31G22G 1G19G11G20G30G25
  -1397984.26545  -1690042.22342  25239902.8834   25239891.4924
        35.7504         16.2504
    437684.54345    440057.90943  25374133.0394   25374119.4774
        35.5004         19.0004
 -19853420.31747 -15437637.66546  21779617.0084   21779604.4454
        47.5004         36.0004
 -22427976.12248 -17444684.52947  20993771.2814   20993758.8364
        52.0004         43.7504
 -11030492.02647  -8580880.14944  23221963.2584   23221949.5784
        44.0004         28.0004
 -25629960.37348 -19952475.66647  20494824.1644   20494812.3054
        50.7504         45.5004
  -4479723.80246  -3364662.14743  24563868.1954   24563856.1604
        40.7504         22.7504
 -19089631.69948 -14751905.09446  21615188.6954   21615175.8984
        50.5004         39.7504
 -10052284.49546  -7771597.13444  23436783.2974   23436771.8484
        41.5004         26.2504
  -2326051.88846  -1804488.91243  24917404.6644   24917394.1524
        41.7504         21.5004
  -2654062.51646  -2025014.11843  24471809.9844   24471800.8794
        37.0004         19.0004
 07  3 30  0  1 25.0000000  0 11G 5G23G14G31G22G 1G19G11G20G30G25
  -1398119.63045  -1690147.68942  25239876.7504   25239865.3594
        35.7504         16.2504
    434671.17246    437709.82343  25373560.2194   25373546.1294
        36.0004         19.2504
 -19851133.39047 -15435855.64345  21780051.7194   21780039.5084
        47.0004         35.7504
 -22429360.49448 -17445763.26447  20993507.8754   20993495.5474
        51.7504         44.0004
 -11028142.90747  -8579049.67044  23222409.5084   23222396.4734
        43.7504         29.7504
 -25629973.98048 -19952486.26847  20494821.7034   20494809.8444
        51.0004         45.5004
  -4476919.60946  -3362477.05943  24564401.6724   24564389.8134
        39.5004         22.7504
 -19090441.71648 -14752536.27046  21615034.6414   21615021.9614
        49.7504         40.0004
 -10055116.11646  -7773803.58344  23436244.4224   23436233.1484
        41.2504         25.5004
  -2327392.83847  -1805533.79943  24917150.5474   24917139.2734
        42.0004         22.0004
  -2657784.02446  -2027913.99243  24471101.6024   24471092.9654
        36.0004         19.0004
 07  3 30  0  1 26.0000000  0 11G 5G23G14G31G22G 1G19G11G20G30G25
  -1398254.61545  -1690252.91442  25239850.1724   25239840.1294
        35.5004         16.2504
    431657.82145    435361.77143  25372986.7114   25372973.2074
        35.5004         19.2504
 -19848846.43147 -15434073.60445  21780487.2504   21780474.6884
        47.0004         35.7504
 -22430744.40448 -17446841.64147  20993244.3674   20993232.1564
        51.7504         43.7504
 -11025793.77247  -8577219.18144  23222856.3524   23222843.7304
        43.7504         29.0004
 -25629987.35248 -19952496.69347  20494819.1024   20494807.1844
        51.0004         45.5004
  -4474115.53646  -3360292.06643  24564934.4924   24564923.4534
        39.7504         23.5004
 -19091251.29148 -14753167.10946  21614880.4384   21614867.9344
        49.7504         40.0004
 -10057947.86246  -7776010.13544  23435705.5784   23435694.3634
        40.2504         25.7504
  -2328733.54247  -1806578.49343  24916894.4844   24916884.0314
        42.0004         22.0004
  -2661505.67945  -2030813.98643  24470394.0164   24470384.6174
        35.5004         18.5004
 07  3 30  0  1 27.0000000  0 11G 5G23G14G31G22G 1G19G11G20G30G25
  -1398388.85845  -1690357.51442  25239824.6024   25239814.2074
        35.5004         16.2504
    428644.72046    433013.89843  25372412.8834   25372399.3204
        36.2504         19.2504
 -19846559.14747 -15432291.29845  21780922.3914   21780909.9454
        47.2504         35.7504
 -22432127.58848 -17447919.44447  20992980.9924   20992968.8404
        52.0004         43.7504
 -11023444.30147  -8575388.42344  23223303.4774   23223290.9144
        44.2504         29.5004
 -25630000.19248 -19952506.69547  20494816.5234   20494804.7234
        51.0004         45.5004
  -4471311.31546  -3358106.96443  24565468.7274   24565456.8674
        40.2504         22.7504
 -19092060.12748 -14753797.36946  21614726.6804   21614713.8204
        50.0004         39.7504
 -10060779.41546  -7778216.55144  23435166.4144   23435155.4344
        39.7504         24.7504
  -2330073.62447  -1807622.72243  24916639.7974   24916628.8164
        42.2504         22.2504
  -2665227.12746  -2033713.79243  24469685.9924   24469676.4184
        37.0004         19.0004
 07  3 30  0  1 28.0000000  0 11G 5G23G14G31G22G 1G19G11G20G30G25
  -1398522.73545  -1690461.83242  25239800.2114   25239788.5864
        35.7504         16.2504
    425631.49846    430665.95343  25371838.8054   25371826.3014
        36.2504         18.5004
 -19844271.85747 -15430508.99945  21781357.5864   21781344.9064
        47.5004         35.5004
 -22433510.33548 -17448996.90247  20992718.0164   20992705.6294
        52.0004         43.7504
 -11021094.83147  -8573557.67144  23223750.6884   23223737.8914
        44.5004         29.0004
 -25630012.81948 -19952516.54047  20494814.2034   20494802.6374
        51.0004         45.5004
  -4468507.26746  -3355922.00143  24566001.7664   24565990.3164
        40.2504         22.7504
 -19092868.54648 -14754427.30746  21614573.0164   21614560.3954
        50.2504         40.0004
 -10063611.08046  -7780423.03944  23434627.3984   23434616.4774
        39.5004         24.5004
  -2331413.44146  -1808666.72243  24916384.6024   24916373.9734
        41.7504         22.5004
  -2668948.70146  -2036613.69043  24468978.2194   24468968.8204
        36.2504         19.0004
 07  3 30  0  1 29.0000000  0 11G 5G23G14G31G22G 1G19G11G20G30G25
  -1398655.96045  -1690565.60642  25239775.1484   25239763.5234
        35.5004         15.5004
    422618.52445    428318.17643  25371264.9844   25371253.1844
        35.7504         18.2504
 -19841984.23947 -15428726.43945  21781793.0004   21781780.4964
        47.7504         35.5004
 -22434892.36448 -17450073.81647  20992455.2584   20992442.8134
        52.0004         43.5004
 -11018745.01447  -8571726.64544  23224198.1484   23224184.9964
        44.5004         28.2504
 -25630024.93448 -19952525.97547  20494812.2344   20494799.9064
        51.0004         45.5004
  -4465703.09546  -3353736.92943  24566536.0474   24566524.0704
        40.5004         23.0004
 -19093676.25548 -14755056.69146  21614418.6174   21614406.3484
        50.2504         40.0004
 -10066442.59246  -7782629.40644  23434088.5164   23434078.0634
        40.2504         26.0004
  -2332752.72446  -1809710.32043  24916129.3674   24916119.0904
        41.7504         22.0004
  -2672670.10446  -2039513.50243  24468270.0314   24468260.8674
        37.5004         19.2504
 07  3 30  0  1 30.0000000  0 11G 5G23G14G31G22G 1G19G11G20G30G25
  -1398788.63946  -1690668.98242  25239750.0784   25239738.1024
        36.0004         15.5004
    419605.66345    425970.49343  25370691.1334   25370679.5664
        35.0004         18.2504
 -19839696.43847 -15426943.73745  21782228.2034   21782215.9344
        47.2504         35.5004
 -22436273.77348 -17451150.23447  20992192.6414   20992179.9614
        52.2504         43.5004
 -11016395.01147  -8569895.47444  23224645.0634   23224631.9694
        45.0004         29.2504
 -25630036.64948 -19952535.10847  20494809.4844   20494797.9774
        51.0004         45.2504
  -4462898.93146  -3351551.86443  24567069.4144   24567057.6134
        40.0004         23.2504
 -19094483.36848 -14755685.61746  21614265.1954   21614253.1024
        50.5004         40.0004
 -10069274.08346  -7784835.72244  23433549.7734   23433539.1454
        39.7504         26.0004
  -2334091.55946  -1810753.57443  24915874.9384   24915864.5434
        41.2504         22.2504
  -2676391.41046  -2042413.21243  24467561.9304   24467552.2384
        37.2504         19.2504
 07  3 30  0  1 31.0000000  0 11G 5G23G14G31G22G 1G19G11G20G30G25
  -1398920.78346  -1690771.94842  25239724.8204   25239713.0204
        36.0004         16.2504
    416592.88745    423622.86443  25370118.0004   25370105.5554
        35.5004         18.5004
 -19837408.53747 -15425160.95445  21782663.9454   21782651.2664
        47.5004         35.7504
 -22437654.68348 -17452226.26747  20991929.4384   20991917.1094
        51.7504         43.2504
 -11014044.94147  -8568064.25844  23225092.8284   23225079.3244
        45.5004         29.5004
 -25630048.05948 -19952543.99247  20494807.3674   20494795.5084
        51.0004         45.5004
  -4460094.81546  -3349366.83543  24567602.4924   24567590.6914
        39.5004         22.5004
 -19095289.96548 -14756314.13046  21614111.3204   21614099.3444
        50.2504         40.0004
 -10072105.58546  -7787042.11344  23433010.2424   23433000.3754
        40.0004         25.5004
  -2335430.03146  -1811796.55243  24915619.9614   24915609.3324
        41.5004         22.0004
  -2680112.71746  -2045312.91943  24466855.5634   24466844.2894
        38.0004         19.2504
 07  3 30  0  1 32.0000000  0 11G 5G23G14G31G22G 1G19G11G20G30G25
  -1399052.38646  -1690874.49742  25239700.0864   25239688.1684
        36.2504         15.5004
    413580.27445    421275.35143  25369545.9924   25369533.0744
        35.5004         18.2504
 -19835120.39547 -15423377.99245  21783098.8284   21783087.0274
        47.2504         35.7504
 -22439034.90748 -17453301.76547  20991666.9454   20991654.5004
        51.5004         43.2504
 -11011694.55747  -8566232.78444  23225540.0234   23225526.8714
        45.0004         29.5004
 -25630058.99848 -19952552.51447  20494805.2424   20494793.9104
        51.0004         45.5004
  -4457290.62246  -3347181.75543  24568136.4924   24568124.3404
        39.7504         22.5004
 -19096095.90448 -14756942.13646  21613958.2664   21613946.0554
        50.0004         40.0004
 -10074936.92946  -7789248.34444  23432471.8594   23432461.2894
        40.2504         25.0004
  -2336767.96246  -1812839.08543  24915365.6414   24915354.6604
        41.5004         22.2504
  -2683833.91546  -2048212.57243  24466146.2664   24466136.2234
        37.7504         19.0004
 07  3 30  0  1 33.0000000  0 11G 5G23G14G31G22G 1G19G11G20G30G25
  -1399183.40146  -1690976.61742  25239675.0164   25239663.2734
        36.5004         15.5004
    410567.75645    418927.95943  25368972.5084   25368959.5904
        34.7504         18.5004
 -19832832.05547 -15421594.87846  21783534.4224   21783521.9184
        47.5004         36.0004
 -22440414.51548 -17454376.79147  20991404.1724   20991391.9614
        51.2504         43.2504
 -11009344.02247  -8564401.19844  23225987.3834   23225973.9964
        45.5004         29.2504
 -25630069.56848 -19952560.75547  20494803.3054   20494791.9144
        50.7504         45.5004
  -4454486.39346  -3344996.65043  24568670.5864   24568658.2584
        40.0004         22.5004
 -19096901.23648 -14757569.66246  21613805.0394   21613792.7114
        50.2504         40.0004
 -10077768.28746  -7791454.59644  23431933.4064   23431922.5434
        40.2504         25.5004
  -2338105.46546  -1813881.29543  24915111.1484   24915100.1094
        41.7504         22.0004
  -2687555.03846  -2051112.16443  24465437.9694   24465428.1024
        37.5004         19.0004
 07  3 30  0  1 34.0000000  0 11G 5G23G14G31G22G 1G19G11G20G30G25
  -1399313.88146  -1691078.25742  25239650.5084   25239638.1804
        36.2504         15.5004
    407555.34145    416580.60543  25368398.7814   25368385.9844
        35.0004         19.0004
 -19830543.59447 -15419811.65645  21783970.2194   21783957.8324
        47.2504         35.5004
 -22441793.59948 -17455451.39547  20991141.7584   20991129.5474
        51.2504         43.2504
 -11006993.34247  -8562569.50744  23226434.1954   23226420.9264
        45.5004         28.2504
 -25630079.77748 -19952568.71647  20494801.5314   20494789.8484
        51.0004         45.5004
  -4451682.26446  -3342811.62343  24569203.2114   24569191.8204
        39.2504         23.5004
 -19097706.03148 -14758196.77146  21613651.8444   21613639.6914
        50.0004         40.0004
 -10080599.63646  -7793660.82944  23431394.5314   23431383.4344
        40.0004         26.2504
  -2339442.55746  -1814923.17643  24914857.1094   24914845.6024
        41.5004         22.0004
  -2691276.13746  -2054011.71643  24464729.1174   24464720.0704
        36.7504         19.2504
 07  3 30  0  1 35.0000000  0 11G 5G23G14G31G22G 1G19G11G20G30G25
  -1399443.81645  -1691179.51142  25239624.8524   25239614.1054
        35.7504         15.5004
    404542.94645    414233.28643  25367826.3674   25367813.9224
        35.5004         18.5004
 -19828254.92947 -15418028.28145  21784406.2344   21784393.4964
        47.2504         35.5004
 -22443172.06948 -17456525.53147  20990879.5944   20990867.0904
        51.5004         43.2504
 -11004642.45147  -8560737.64044  23226881.7194   23226868.8014
        45.5004         29.0004
 -25630089.62348 -19952576.38347  20494799.5704   20494787.8874
        50.7504         45.2504
  -4448878.11846  -3340626.58443  24569737.4064   24569725.0204
        40.0004         23.5004
 -19098510.24348 -14758823.43046  21613498.7734   21613486.6214
        50.0004         39.7504
 -10083430.93746  -7795867.07844  23430855.9844   23430844.5944
        40.0004         25.5004
  -2340779.23847  -1815964.75043  24914602.7584   24914591.5434
        42.0004         21.7504
  -2694997.20346  -2056911.23843  24464021.1884   24464011.9064
        37.2504         19.2504
 07  3 30  0  1 36.0000000  0 11G 5G23G14G31G22G 1G19G11G20G30G25
  -1399573.24746  -1691280.35442  25239599.7894   25239589.3364
        36.5004         16.2504
    401530.72045    411886.11243  25367252.5164   25367240.4224
        35.5004         18.5004
 -19825966.09147 -15416244.77446  21784840.9924   21784828.8404
        47.0004         36.0004
 -22444549.95348 -17457599.20247  20990617.4304   20990605.0434
        51.5004         43.2504
 -11002291.39447  -8558905.64844  23227329.0704   23227315.9774
        45.5004         29.2504
 -25630099.07348 -19952583.74647  20494797.6644   20494785.7464
        51.0004         45.2504
  -4446073.97546  -3338441.53443  24570271.8524   24570259.1134
        39.7504         22.7504
 -19099313.86148 -14759449.62946  21613345.8594   21613333.5314
        50.0004         39.7504
 -10086262.17946  -7798073.20144  23430317.3284   23430306.3484
        41.0004         26.0004
  -2342115.46147  -1817005.96443  24914348.7974   24914337.2894
        42.5004         21.7504
  -2698718.16746  -2059810.69743  24463312.2974   24463303.6024
        37.0004         19.0004
 07  3 30  0  1 37.0000000  0 11G 5G23G14G31G22G 1G19G11G20G30G25
  -1399702.06046  -1691380.77142  25239574.1484   25239564.3984
        37.0004         15.5004
    398518.68545    409539.07943  25366678.4064   25366667.1334
        35.7504         18.2504
 -19823677.03847 -15414461.09345  21785276.2504   21785264.5664
        47.0004         35.7504
 -22445927.17648 -17458672.36447  20990355.1954   20990343.1024
        51.5004         43.7504
 -10999940.09547  -8557073.46844  23227776.5164   23227763.1294
        45.7504         28.5004
 -25630108.07848 -19952590.76447  20494796.2194   20494784.1844
        51.0004         45.5004
  -4443269.77446  -3336256.43643  24570804.9224   24570792.5354
        39.5004         22.7504
 -19100116.83848 -14760075.33046  21613193.1564   21613181.0044
        50.0004         39.7504
 -10089093.35446  -7800279.31644  23429779.0164   23429767.7424
        41.5004         26.2504
  -2343451.22647  -1818046.81743  24914095.2194   24914083.1254
        42.0004         21.7504
  -2702439.06146  -2062710.10843  24462604.8834   24462595.8364
        36.7504         18.5004
 07  3 30  0  1 38.0000000  0 11G 5G23G14G31G22G 1G19G11G20G30G25
  -1399830.34746  -1691480.71842  25239550.1884   25239539.7344
        36.5004         16.2504
    395506.63845    407192.00043  25366105.6804   25366093.9384
        34.7504         18.2504
 -19821387.86947 -15412677.33045  21785712.0944   21785700.2344
        47.0004         35.2504
 -22447303.89248 -17459745.13247  20990093.1644   20990080.7774
        51.5004         43.5004
 -10997588.69547  -8555241.20944  23228223.8914   23228210.7974
        45.7504         28.7504
 -25630116.77548 -19952597.54347  20494794.5004   20494782.8164
        51.0004         45.2504
  -4440465.65646  -3334071.41143  24571338.6884   24571326.4774
        39.7504         22.7504
 -19100919.31648 -14760700.63746  21613040.2034   21613027.9924
        50.5004         39.7504
 -10091924.54546  -7802485.43844  23429240.3674   23429228.9774
        41.2504         26.2504
  -2344786.59946  -1819087.36943  24913840.4534   24913829.1214
        41.5004         22.0004
  -2706159.97145  -2065609.49543  24461896.2894   24461887.4184
        35.5004         18.2504
 07  3 30  0  1 39.0000000  0 11G 5G23G14G31G22G 1G19G11G20G30G25
  -1399958.03146  -1691580.23142  25239526.3284   25239515.5824
        37.2504         15.5004
    392494.81145    404845.10642  25365532.2114   25365520.6454
        34.0004         17.7504
 -19819098.39747 -15410893.32845  21786147.4844   21786135.7424
        47.0004         35.2504
 -22448679.89948 -17460817.34447  20989831.4924   20989819.2234
        51.2504         43.5004
 -10995236.99347  -8553408.71944  23228671.5314   23228658.4964
        45.7504         28.7504
 -25630124.99048 -19952603.94347  20494792.8134   20494781.0704
        51.0004         45.5004
  -4437661.40346  -3331886.27743  24571872.5704   24571860.3594
        40.5004         22.7504
 -19101721.07048 -14761325.37646  21612887.6484   21612875.8484
        50.0004         40.0004
 -10094755.58747  -7804691.45444  23428701.7274   23428689.9264
        42.0004         25.7504
  -2346121.41946  -1820127.48443  24913586.2344   24913574.9614
        41.0004         21.7504
  -2709880.70846  -2068508.77343  24461187.9224   24461179.1094
        36.0004         18.5004
 07  3 30  0  1 40.0000000  0 11G 5G23G14G31G22G 1G19G11G20G30G25
  -1400085.23746  -1691679.36242  25239501.7974   25239491.1094
        37.2504         16.2504
    389483.02445    402498.29242  25364959.3834   25364947.5234
        32.5004         17.7504
 -19816808.87347 -15409109.28145  21786583.0704   21786570.9774
        47.2504         35.2504
 -22450055.41348 -17461889.17047  20989569.8444   20989557.7504
        51.2504         43.7504
 -10992885.22047  -8551576.16744  23229118.9064   23229105.9884
        46.0004         28.5004
 -25630132.94248 -19952610.13347  20494791.2194   20494779.5354
        50.7504         45.5004
  -4434857.30946  -3329701.27243  24572406.0704   24572393.9774
        40.2504         23.7504
 -19102522.36248 -14761949.75746  21612735.1644   21612723.5984
        50.2504         40.0004
 -10097586.71746  -7806897.52544  23428163.1804   23428151.4384
        41.7504         25.7504
  -2347455.92146  -1821167.34943  24913331.1884   24913320.5594
        40.5004         21.7504
  -2713601.50946  -2071408.12943  24460480.5864   24460471.2464
        36.2504         18.5004
 07  3 30  0  1 41.0000000  0 11G 5G23G14G31G22G 1G19G11G20G30G25
  -1400211.25746  -1691777.54942  25239479.2194   25239467.3014
        37.0004         16.7504
                                  25364387.1254   25364374.6214
        33.0004         17.7504
 -19814518.47747 -15407324.56145  21787019.0784   21787006.9844
        47.0004         35.5004
 -22451429.64848 -17462960.00047  20989307.9694   20989296.0514
        51.7504         43.7504
 -10990532.57747  -8549742.93244  23229566.8134   23229553.8954
        46.2504         28.7504
 -25630139.80248 -19952615.48047  20494789.8834   20494777.9654
        51.0004         45.2504
  -4432052.51046  -3327515.71743  24572939.5704   24572927.7114
        40.5004         23.7504
 -19103322.37848 -14762573.14746  21612583.4224   21612570.9184
        50.2504         39.7504
 -10100417.10047  -7809103.01944  23427624.7114   23427612.6764
        42.0004         26.2504
  -2348789.27346  -1822206.31643  24913078.1484   24913066.9924
        40.5004         21.5004
  -2717321.59046  -2074306.89643  24459773.1804   24459762.9024
        37.5004         18.5004
 07  3 30  0  1 42.0000000  0 11G 5G23G14G31G22G 1G19G11G20G30G25
  -1400337.40446  -1691875.82642  25239455.2734   25239443.3554
        37.2504         16.2504
                                  25363813.4224   25363802.0314
        33.5004         17.2504
 -19812228.57447 -15405540.21445  21787454.9454   21787443.1454
        47.2504         35.7504
 -22452803.97048 -17464030.89447  20989046.6484   20989034.3204
        51.7504         43.7504
 -10988180.45147  -8547910.10544  23230013.9304   23230001.1334
        45.7504         29.2504
 -25630146.96448 -19952621.06147  20494788.5634   20494776.7034
        51.0004         45.2504
  -4429248.38146  -3325330.67843  24573473.6414   24573461.0784
        41.0004         22.7504
 -19104122.48948 -14763196.61146  21612430.5864   21612418.3164
        49.7504         39.7504
 -10103248.12847  -7811309.02144  23427085.5314   23427073.7894
        42.2504         26.0004
  -2350122.91946  -1823245.51543  24912824.7584   24912813.1334
        40.2504         21.5004
  -2721042.19346  -2077206.04743  24459065.0084   24459055.1414
        37.0004         19.0004
 07  3 30  0  1 43.0000000  0 11G 5G23G14G31G22G 1G19G11G20G30G25
  -1400463.02146  -1691973.70542  25239432.2504   25239419.5124
        37.7504         16.7504
    380448.80445    395458.65242  25363240.4384   25363228.9304
        33.0004         17.2504
 -19809938.53547 -15403755.77845  21787890.6094   21787878.7504
        47.5004         35.5004
 -22454177.71948 -17465101.34747  20988784.9534   20988772.9774
        51.5004         43.7504
 -10985828.17447  -8546077.16444  23230461.6094   23230448.6914
        45.7504         28.5004
 -25630153.79248 -19952626.37847  20494787.2424   20494775.2074
        51.0004         45.2504
  -4426444.30346  -3323145.69544  24574007.3134   24573995.1024
        40.7504         24.0004
 -19104922.07148 -14763819.65846  21612278.7274   21612266.2814
        50.2504         39.7504
 -10106079.16547  -7813515.01344  23426547.2274   23426534.9574
        42.2504         26.2504
  -2351456.12146  -1824284.37443  24912569.9614   24912559.2734
        39.7504         21.2504
  -2724762.80846  -2080105.21043  24458357.1564   24458347.1134
        36.7504         19.0004
 07  3 30  0  1 44.0000000  0 11G 5G23G14G31G22G 1G19G11G20G30G25
  -1400588.47946  -1692071.50242  25239408.2814   25239395.7774
        37.7504         16.7504
    377437.05045    393111.82542  25362666.6484   25362656.2544
        33.5004         16.7504
 -19807648.71047 -15401971.49345  21788326.4844   21788314.2734
        47.2504         35.5004
 -22455551.28348 -17466171.65947  20988523.6644   20988511.6884
        51.7504         43.7504
 -10983476.09147  -8544244.38044  23230908.9774   23230896.1804
        46.0004         29.2504
 -25630160.62648 -19952631.71047  20494786.0314   20494774.4064
        51.0004         45.2504
  -4423640.63446  -3320961.02844  24574539.8834   24574528.6684
        40.5004         24.0004
 -19105721.43948 -14764442.54946  21612126.9774   21612114.2384
        50.5004         39.5004
 -10108910.54447  -7815721.28544  23426008.8914   23425996.3874
        42.0004         27.5004
  -2352789.29446  -1825323.20943  24912317.1174   24912305.3754
        40.5004         21.2504
  -2728483.81546  -2083004.68143  24457649.7034   24457638.9574
        36.5004         19.0004
 07  3 30  0  1 45.0000000  0 11G 5G23G14G31G22G 1G19G11G20G30G25
  -1400712.90146  -1692168.42542  25239385.1884   25239372.2114
        37.7504         16.7504
    374425.84945    390765.44242  25362094.1254   25362082.9104
        33.7504         16.2504
 -19805358.20647 -15400186.68345  21788762.5864   21788750.2584
        47.2504         35.5004
 -22456923.73548 -17467241.10147  20988262.6804   20988250.4694
        51.7504         43.7504
 -10981123.31847  -8542411.04944  23231357.1174   23231343.9654
        45.5004         28.7504
 -25630166.57848 -19952636.34847  20494784.9454   20494773.2034
        51.0004         45.2504
  -4420836.47146  -3318775.96043  24575073.8674   24575062.3594
        40.2504         23.0004
 -19106519.72448 -14765064.58446  21611974.4534   21611962.5354
        50.5004         39.7504
 -10111741.39046  -7817927.13744  23425469.9144   23425457.5864
        41.0004         27.5004
  -2354121.51646  -1826361.30043  24912062.9304   24912052.0084
        40.0004         20.7504
  -2732204.18046  -2085903.65743  24456940.5634   24456931.0474
        37.0004         19.0004
 07  3 30  0  1 46.0000000  0 11G 5G23G14G31G22G 1G19G11G20G30G25
  -1400836.85646  -1692264.99742  25239361.8284   25239348.6764
        38.0004         16.7504
    371414.65745    388419.05042  25361521.6414   25361509.9574
        33.7504         16.2504
 -19803067.61947 -15398401.80745  21789198.4534   21789186.3594
        47.5004         35.5004
 -22458295.69348 -17468310.16247  20988001.4694   20987989.2584
        51.5004         43.7504
 -10978770.48447  -8540577.67044  23231804.8754   23231791.4304
        45.2504         29.2504
 -25630172.23248 -19952640.75647  20494783.9844   20494771.8914
        51.0004         45.2504
  -4418032.38846  -3316590.95143  24575607.1024   24575595.8874
        40.2504         23.2504
 -19107317.51848 -14765686.24746  21611822.7894   21611810.4024
        50.7504         39.5004
 -10114572.30446  -7820133.05244  23424931.4924   23424918.8714
        41.2504         25.5004
  -2355453.39646  -1827399.11443  24911808.8284   24911798.6684
        40.5004         20.2504
  -2735924.62546  -2088802.69343  24456232.6414   24456223.1254
        36.7504         19.2504
 07  3 30  0  1 47.0000000  0 11G 5G23G14G31G22G 1G19G11G20G30G25
  -1400960.20646  -1692361.09142  25239337.7664   25239325.4964
        38.0004         17.2504
    368403.67145    386072.81742  25360948.8364   25360937.1524
        33.5004         16.2504
 -19800776.77547 -15396616.73745  21789633.9844   21789621.7734
        47.5004         35.0004
 -22459666.94948 -17469378.66947  20987740.6724   20987728.7544
        51.7504         43.5004
 -10976417.35247  -8538744.06544  23232252.6254   23232239.7074
        45.2504         28.5004
 -25630177.43548 -19952644.80747  20494783.0314   20494770.9964
        50.7504         45.5004
  -4415228.22046  -3314405.87743  24576141.2114   24576129.2934
        39.5004         23.2504
 -19108114.63448 -14766307.37946  21611671.2424   21611659.0904
        51.0004         39.5004
 -10117403.05646  -7822338.83644  23424392.7734   23424380.6214
        41.5004         26.2504
  -2356784.73846  -1828436.53543  24911555.2814   24911545.0044
        40.0004         19.5004
  -2739644.95846  -2091701.64943  24455525.8524   24455515.3404
        37.5004         19.2504
 07  3 30  0  1 48.0000000  0 11G 5G23G14G31G22G 1G19G11G20G30G25
  -1401083.01746  -1692456.79742  25239313.5004   25239301.7584
        38.0004         17.2504
    365392.69745    383726.61642  25360375.0314   25360363.5234
        34.2504         16.2504
 -19798485.78248 -15394831.54945  21790070.5314   21790058.2624
        48.0004         35.5004
 -22461037.70148 -17470446.78547  20987479.7894   20987467.6374
        51.5004         43.5004
 -10974064.13347  -8536910.38944  23232700.4924   23232687.0474
        45.5004         28.7504
 -25630182.29348 -19952648.59147  20494781.9144   20494770.1134
        51.2504         45.2504
  -4412424.10646  -3312220.85443  24576674.7194   24576662.8594
        40.0004         22.7504
 -19108911.21548 -14766928.08946  21611519.6254   21611507.2384
        50.7504         39.7504
 -10120233.83847  -7824544.63444  23423852.9774   23423841.9384
        42.0004         24.7504
  -2358115.72046  -1829473.67843  24911301.3134   24911291.6214
        40.0004         19.2504
  -2743365.23746  -2094600.57243  24454817.9614   24454807.0394
        37.7504         19.5004
 07  3 30  0  1 49.0000000  0 11G 5G23G14G31G22G 1G19G11G20G30G25
  -1401205.18346  -1692551.97442  25239289.2814   25239278.7114
        37.2504         17.2504
    362382.01745    381380.62842  25359801.8364   25359791.2074
        33.7504         16.2504
 -19796194.48847 -15393046.12946  21790506.3444   21790494.0164
        47.7504         36.0004
 -22462407.66348 -17471514.29047  20987219.1954   20987207.0434
        51.5004         43.5004
 -10971710.54147  -8535076.41844  23233148.4454   23233134.9414
        46.0004         29.0004
 -25630186.60748 -19952651.95247  20494781.6024   20494769.3324
        51.5004         45.5004
  -4409619.82746  -3310035.71143  24577208.1024   24577196.3594
        40.0004         22.7504
 -19109707.04448 -14767548.21546  21611368.3284   21611356.2344
        51.0004         40.0004
 -10123064.39347  -7826750.27144  23423314.6174   23423303.1094
        42.0004         25.7504
  -2359446.04246  -1830510.30043  24911049.4924   24911038.9224
        40.5004         19.5004
  -2747085.25646  -2097499.30343  24454109.6804   24454098.9344
        36.5004         19.7504
 07  3 30  0  1 50.0000000  0 11G 5G23G14G31G22G 1G19G11G20G30G25
  -1401326.94646  -1692646.84742  25239265.9064   25239255.2194
        37.0004         17.2504
    359371.26045    379034.58942  25359229.8674   25359218.4774
        31.7504         16.2504
 -19793903.18647 -15391260.69845  21790942.4924   21790929.6954
        47.5004         35.7504
 -22463777.23848 -17472581.49047  20986958.6334   20986946.4224
        51.5004         43.5004
 -10969356.97747  -8533242.47544  23233596.3594   23233582.9144
        46.0004         29.0004
 -25630190.75348 -19952655.18747  20494780.8674   20494768.8324
        51.5004         45.5004
  -4406815.77946  -3307850.75243  24577742.0784   24577730.2774
        40.0004         22.7504
 -19110502.49048 -14768168.04046  21611217.2274   21611204.6054
        50.7504         40.0004
 -10125895.15946  -7828956.05744  23422775.9614   23422764.3364
        41.5004         26.7504
  -2360776.18746  -1831546.77043  24910795.4924   24910785.8014
        39.7504         20.5004
  -2750805.52946  -2100398.20543  24453401.4844   24453391.3244
        37.2504         19.7504
 07  3 30  0  1 51.0000000  0 11G 5G23G14G31G22G 1G19G11G20G30G25
  -1401447.94546  -1692741.12742  25239242.4614   25239232.3014
        36.7504         17.7504
    356360.87145    376688.83742  25358657.0554   25358645.1954
        33.5004         16.2504
 -19791611.52947 -15389474.99846  21791378.8204   21791366.1994
        47.2504         36.0004
 -22465146.00748 -17473648.06347  20986697.9534   20986685.9774
        51.2504         43.7504
 -10967003.02447  -8531408.22544  23234044.3054   23234030.8014
        45.7504         29.0004
 -25630194.29148 -19952657.94047  20494780.0394   20494767.7704
        51.0004         45.5004
  -4404011.51846  -3305665.60843  24578276.3674   24578263.8634
        40.0004         22.7504
 -19111297.13048 -14768787.24246  21611065.7504   21611053.1294
        50.2504         40.0004
 -10128725.65246  -7831161.64544  23422237.0634   23422226.0824
        40.2504         27.0004
  -2362105.70946  -1832582.75343  24910543.8054   24910532.9414
        40.0004         20.0004
  -2754525.45646  -2103296.84743  24452693.7814   24452683.0944
        37.0004         20.0004
 07  3 30  0  1 52.0000000  0 11G 5G23G14G31G22G 1G19G11G20G30G25
  -1401568.50646  -1692835.12542  25239219.7344   25239209.2234
        37.2504         17.2504
    353350.39045    374343.01642  25358082.3524   25358072.1334
        32.5004         15.5004
 -19789319.73247 -15387689.17345  21791814.9304   21791802.2504
        47.5004         35.7504
 -22466514.24748 -17474714.22447  20986437.5864   20986425.1414
        51.5004         43.5004
 -10964648.93847  -8529573.86844  23234491.9384   23234478.3754
        45.5004         28.2504
 -25630197.52048 -19952660.45847  20494779.1254   20494766.8554
        51.0004         45.5004
  -4401207.28346  -3303480.49343  24578809.3284   24578797.2934
        39.5004         22.5004
 -19112091.23748 -14769406.02146  21610914.7584   21610902.0204
        50.0004         40.0004
 -10131556.15346  -7833367.21644  23421697.8754   23421687.1294
        40.5004         27.2504
  -2363434.80546  -1833618.41143  24910290.4064   24910279.8954
        39.7504         20.0004
  -2758245.42946  -2106195.50443  24451985.6564   24451975.9064
        37.2504         20.2504
 07  3 30  0  1 53.0000000  0 11G 5G23G14G31G22G 1G19G11G20G30G25
  -1401688.55646  -1692928.70042  25239197.5004   25239186.1684
        37.7504         16.7504
    350340.01845    371997.26742  25357510.3054   25357499.6764
        33.2504         15.5004
 -19787027.83347 -15385903.28346  21792251.0864   21792238.2894
        47.5004         36.0004
 -22467881.95248 -17475779.96647  20986177.2274   20986165.1914
        51.0004         43.7504
 -10962294.73047  -8527739.42044  23234940.3444   23234926.3714
        45.0004         28.0004
 -25630200.44448 -19952662.73247  20494778.3984   20494766.7154
        51.0004         45.5004
  -4398403.13046  -3301295.42843  24579343.0234   24579330.9304
        39.5004         22.5004
 -19112884.83748 -14770024.40846  21610763.1094   21610751.1914
        50.2504         40.0004
 -10134386.70146  -7835572.84044  23421159.7344   23421148.5784
        41.0004         27.2504
  -2364763.52946  -1834653.77443  24910037.8054   24910026.7074
        39.7504         20.2504
  -2761965.37546  -2109094.15143  24451277.2194   24451267.7034
        36.5004         20.0004
 07  3 30  0  1 54.0000000  0 11G 5G23G14G31G22G 1G19G11G20G30G25
  -1401807.98546  -1693021.73942  25239175.1564   25239163.7664
        37.7504         16.7504
    347329.84045    369651.65842  25356938.5474   25356926.9804
        34.0004         16.2504
 -19784735.67347 -15384117.17945  21792687.0234   21792674.1054
        47.5004         35.5004
 -22469248.97048 -17476845.17747  20985917.0474   20985905.1294
        51.2504         43.7504
 -10959940.27747  -8525904.78444  23235387.9454   23235374.7344
        45.2504         29.5004
 -25630202.88148 -19952664.63547  20494778.1174   20494766.3754
        51.2504         45.5004
  -4395598.97046  -3299110.35543  24579876.6484   24579864.2034
        39.7504         22.2504
 -19113677.74648 -14770642.26046  21610612.7894   21610600.4614
        50.5004         40.0004
 -10137217.09846  -7837778.33544  23420620.5864   23420609.6644
        40.0004         26.7504
  -2366091.74346  -1835688.72743  24909784.8914   24909774.1454
        39.5004         20.5004
  -2765685.22046  -2111992.72443  24450569.1644   24450559.7074
        37.2504         20.0004
 07  3 30  0  1 55.0000000  0 11G 5G23G14G31G22G 1G19G11G20G30G25
  -1401927.03646  -1693114.45442  25239152.9694   25239140.6414
        38.2504         16.2504
    344319.66945    367306.05742  25356366.4694   25356353.8484
        33.7504         16.2504
 -19782443.51847 -15382331.08645  21793123.1884   21793110.7424
        47.5004         35.5004
 -22470615.56448 -17477910.05247  20985656.8364   20985645.0354
        51.5004         43.5004
 -10957585.77547  -8524070.11344  23235836.3054   23235822.6844
        45.2504         29.2504
 -25630205.11248 -19952666.37347  20494777.6024   20494765.5664
        51.2504         45.5004
  -4392794.92146  -3296925.39943  24580409.5554   24580398.1054
        39.5004         22.5004
 -19114470.24748 -14771259.79546  21610461.7814   21610449.3954
        49.7504         40.0004
 -10140047.64346  -7839983.95244  23420082.4064   23420071.0164
        40.0004         26.5004
  -2367419.69246  -1836723.51243  24909532.3594   24909521.1454
        39.5004         20.2504
  -2769405.13346  -2114891.35643  24449862.0234   24449852.2154
        36.5004         19.5004
 07  3 30  0  1 56.0000000  0 11G 5G23G14G31G22G 1G19G11G20G30G25
  -1402045.29146  -1693206.62242  25239131.2974   25239118.3204
        38.2504         15.5004
    341309.81445    364960.72242  25355793.2424   25355781.2074
        33.5004         16.2504
 -19780150.91147 -15380544.63845  21793559.4694   21793546.6724
        47.2504         35.7504
 -22471981.28748 -17478974.24747  20985396.8284   20985384.7344
        51.5004         43.5004
 -10955230.83947  -8522235.10344  23236284.6644   23236270.9264
        45.2504         29.5004
 -25630206.68748 -19952667.59647  20494777.3914   20494765.6484
        51.2504         45.5004
  -4389990.61146  -3294740.22143  24580943.4224   24580931.6214
        39.5004         22.7504
 -19115261.89648 -14771876.66646  21610311.3834   21610299.2304
        49.5004         40.0004
 -10142877.89346  -7842189.33444  23419544.1334   23419532.7424
        39.7504         26.2504
  -2368746.92746  -1837757.73543  24909279.6724   24909268.8094
        39.2504         20.0004
  -2773124.73046  -2117789.76943  24449153.3364   24449143.8794
        36.0004         19.5004
 07  3 30  0  1 57.0000000  0 11G 5G23G14G31G22G 1G19G11G20G30G25
  -1402163.14746  -1693298.48342  25239109.3444   25239096.1334
        38.5004         15.5004
    338299.85945    362615.32442  25355220.1414   25355208.1644
        32.2504         15.5004
 -19777858.33347 -15378758.22145  21793995.4064   21793983.1374
        47.2504         35.7504
 -22473346.65448 -17480038.17047  20985136.7344   20985125.2854
        51.5004         43.5004
 -10952875.96947  -8520400.13944  23236732.4384   23236718.9924
        45.2504         28.7504
 -25630208.12548 -19952668.72247  20494776.9924   20494765.2504
        51.0004         45.7504
  -4387186.52646  -3292555.21943  24581477.8364   24581464.9774
        40.0004         22.5004
 -19116053.18148 -14772493.24946  21610160.6644   21610148.1024
        49.7504         40.0004
 -10145708.32146  -7844394.86544  23419005.0394   23418994.2344
        39.7504         26.2504
  -2370073.99346  -1838791.82543  24909027.1564   24909016.0594
        39.5004         20.2504
  -2776844.49446  -2120688.29243  24448445.2424   24448436.3714
        36.2504         19.2504
 07  3 30  0  1 58.0000000  0 11G 5G23G14G31G22G 1G19G11G20G30G25
  -1402280.35846  -1693389.80542  25239087.2274   25239073.7814
        38.0004         15.5004
    335290.13345    360270.10842  25354647.4534   25354635.4184
        33.0004         15.5004
 -19775565.45647 -15376971.56446  21794431.9304   21794419.3674
        47.2504         36.0004
 -22474711.27148 -17481101.50747  20984877.5084   20984865.3554
        51.0004         43.5004
 -10950520.70847  -8518564.86844  23237180.7894   23237166.9924
        45.7504         29.2504
 -25630209.02748 -19952669.42747  20494776.8444   20494765.1604
        51.0004         45.7504
  -4384382.32846  -3290370.13543  24582011.9224   24581998.5944
        40.0004         22.2504
 -19116843.72848 -14773109.26246  21610010.1024   21609998.0664
        50.0004         40.0004
 -10148538.56646  -7846600.24444  23418466.6414   23418455.4844
        40.0004         25.7504
  -2371400.43446  -1839825.41243  24908775.0314   24908763.5824
        39.5004         20.2504
  -2780564.03946  -2123586.63643  24447737.6334   24447728.1764
        36.5004         18.5004
 07  3 30  0  1 59.0000000  0 11G 5G23G14G31G22G 1G19G11G20G30G25
  -1402397.00146  -1693480.66642  25239064.9384   25239051.4344
        37.7504         14.7504
    332280.49645    357924.97542  25354074.5164   25354062.9494
        33.2504         16.2504
 -19773272.36147 -15375184.73446  21794868.2194   21794856.1844
        47.0004         36.0004
 -22476075.26948 -17482164.36047  20984617.9064   20984606.1054
        51.0004         43.2504
 -10948165.27047  -8516729.46044  23237628.7194   23237615.3914
        45.5004         28.7504
 -25630209.52248 -19952669.81147  20494776.8134   20494765.1884
        51.0004         45.7504
  -4381578.06946  -3288185.00543  24582545.6954   24582532.6604
        40.5004         22.7504
 -19117633.67948 -14773724.81046  21609860.3754   21609847.4574
        50.2504         40.0004
 -10151368.71246  -7848805.55344  23417927.8444   23417916.9224
        40.5004         25.5004
  -2372726.40446  -1840858.62843  24908522.0944   24908511.2894
        39.5004         20.0004
  -2784283.54046  -2126484.92543  24447029.9454   24447020.1954
        37.0004         19.2504
 07  3 30  0  2  0.0000000  0 11G 5G23G14G31G22G 1G19G11G20G30G25
  -1402512.77746  -1693570.84942  25239041.9924   25239029.3714
        36.7504         13.7504
                                  25353500.2114   25353490.4024
        33.0004         16.7504
 -19770978.76747 -15373397.52046  21795304.3444   21795292.1334
        47.5004         36.2504
 -22477438.33748 -17483226.48847  20984358.7034   20984346.9024
        51.2504         43.2504
 -10945809.35647  -8514893.68444  23238076.5704   23238063.7114
        45.2504         28.5004
 -25630209.31448 -19952669.64347  20494776.8674   20494765.3014
        51.5004         45.7504
  -4378773.50746  -3285999.64243  24583079.1334   24583066.3954
        40.2504         22.5004
 -19118422.70548 -14774339.63146  21609709.8054   21609697.3014
        50.2504         40.0004
 -10154198.53446  -7851010.61144  23417388.8594   23417378.1134
        40.0004         24.7504
  -2374051.64946  -1841891.28043  24908270.9694   24908259.1094
        39.0004         20.0004
  -2788002.63446  -2129382.89643  24446323.0634   24446312.6094
        37.0004         19.5004
 07  3 30  0  2  1.0000000  0 11G 5G23G14G31G22G 1G19G11G20G30G25
  -1402628.37746  -1693660.92442  25239019.2274   25239007.3094
        37.0004         13.7504
    326261.95145    353235.18042  25352928.3134   25352917.2154
        31.2504         15.5004
 -19768685.38447 -15371610.46746  21795740.9304   21795729.0704
        47.5004         36.0004
 -22478801.19148 -17484288.45047  20984099.1254   20984087.0904
        51.2504         43.5004
 -10943453.59447  -8513058.03344  23238525.4924   23238512.1054
        45.5004         29.0004
 -25630209.08248 -19952669.46447  20494776.9774   20494765.0004
        51.2504         45.7504
  -4375969.33546  -3283814.57043  24583613.5004   24583599.7624
        40.0004         22.7504
 -19119211.52848 -14774954.30346  21609559.7194   21609547.1564
        50.2504         40.0004
 -10157028.67946  -7853215.91544  23416851.2194   23416839.4774
        40.5004         27.2504
  -2375376.79946  -1842923.87043  24908019.1414   24908006.9304
        39.7504         20.5004
  -2791722.04946  -2132281.14643  24445614.4694   24445604.7774
        37.5004         19.2504
 07  3 30  0  2  2.0000000  0 11G 5G23G14G31G22G 1G19G11G20G30G25
  -1402744.00946  -1693751.04542  25238996.2344   25238985.3134
        36.7504         15.5004
    323252.01645    350889.71742  25352355.8594   25352344.9964
        31.7504         16.2504
 -19766392.39947 -15369823.72045  21796177.5474   21796164.8674
        47.5004         35.7504
 -22480164.02548 -17485350.40547  20983839.8914   20983828.1484
        51.2504         43.5004
 -10941098.25447  -8511222.70144  23238973.2504   23238960.2734
        45.0004         28.2504
 -25630209.08048 -19952669.46347  20494776.7974   20494764.9964
        51.5004         45.7504
  -4373165.76846  -3281629.97243  24584146.3204   24584132.9924
        40.0004         22.7504
 -19120000.33948 -14775568.96646  21609409.4144   21609396.9104
        49.7504         39.7504
 -10159859.35646  -7855421.63644  23416311.7504   23416301.3554
        41.2504         27.5004
  -2376702.12946  -1843956.58443  24907766.0704   24907754.7974
        39.7504         20.2504
  -2795441.98046  -2135179.78843  24444906.7274   24444896.6254
        37.0004         19.2504
 07  3 30  0  2  3.0000000  0 11G 5G23G14G31G22G 1G19G11G20G30G25
  -1402858.37746  -1693840.15542  25238974.0234   25238963.7464
        36.7504         15.5004
    320243.06745    348545.06542  25351782.9144   25351772.1094
        31.5004         16.2504
 -19764098.53147 -15368036.29245  21796614.2424   21796601.3244
        47.0004         35.5004
 -22481525.54948 -17486411.33547  20983580.9924   20983568.8984
        51.0004         43.5004
 -10938742.00247  -8509386.65544  23239421.9304   23239408.8954
        45.5004         27.7504
 -25630207.97648 -19952668.60147  20494776.7974   20494765.2894
        51.2504         46.0004
  -4370361.48146  -3279444.81343  24584679.8754   24584667.1954
        40.5004         23.7504
 -19120787.86348 -14776182.61946  21609259.3984   21609247.2464
        50.0004         39.7504
 -10162689.29846  -7857626.79244  23415773.6174   23415762.5784
        40.5004         26.0004
  -2378026.29446  -1844988.40043  24907513.3754   24907502.8054
        39.5004         20.2504
  -2799161.15146  -2138077.84243  24444199.3834   24444189.0474
        37.2504         19.2504
 07  3 30  0  2  4.0000000  0 11G 5G23G14G31G22G 1G19G11G20G30G25
  -1402972.28646  -1693928.93642  25238952.0634   25238941.6094
        37.0004         14.7504
    317233.98445    346200.35942  25351210.7034   25351199.3714
        31.7504         16.2504
 -19761804.58047 -15366248.79746  21797050.6024   21797037.9224
        47.2504         36.0004
 -22482886.58248 -17487471.87847  20983321.9534   20983309.6254
        51.5004         43.5004
 -10936385.67347  -8507550.55544  23239870.1414   23239857.1054
        45.2504         28.7504
 -25630206.58048 -19952667.51547  20494777.2974   20494765.6134
        51.0004         45.7504
  -4367557.30546  -3277259.75243  24585213.1564   24585200.5944
        40.2504         22.7504
 -19121574.89648 -14776795.88546  21609109.7114   21609097.2664
        50.0004         40.0004
 -10165519.29846  -7859831.97844  23415235.4924   23415224.0434
        40.7504         26.2504
  -2379350.12446  -1846019.97143  24907261.9534   24907251.2074
        39.0004         20.0004
  -2802880.33946  -2140975.93143  24443492.4614   24443481.5984
        38.2504         19.2504
 07  3 30  0  2  5.0000000  0 11G 5G23G14G31G22G 1G19G11G20G30G25
  -1403085.63846  -1694017.28142  25238931.3834   25238919.9344
        37.0004         14.7504
    314224.90645    343855.63642  25350637.8364   25350626.7384
        31.5004         16.2504
 -19759510.46947 -15364461.18546  21797487.0234   21797474.6954
        47.0004         36.0004
 -22484247.02448 -17488531.95747  20983063.2274   20983051.1334
        51.2504         43.7504
 -10934029.19547  -8505714.34644  23240319.2504   23240305.6294
        45.0004         29.0004
 -25630204.83148 -19952666.14547  20494777.6174   20494766.1094
        51.0004         45.7504
  -4364753.11146  -3275074.67144  24585747.2344   24585734.3754
        40.5004         24.0004
 -19122361.35048 -14777408.70246  21608960.4144   21608947.7934
        50.5004         39.7504
 -10168349.25546  -7862037.13844  23414696.6804   23414685.4064
        41.2504         26.0004
  -2380673.49146  -1847051.14743  24907010.0784   24906999.3914
        39.0004         20.0004
  -2806599.47546  -2143873.95043  24442784.4614   24442773.8914
        38.0004         19.2504
 07  3 30  0  2  6.0000000  0 11G 5G23G14G31G22G 1G19G11G20G30G25
  -1403198.50746  -1694105.20842  25238911.2814   25238898.7774
        37.2504         14.7504
    311215.99645    341511.07842  25350064.7424   25350054.5234
        33.5004         16.2504
 -19757216.15947 -15362673.40645  21797924.1724   21797911.3134
        46.7504         35.7504
 -22485606.84648 -17489591.56047  20982804.5084   20982791.9454
        51.5004         43.7504
 -10931672.49847  -8503877.95344  23240767.0554   23240753.9024
        45.5004         29.2504
 -25630202.66548 -19952664.45947  20494778.0394   20494766.2974
        51.0004         45.7504
  -4361948.93146  -3272889.59244  24586281.4224   24586268.0354
        40.5004         24.5004
 -19123147.18448 -14778021.04346  21608810.6564   21608797.9774
        50.2504         39.7504
 -10171179.15747  -7864242.25644  23414158.9774   23414146.8834
        42.0004         26.2504
  -2381996.40346  -1848081.98843  24906758.1094   24906747.7154
        38.7504         19.7504
  -2810318.53746  -2146771.90743  24442076.7344   24442066.1644
        38.5004         19.7504
 07  3 30  0  2  7.0000000  0 11G 5G23G14G31G22G 1G19G11G20G30G25
  -1403310.85446  -1694192.78042  25238890.6094   25238877.3984
        38.2504         14.7504
    308207.19045    339166.57742  25349493.0704   25349481.3284
        32.7504         16.2504
 -19754921.80047 -15360885.59246  21798360.5084   21798348.0634
        46.7504         36.0004
 -22486966.19648 -17490650.79547  20982545.4774   20982533.4414
        51.2504         43.7504
 -10929315.72547  -8502041.51044  23241215.6644   23241202.0434
        46.0004         29.2504
 -25630200.25048 -19952662.57747  20494778.3754   20494766.8094
        51.0004         45.7504
  -4359144.88046  -3270704.62544  24586815.1644   24586801.5434
        40.5004         25.5004
 -19123932.55748 -14778633.02446  21608661.2504   21608648.7464
        50.2504         40.0004
 -10174009.12447  -7866447.42844  23413620.8524   23413608.2304
        42.2504         26.5004
  -2383319.02646  -1849112.58643  24906506.7424   24906495.8794
        38.7504         19.5004
  -2814037.72646  -2149669.95443  24441368.6414   24441358.7154
        37.7504         19.7504
 07  3 30  0  2  8.0000000  0 11G 5G23G14G31G22G 1G19G11G20G30G25
  -1403422.50946  -1694279.77542  25238869.6564   25238856.3874
        38.5004         15.5004
    305198.64245    336822.25942  25348919.9774   25348909.4064
        33.0004         16.2504
 -19752627.06547 -15359097.49046  21798797.0004   21798784.6724
        47.0004         36.0004
 -22488324.75748 -17491709.41047  20982287.0004   20982274.9654
        51.0004         44.0004
 -10926958.61947  -8500204.80244  23241664.5234   23241650.7854
        45.0004         29.0004
 -25630197.24448 -19952660.23647  20494778.8134   20494767.3634
        51.5004         45.5004
  -4356340.65346  -3268519.51544  24587349.0634   24587335.6174
        40.5004         25.2504
 -19124717.15748 -14779244.39846  21608511.7424   21608499.6484
        50.0004         39.7504
 -10176838.88746  -7868652.44144  23413081.7974   23413069.8204
        41.5004         26.7504
  -2384641.04046  -1850142.73743  24906254.6484   24906244.4304
        38.2504         19.2504
  -2817756.59846  -2152567.77143  24440660.4454   24440650.8134
        37.0004         20.0004
 07  3 30  0  2  9.0000000  0 11G 5G23G14G31G22G 1G19G11G20G30G25
  -1403533.78746  -1694366.50342  25238849.0234   25238834.8754
        37.5004         15.5004
    302190.02945    334477.87242  25348347.3284   25348336.8164
        32.2504         15.5004
 -19750332.30547 -15357309.37146  21799233.3054   21799221.1524
        47.0004         36.0004
 -22489682.86648 -17492767.68147  20982028.6644   20982016.6884
        51.0004         43.7504
 -10924601.43747  -8498368.04344  23242113.0784   23242099.0474
        45.5004         29.0004
 -25630194.02348 -19952657.72647  20494779.6174   20494767.6994
        51.0004         45.5004
  -4353536.51046  -3266334.47144  24587881.2814   24587868.7194
        40.2504         24.5004
 -19125501.32248 -14779855.43846  21608362.6094   21608350.3404
        49.7504         40.0004
 -10179668.74946  -7870857.53144  23412543.5784   23412531.2504
        41.5004         26.2504
  -2385962.68946  -1851172.62543  24906003.8524   24905992.6954
        39.0004         19.5004
  -2821475.57746  -2155465.68643  24439953.1724   24439943.1294
        36.5004         19.7504
 07  3 30  0  2 10.0000000  0 11G 5G23G14G31G22G 1G19G11G20G30G25
  -1403644.46646  -1694452.77242  25238826.8834   25238814.2624
        37.5004         15.5004
    299181.62245    332133.62442  25347774.6804   25347763.9924
        32.5004         16.2504
 -19748037.35547 -15355521.09445  21799670.3134   21799657.9844
        47.5004         35.7504
 -22491040.36148 -17493825.46647  20981770.4144   20981758.0864
        51.0004         43.7504
 -10922244.06547  -8496531.13344  23242561.6484   23242548.0274
        45.2504         29.5004
 -25630190.40448 -19952654.90947  20494780.2344   20494768.3164
        50.7504         45.5004
  -4350732.42846  -3264149.47144  24588414.7344   24588402.5234
        41.0004         24.0004
 -19126284.84448 -14780465.97746  21608213.3984   21608200.9534
        49.7504         40.0004
 -10182498.55546  -7873062.56544  23412005.1024   23411992.7154
        41.5004         26.5004
  -2387283.93346  -1852202.10843  24905752.0554   24905741.4844
        38.2504         20.0004
  -2825194.49246  -2158363.53643  24439245.3754   24439236.0354
        37.0004         20.5004
 07  3 30  0  2 11.0000000  0 11G 5G23G14G31G22G 1G19G11G20G30G25
  -1403754.56646  -1694538.55642  25238805.9844   25238792.8324
        37.7504         14.7504
    296173.24645    329789.40442  25347203.1024   25347191.5944
        33.5004         15.5004
 -19745742.19947 -15353732.66345  21800107.1954   21800094.4574
        47.5004         35.7504
 -22492397.21448 -17494882.76147  20981511.8914   20981500.0904
        51.5004         44.0004
 -10919886.46047  -8494694.04344  23243010.1564   23242996.5944
        45.0004         29.0004
 -25630186.35248 -19952651.74847  20494781.0864   20494769.1684
        50.7504         45.5004
  -4347928.26846  -3261964.40044  24588948.6644   24588936.3364
        40.7504         25.2504
 -19127067.76848 -14781076.04246  21608064.2734   21608052.0044
        50.0004         40.0004
 -10185328.27546  -7875267.54344  23411465.8914   23411454.1484
        41.2504         27.5004
  -2388604.68146  -1853231.24343  24905500.5634   24905490.3444
        39.0004         19.7504
  -2828913.23546  -2161261.24843  24438538.1884   24438527.8524
        36.7504         20.5004
 07  3 30  0  2 12.0000000  0 11G 5G23G14G31G22G 1G19G11G20G30G25
  -1403864.15046  -1694623.89242  25238784.4534   25238772.3594
        37.2504         14.7504
    293164.99545    327445.30342  25346631.9144   25346619.2934
        33.0004         15.5004
 -19743446.88247 -15351944.10646  21800543.5944   21800530.8554
        47.0004         36.0004
 -22493753.53248 -17495939.62047  20981254.0634   20981241.9104
        51.5004         44.0004
 -10917528.72147  -8492856.84844  23243458.9064   23243444.9924
        45.0004         29.0004
 -25630181.96848 -19952648.33047  20494781.7734   20494770.2664
        50.7504         45.5004
  -4345124.19346  -3259779.42144  24589482.5474   24589470.4534
        40.2504         24.0004
 -19127850.15348 -14781685.69046  21607915.6564   21607903.3874
        50.0004         40.2504
 -10188157.99146  -7877472.50344  23410927.2034   23410916.2234
        41.7504         26.0004
  -2389925.08146  -1854260.11843  24905249.5634   24905239.1684
        38.7504         19.2504
  -2832632.03246  -2164159.01243  24437830.1174   24437820.7194
        37.0004         20.7504
 07  3 30  0  2 13.0000000  0 11G 5G23G14G31G22G 1G19G11G20G30G25
  -1403973.05146  -1694708.76642  25238762.7114   25238751.3794
        37.0004         15.5004
    290156.97945    325101.39942  25346058.4694   25346046.3754
        33.5004         15.5004
 -19741151.27147 -15350155.31645  21800980.8284   21800967.9694
        47.0004         35.5004
 -22495109.11248 -17496995.91947  20980995.9614   20980983.8674
        51.2504         44.0004
 -10915170.67347  -8491019.39945  23243907.9774   23243893.7114
        45.7504         30.0004
 -25630177.06748 -19952644.51647  20494782.6724   20494771.5744
        51.0004         45.0004
  -4342319.99746  -3257594.32744  24590015.0314   24590003.9344
        40.2504         25.2504
 -19128631.81148 -14782294.77946  21607766.8054   21607754.1844
        50.2504         40.2504
 -10190987.54647  -7879677.35744  23410389.0634   23410377.5554
        42.0004         26.5004
  -2391244.86846  -1855288.52343  24904998.0944   24904987.8754
        39.0004         19.2504
  -2836350.59146  -2167056.59943  24437122.6884   24437112.5864
        36.7504         20.7504
 07  3 30  0  2 14.0000000  0 11G 5G23G14G31G22G 1G19G11G20G30G25
  -1404081.55046  -1694793.31342  25238741.2424   25238730.7894
        36.0004         15.5004
    287148.92645    322757.49842  25345486.8914   25345473.9734
        33.2504         15.5004
 -19738855.64747 -15348366.52845  21801417.4614   21801404.8984
        46.7504         35.7504
 -22496464.22848 -17498051.84847  20980738.3204   20980726.2854
        51.5004         44.0004
 -10912812.59147  -8489181.93144  23244356.6644   23244342.3984
        45.7504         29.5004
 -25630171.93048 -19952640.50947  20494783.6024   20494771.8014
        51.7504         45.0004
  -4339515.90446  -3255409.31644  24590549.3364   24590537.3594
        40.7504         25.5004
 -19129413.02548 -14782903.50946  21607618.1414   21607606.1054
        50.2504         40.0004
 -10193817.18946  -7881882.26244  23409851.0474   23409838.8954
        41.5004         26.7504
  -2392564.36346  -1856316.70243  24904746.7894   24904737.1564
        38.2504         19.5004
  -2840069.27746  -2169954.26243  24436414.5784   24436404.8284
        37.2504         20.5004
 07  3 30  0  2 15.0000000  0 11G 5G23G14G31G22G 1G19G11G20G30G25
  -1404189.36446  -1694877.34542  25238721.1804   25238710.4924
        36.0004         15.5004
    284141.11845    320413.75242  25344915.1174   25344901.5554
        33.7504         15.5004
 -19736559.69547 -15346577.47146  21801854.5234   21801841.9024
        47.0004         36.0004
 -22497818.63548 -17499107.22847  20980480.3284   20980468.2344
        51.2504         44.0004
 -10910454.20247  -8487344.22144  23244805.8054   23244791.3634
        45.7504         29.2504
 -25630166.28348 -19952636.11147  20494784.9224   20494773.0044
        51.0004         45.2504
  -4336711.72646  -3253224.24344  24591082.3444   24591071.0704
        40.7504         25.0004
 -19130193.51048 -14783511.68546  21607469.1564   21607457.4734
        50.5004         39.7504
 -10196646.66146  -7884087.04344  23409311.9304   23409300.7154
        40.7504         27.5004
  -2393883.26646  -1857344.43343  24904495.9224   24904485.9964
        38.5004         19.7504
  -2843787.74446  -2172851.76943  24435707.2734   24435697.3484
        37.0004         20.5004
 07  3 30  0  2 16.0000000  0 11G 5G23G14G31G22G 1G19G11G20G30G25
  -1404296.73546  -1694961.00142  25238700.4614   25238689.5984
        36.0004         15.5004
    281133.32645    318070.00442  25344342.8134   25344329.3094
        34.5004         15.5004
 -19734263.66547 -15344788.35846  21802291.7894   21802279.3444
        47.5004         36.0004
 -22499172.51348 -17500162.20047  20980222.8054   20980210.5354
        51.5004         44.0004
 -10908095.69247  -8485506.43344  23245254.1644   23245240.4264
        46.0004         29.2504
 -25630160.31848 -19952631.46247  20494785.8984   20494774.5084
        50.7504         45.5004
  -4333907.62546  -3251039.23644  24591616.1334   24591604.6254
        40.5004         25.5004
 -19130973.49048 -14784119.45846  21607321.1644   21607309.0124
        50.5004         40.0004
 -10199476.20346  -7886291.88144  23408774.0084   23408761.7384
        40.7504         26.5004
  -2395201.83146  -1858371.88143  24904245.3594   24904234.7304
        38.7504         19.5004
  -2847506.24646  -2175749.29943  24434999.4384   24434989.8634
        37.5004         20.7504
 07  3 30  0  2 17.0000000  0 11G 5G23G14G31G22G 1G19G11G20G30G25
  -1404403.46546  -1695044.17242  25238681.2584   25238669.6334
        36.2504         15.5004
    278125.77745    315726.45942  25343770.7734   25343756.8014
        34.5004         16.2504
 -19731967.36147 -15342999.02546  21802728.2194   21802715.5984
        46.5004         36.0004
 -22500525.70848 -17501216.64347  20979965.6414   20979953.0784
        51.5004         44.2504
 -10905736.91947  -8483668.43644  23245703.1024   23245689.4224
        46.0004         28.5004
 -25630153.91948 -19952626.47347  20494787.3364   20494775.8874
        50.7504         45.5004
  -4331103.44646  -3248854.16943  24592149.5634   24592138.5234
        41.2504         23.7504
 -19131752.82248 -14784726.73046  21607172.9304   21607160.7194
        50.5004         40.0004
 -10202305.56446  -7888496.58244  23408235.0394   23408223.6484
        40.2504         26.0004
  -2396519.83146  -1859398.88743  24903994.1094   24903984.0664
        38.5004         19.2504
  -2851224.59246  -2178646.71443  24434291.8054   24434281.9384
        37.5004         20.5004
 07  3 30  0  2 18.0000000  0 11G 5G23G14G31G22G 1G19G11G20G30G25
  -1404509.69146  -1695126.99842  25238662.1724   25238648.9614
        37.2504         14.7504
    275118.24845    313382.95442  25343198.9454   25343184.7384
        35.5004         16.7504
 -19729670.94347 -15341209.60746  21803165.8834   21803152.7894
        46.7504         36.2504
 -22501878.37148 -17502270.66547  20979708.1334   20979695.8054
        51.2504         44.2504
 -10903378.03647  -8481830.34244  23246152.1644   23246138.1334
        45.7504         28.7504
 -25630147.18448 -19952621.22547  20494788.6334   20494776.8914
        51.0004         45.5004
  -4328299.30646  -3246669.13344  24592682.6564   24592672.4384
        40.5004         24.0004
 -19132531.60248 -14785333.57646  21607025.1094   21607012.3714
        50.2504         40.0004
 -10205134.99646  -7890701.33744  23407696.9304   23407685.0704
        40.2504         25.7504
  -2397837.51346  -1860425.65943  24903743.4924   24903733.2154
        38.2504         19.2504
  -2854942.92246  -2181544.09443  24433585.3054   24433574.6174
        37.5004         20.7504
 07  3 30  0  2 19.0000000  0 11G 5G23G14G31G22G 1G19G11G20G30G25
  -1404615.48446  -1695209.39142  25238643.1724   25238629.1994
        37.0004         14.7504
    272110.67645    311039.36742  25342626.6804   25342612.0634
        35.0004         17.2504
 -19727374.42847 -15339420.11445  21803602.5554   21803589.7584
        46.5004         35.7504
 -22503230.50748 -17503324.27247  20979450.9064   20979438.5204
        51.5004         44.0004
 -10901019.01747  -8479992.13844  23246601.1804   23246587.2664
        45.2504         29.2504
 -25630140.12548 -19952615.72747  20494789.7814   20494778.0984
        51.0004         45.5004
  -4325495.26846  -3244484.18344  24593217.0084   24593206.3794
        40.5004         24.0004
 -19133309.86748 -14785940.01246  21606876.8444   21606864.7504
        50.2504         39.7504
 -10207964.43946  -7892906.10044  23407158.4454   23407146.7034
        40.5004         25.5004
  -2399154.77446  -1861452.11443  24903493.3984   24903482.7704
        38.7504         19.5004
  -2858661.26346  -2184441.50943  24432878.6414   24432867.2504
        38.0004         20.2504
 07  3 30  0  2 20.0000000  0 11G 5G23G14G31G22G 1G19G11G20G30G25
  -1404720.39346  -1695291.18042  25238623.0474   25238608.8984
        37.5004         14.7504
    269103.49145    308696.11842  25342054.5004   25342039.9414
        35.0004         16.7504
 -19725077.53747 -15337630.32945  21804039.3134   21804026.8674
        46.2504         35.7504
 -22504581.84948 -17504377.27247  20979194.0864   20979181.3484
        51.5004         44.5004
 -10898659.66647  -8478153.68944  23247049.6174   23247036.1724
        45.2504         29.2504
 -25630132.51048 -19952609.79447  20494791.2344   20494779.4924
        50.7504         45.5004
  -4322691.03746  -3242299.05944  24593750.4924   24593739.3954
        40.0004         24.5004
 -19134087.35448 -14786545.84846  21606728.6254   21606716.6484
        50.2504         39.7504
 -10210793.61246  -7895110.64244  23406620.2504   23406608.1564
        40.5004         25.7504
  -2400471.44846  -1862478.09443  24903242.0394   24903232.1724
        38.2504         19.5004
  -2862379.35846  -2187338.73043  24432170.8054   24432159.4734
        38.2504         20.2504
 07  3 30  0  2 21.0000000  0 11G 5G23G14G31G22G 1G19G11G20G30G25
  -1404825.12146  -1695372.78042  25238603.9844   25238588.7814
        37.5004         14.7504
    266096.14345    306352.71942  25341481.9534   25341467.8054
        35.2504         17.2504
 -19722780.70447 -15335840.59345  21804476.4844   21804464.0394
        46.2504         35.5004
 -22505932.82648 -17505429.97647  20978937.0004   20978924.2624
        51.2504         44.2504
 -10896300.34447  -8476315.25044  23247499.1254   23247485.1524
        45.0004         29.0004
 -25630124.73548 -19952603.73347  20494792.8594   20494781.1764
        50.7504         45.5004
  -4319887.05246  -3240114.14444  24594283.7814   24594273.0944
        40.5004         26.0004
 -19134864.48848 -14787151.40846  21606580.6724   21606568.5204
        50.0004         40.0004
 -10213623.03846  -7897315.38844  23406082.3054   23406070.0354
        41.5004         25.7504
  -2401787.89046  -1863503.88843  24902991.5394   24902982.0824
        37.5004         19.5004
  -2866097.61646  -2190236.08243  24431463.0164   24431452.3284
        38.2504         20.5004
 07  3 30  0  2 22.0000000  0 11G 5G23G14G31G22G 1G19G11G20G30G25
  -1404929.19246  -1695453.81042  25238583.9304   25238569.5474
        37.2504         15.5004
    263088.97645    304009.47942  25340909.3834   25340895.6454
        35.0004         16.7504
 -19720483.57347 -15334050.62045  21804913.8674   21804901.2464
        46.5004         35.5004
 -22507283.09648 -17506482.13547  20978680.0314   20978667.2934
        51.2504         44.2504
 -10893940.70547  -8474476.57044  23247947.9694   23247934.1134
        45.2504         28.2504
 -25630116.44348 -19952597.27147  20494794.5634   20494782.7034
        51.0004         45.5004
  -4317082.94446  -3237929.11644  24594817.8134   24594806.4804
        40.0004         26.0004
 -19135640.89148 -14787756.40346  21606433.5164   21606420.8364
        50.0004         40.0004
 -10216452.24946  -7899519.97244  23405543.7974   23405531.3524
        41.0004         25.2504
  -2403103.79346  -1864529.26143  24902741.4384   24902731.7464
        38.0004         19.5004
  -2869815.69746  -2193133.29043  24430755.3834   24430744.4614
        38.5004         20.5004
 07  3 30  0  2 23.0000000  0 11G 5G23G14G31G22G 1G19G11G20G30G25
  -1405032.57946  -1695534.37842  25238563.1094   25238549.6054
        36.5004         15.5004
    260082.05645    301666.42842  25340338.0554   25340323.4964
        35.0004         16.7504
 -19718186.21047 -15332260.47446  21805350.6484   21805338.4384
        46.7504         36.0004
 -22508632.68948 -17507533.76547  20978423.0554   20978410.3754
        51.0004         44.5004
 -10891580.84347  -8472637.70944  23248396.6414   23248383.3714
        45.2504         29.2504
 -25630107.74748 -19952590.49547  20494796.0554   20494784.2544
        50.7504         45.5004
  -4314278.78546  -3235744.06444  24595351.4144   24595339.7894
        40.0004         25.5004
 -19136416.68048 -14788360.90846  21606285.4924   21606273.1054
        50.0004         40.0004
 -10219281.41546  -7901724.52344  23405005.8524   23404992.9924
        41.7504         24.5004
  -2404419.20246  -1865554.24343  24902491.1174   24902481.2504
        37.7504         19.2504
  -2873533.65946  -2196030.40043  24430047.9614   24430036.7464
        38.5004         20.5004
 07  3 30  0  2 24.0000000  0 11G 5G23G14G31G22G 1G19G11G20G30G25
  -1405135.52445  -1695614.59442  25238542.0944   25238529.8834
        35.0004         14.7504
    257075.15545    299323.40042  25339766.0084   25339751.2734
        34.0004         16.7504
 -19715888.74247 -15330470.23046  21805787.8284   21805775.5594
        46.7504         36.2504
 -22509981.76348 -17508584.98947  20978166.3204   20978153.9924
        50.5004         44.5004
 -10889220.85147  -8470798.76244  23248846.0234   23248832.3444
        45.2504         29.2504
 -25630098.70448 -19952583.44247  20494797.8594   20494786.0004
        51.0004         45.5004
  -4311474.71546  -3233559.06244  24595884.9844   24595873.8284
        39.5004         25.0004
 -19137191.93748 -14788964.99946  21606138.1484   21606125.7624
        49.5004         40.0004
 -10222110.55846  -7903929.04444  23404467.6644   23404454.8054
        40.5004         24.0004
  -2405734.20946  -1866578.91343  24902241.0394   24902231.1724
        37.0004         19.5004
  -2877251.61846  -2198927.52143  24429340.5394   24429329.3834
        38.5004         20.5004
 07  3 30  0  2 25.0000000  0 11G 5G23G14G31G22G 1G19G11G20G30G25
  -1405237.93445  -1695694.37042  25238521.2344   25238510.2544
        35.5004         15.5004
    254068.34345    296980.41842  25339193.3594   25339179.4454
        35.0004         16.7504
 -19713591.15347 -15328679.90145  21806225.3054   21806212.7424
        46.0004         35.5004
 -22511330.27048 -17509635.77247  20977909.9144   20977896.6454
        50.5004         44.5004
 -10886860.74347  -8468959.71844  23249294.4924   23249281.5164
        45.5004         29.0004
 -25630089.35748 -19952576.16347  20494799.4924   20494788.1024
        50.7504         45.5004
  -4308670.70546  -3231374.11644  24596417.2894   24596407.0124
        39.5004         25.2504
 -19137966.64048 -14789568.66946  21605990.3674   21605978.2734
        49.0004         40.0004
 -10224939.74446  -7906133.60744  23403928.8054   23403916.5354
        41.0004         26.0004
  -2407048.83046  -1867603.30143  24901991.2274   24901980.8914
        37.5004         19.2504
  -2880969.60946  -2201824.63943  24428632.9224   24428622.0594
        38.5004         20.7504
 07  3 30  0  2 26.0000000  0 11G 5G23G14G31G22G 1G19G11G20G30G25
  -1405339.76345  -1695773.73642  25238501.3984   25238490.9454
        35.0004         15.5004
    251061.57545    294637.48442  25338621.9924   25338606.1454
        35.0004         16.7504
 -19711293.32347 -15326889.38945  21806662.6644   21806650.3954
        46.7504         35.7504
 -22512678.15048 -17510686.06747  20977652.7974   20977640.4104
        50.5004         44.0004
 -10884500.37447  -8467120.46744  23249744.0004   23249730.9654
        45.0004         29.2504
 -25630079.56048 -19952568.52947  20494801.3444   20494789.3674
        51.0004         45.5004
  -4305866.60946  -3229189.10744  24596950.9924   24596940.2464
        38.5004         25.0004
 -19138740.69648 -14790171.83246  21605843.2114   21605831.0004
        49.2504         40.0004
 -10227768.77546  -7908338.04644  23403390.3444   23403378.2504
        40.5004         26.5004
  -2408362.97946  -1868627.30743  24901741.5944   24901730.6134
        37.0004         19.7504
  -2884687.44446  -2204721.64443  24427924.3834   24427914.1644
        37.5004         21.5004
 07  3 30  0  2 27.0000000  0 11G 5G23G14G31G22G 1G19G11G20G30G25
  -1405440.96045  -1695852.62842  25238481.2344   25238471.4264
        34.7504         14.7504
    248055.18845    292294.84342  25338049.6724   25338034.3524
        34.5004         16.2504
 -19708995.21347 -15325098.64546  21807100.0864   21807087.8754
        47.0004         36.0004
 -22514025.31148 -17511735.80247  20977396.4694   20977383.7304
        51.0004         44.0004
 -10882139.73647  -8465281.01245  23250192.6564   23250180.0354
        45.2504         30.0004
 -25630069.27048 -19952560.51047  20494803.5394   20494791.5634
        51.0004         45.7504
  -4303062.46846  -3227004.07144  24597484.5004   24597474.4574
        39.0004         24.5004
 -19139514.06548 -14790774.45446  21605696.2814   21605683.8364
        49.5004         40.2504
 -10230597.72546  -7910542.41744  23402851.4614   23402839.7194
        40.5004         26.2504
  -2409676.51946  -1869650.83943  24901491.1884   24901480.2664
        37.5004         19.7504
  -2888405.08946  -2207618.48843  24427217.0784   24427206.9184
        38.2504         21.2504
 07  3 30  0  2 28.0000000  0 11G 5G23G14G31G22G 1G19G11G20G30G25
  -1405541.61245  -1695931.07642  25238463.0084   25238452.1454
        35.0004         15.5004
    245048.79145    289952.18542  25337477.3284   25337462.5354
        35.5004         16.2504
 -19706696.94047 -15323307.78945  21807537.5634   21807524.8834
        46.7504         35.5004
 -22515371.88848 -17512785.08647  20977140.3914   20977128.0634
        51.2504         44.0004
 -10879778.93547  -8463441.43444  23250641.8914   23250628.9734
        45.2504         29.2504
 -25630058.62448 -19952552.21347  20494805.5004   20494793.5824
        51.0004         45.5004
  -4300258.35146  -3224819.03144  24598018.2814   24598007.6524
        39.5004         24.2504
 -19140286.86848 -14791376.63646  21605548.7114   21605536.6764
        49.5004         40.2504
 -10233426.62546  -7912746.75544  23402313.8054   23402301.6524
        40.5004         26.2504
  -2410989.67446  -1870674.07243  24901241.7974   24901230.6414
        37.5004         20.0004
  -2892122.75046  -2210515.35743  24426509.2974   24426500.0164
        38.0004         20.7504
 07  3 30  0  2 29.0000000  0 11G 5G23G14G31G22G 1G19G11G20G30G25
  -1405641.83945  -1696009.20742  25238444.6954   25238433.3634
        34.7504         15.5004
    242042.40645    287609.54342  25336905.3524   25336890.4414
        35.0004         17.2504
 -19704398.63647 -15321516.90146  21807974.4384   21807962.1684
        47.0004         36.0004
 -22516717.99348 -17513833.99447  20976884.2894   20976871.6094
        51.0004         44.0004
 -10877418.06247  -8461601.79344  23251091.1484   23251078.4694
        44.7504         29.2504
 -25630047.73048 -19952543.72347  20494807.6174   20494796.1684
        51.0004         45.5004
  -4297454.35246  -3222634.10544  24598551.6804   24598541.3444
        39.7504         25.2504
 -19141059.21648 -14791978.46746  21605401.9774   21605389.7664
        49.7504         40.5004
 -10236255.63946  -7914951.18644  23401775.1954   23401763.2774
        40.5004         24.5004
  -2412302.56546  -1871697.09343  24900991.8444   24900981.2154
        37.0004         20.0004
  -2895840.39846  -2213412.22943  24425802.6094   24425792.5664
        38.0004         20.5004
 07  3 30  0  2 30.0000000  0 11G 5G23G14G31G22G 1G19G11G20G30G25
  -1405741.28246  -1696086.65642  25238427.1644   25238414.6604
        36.0004         15.5004
    239036.32045    285267.15842  25336334.1254   25336318.2194
        35.0004         16.7504
 -19702099.95847 -15319725.72646  21808411.9534   21808400.0354
        46.7504         36.0004
 -22518063.30748 -17514882.28647  20976628.2344   20976615.6724
        51.0004         44.0004
 -10875056.81447  -8459761.86744  23251540.9144   23251527.5274
        45.0004         29.2504
 -25630036.26748 -19952534.79647  20494809.7974   20494798.0554
        51.0004         45.5004
  -4294650.12446  -3220448.99944  24599085.6884   24599075.0004
        39.5004         24.2504
 -19141830.75248 -14792579.66546  21605255.3054   21605242.9184
        49.5004         40.2504
 -10239084.37846  -7917155.39144  23401237.2814   23401225.0704
        41.0004         24.5004
  -2413614.76146  -1872719.58843  24900742.4924   24900731.4534
        37.0004         20.5004
  -2899557.85846  -2216308.90243  24425095.0704   24425085.3794
        38.7504         20.7504
 07  3 30  0  2 31.0000000  0 11G 5G23G14G31G22G 1G19G11G20G30G25
  -1405840.44145  -1696163.90442  25238408.5164   25238396.1884
        35.7504         15.5004
    236030.22446    282924.76342  25335761.2734   25335746.7154
        36.0004         16.7504
 -19699801.29947 -15317934.55646  21808849.2734   21808837.2384
        46.7504         36.0004
 -22519408.20848 -17515930.26547  20976372.5314   20976359.8524
        51.2504         43.7504
 -10872695.57247  -8457921.94445  23251990.0234   23251977.1054
        45.0004         30.0004
 -25630024.59848 -19952525.70147  20494812.0704   20494800.2704
        51.0004         45.7504
  -4291846.11746  -3218264.05344  24599619.2814   24599608.4184
        39.2504         24.5004
 -19142601.91248 -14793180.56946  21605108.1884   21605096.3284
        49.7504         40.0004
 -10241913.27446  -7919359.72844  23400698.6484   23400686.3204
        41.2504         24.0004
  -2414926.69346  -1873741.85543  24900492.4384   24900481.8094
        37.2504         19.7504
  -2903275.34446  -2219205.65743  24424388.4064   24424377.8954
        38.0004         20.5004
 07  3 30  0  2 32.0000000  0 11G 5G23G14G31G22G 1G19G11G20G30G25
  -1405939.02846  -1696240.70842  25238389.9694   25238377.1094
        36.0004         15.5004
    233024.18245    280582.40942  25335188.9384   25335174.7894
        35.7504         16.2504
 -19697502.44547 -15316143.24846  21809286.4144   21809274.4964
        46.5004         36.0004
 -22520752.51748 -17516977.77547  20976116.7664   20976103.7304
        51.0004         43.7504
 -10870334.14447  -8456081.87045  23252439.9454   23252426.5594
        45.0004         30.0004
 -25630012.52848 -19952516.29047  20494814.2584   20494802.3404
        51.0004         45.5004
  -4289042.13046  -3216079.12044  24600153.3204   24600141.7544
        39.0004         25.0004
 -19143372.47448 -14793781.00646  21604961.8204   21604949.7274
        49.5004         40.0004
 -10244742.12146  -7921564.03543  23400160.0864   23400148.0514
        41.7504         22.7504
  -2416238.18146  -1874763.81543  24900243.0314   24900232.2854
        37.0004         19.7504
  -2906992.83446  -2222102.40143  24423680.6804   24423670.4024
        38.2504         20.7504
 07  3 30  0  2 33.0000000  0 11G 5G23G14G31G22G 1G19G11G20G30G25
  -1406036.90646  -1696316.99542  25238371.7974   25238358.8794
        36.5004         16.2504
    230018.32245    278240.14742  25334616.8134   25334602.6644
        35.2504         16.7504
 -19695203.28447 -15314351.69646  21809724.3054   21809711.9184
        46.2504         36.0004
 -22522096.10148 -17518024.71847  20975860.8054   20975848.4774
        50.7504         44.0004
 -10867972.41347  -8454241.54844  23252888.8594   23252875.6484
        45.5004         29.5004
 -25629999.97648 -19952506.51447  20494816.7344   20494804.6994
        51.0004         45.7504
  -4286238.02046  -3213894.09144  24600686.9224   24600675.8244
        39.0004         24.0004
 -19144142.30948 -14794380.88246  21604815.2034   21604802.9924
        49.7504         40.2504
 -10247570.80647  -7923768.20344  23399622.1804   23399610.2624
        42.0004         25.2504
  -2417549.10646  -1875785.31743  24899993.0704   24899982.9104
        37.0004         19.5004
  -2910710.11746  -2224998.99543  24422972.2034   24422962.8054
        38.5004         20.7504
 07  3 30  0  2 34.0000000  0 11G 5G23G14G31G22G 1G19G11G20G30G25
  -1406134.38746  -1696392.96442  25238353.0394   25238340.3014
        36.2504         16.7504
    227012.53845    275897.97642  25334044.8364   25334030.8054
        35.0004         17.2504
 -19692904.05547 -15312560.08746  21810161.6804   21810149.4694
        46.2504         36.0004
 -22523439.16848 -17519071.26547  20975605.5164   20975592.8954
        50.5004         44.0004
 -10865610.57147  -8452401.14744  23253338.2114   23253325.1174
        45.5004         29.2504
 -25629987.12248 -19952496.49547  20494819.0864   20494807.4024
        51.0004         45.5004
  -4283434.03846  -3211709.16644  24601219.5474   24601209.1524
        38.7504         24.2504
 -19144911.65348 -14794980.36746  21604668.8984   21604656.8054
        49.5004         40.0004
 -10250399.53946  -7925972.40644  23399084.2584   23399071.3404
        41.5004         25.0004
  -2418859.65646  -1876806.52843  24899744.3054   24899733.9694
        37.2504         19.7504
  -2914427.42046  -2227895.58843  24422266.1484   24422254.8164
        39.0004         20.7504
 07  3 30  0  2 35.0000000  0 11G 5G23G14G31G22G 1G19G11G20G30G25
  -1406230.89346  -1696468.12342  25238333.5944   25238321.6764
        36.0004         16.7504
    224007.16545    273556.13042  25333472.5704   25333458.7734
        34.5004         17.2504
 -19690604.34047 -15310768.10646  21810599.4694   21810587.1414
        45.7504         36.0004
 -22524781.31848 -17520117.09947  20975350.1334   20975336.9804
        50.5004         44.0004
 -10863248.25447  -8450560.39244  23253788.2584   23253774.8134
        45.2504         29.2504
 -25629973.57348 -19952485.94347  20494821.6484   20494809.7304
        51.0004         45.5004
  -4280629.69746  -3209523.96744  24601753.4224   24601742.9104
        39.0004         24.2504
 -19145680.08548 -14795579.14746  21604522.8524   21604510.4654
        49.5004         40.0004
 -10253227.91246  -7928176.32944  23398545.8914   23398532.7974
        41.7504         26.2504
  -2420169.50246  -1877827.17843  24899495.4614   24899484.3054
        37.0004         20.2504
  -2918144.37846  -2230791.91743  24421558.6414   24421547.5434
        39.2504         20.5004
 07  3 30  0  2 36.0000000  0 11G 5G23G14G31G22G 1G19G11G20G30G25
  -1406327.54646  -1696543.44542  25238314.0634   25238303.2584
        36.0004         16.7504
    221001.33845    271213.97342  25332900.3364   25332886.9494
        35.0004         17.2504
 -19688305.06447 -15308976.46146  21811037.3204   21811024.9924
        46.0004         36.2504
 -22526123.49348 -17521162.94547  20975094.3914   20975082.2384
        50.5004         44.0004
 -10860886.36447  -8448719.96244  23254237.7584   23254224.6054
        45.2504         29.0004
 -25629960.26548 -19952475.57047  20494824.2424   20494812.7344
        51.2504         45.7504
  -4277825.99546  -3207339.26344  24602287.2894   24602276.1914
        39.2504         24.7504
 -19146448.53848 -14796177.94146  21604376.4384   21604364.1684
        49.7504         40.0004
 -10256056.84046  -7930380.68644  23398007.0314   23397994.6454
        41.5004         27.5004
  -2421479.50946  -1878847.96943  24899245.5084   24899235.0554
        36.7504         20.2504
  -2921861.87146  -2233688.63643  24420851.8134   24420840.0124
        39.2504         20.7504
 07  3 30  0  2 37.0000000  0 11G 5G23G14G31G22G 1G19G11G20G30G25
  -1406423.23446  -1696617.99342  25238295.9224   25238285.5864
        36.0004         16.2504
    217996.00345    268872.11442  25332327.5474   25332314.8094
        33.5004         17.7504
 -19686005.19847 -15307184.35746  21811474.8284   21811462.5594
        46.0004         36.2504
 -22527464.63848 -17522207.98847  20974839.1724   20974826.6094
        50.7504         43.7504
 -10858523.85947  -8446879.04944  23254686.9844   23254673.5394
        45.5004         29.5004
 -25629946.16448 -19952464.58747  20494827.2664   20494815.1724
        51.0004         45.5004
  -4275021.85746  -3205154.22244  24602821.3444   24602810.4804
        39.2504         25.5004
 -19147216.00448 -14796775.96646  21604230.6954   21604218.2504
        49.5004         40.0004
 -10258885.30446  -7932584.69044  23397468.9144   23397456.6454
        41.5004         26.5004
  -2422788.60046  -1879868.03643  24898995.9384   24898985.3094
        36.5004         20.2504
  -2925578.81346  -2236585.00443  24420144.6954   24420132.6604
        38.5004         20.2504
 07  3 30  0  2 38.0000000  0 11G 5G23G14G31G22G 1G19G11G20G30G25
  -1406518.34745  -1696692.12242  25238277.2034   25238267.1604
        35.7504         16.7504
    214990.66945    266530.28542  25331755.8914   25331742.5634
        35.0004         17.7504
 -19683705.19047 -15305392.14346  21811912.2734   21811900.5314
        46.0004         36.0004
 -22528805.24248 -17523252.61447  20974584.1724   20974571.3134
        50.0004         43.7504
 -10856161.22147  -8445038.03344  23255136.5864   23255123.4924
        45.7504         28.5004
 -25629931.71048 -19952453.32147  20494829.4064   20494818.0744
        51.0004         45.5004
  -4272217.79446  -3202969.24444  24603354.7034   24603344.0164
        39.0004         24.5004
 -19147982.90548 -14797373.55146  21604084.5004   21604071.9964
        49.2504         40.0004
 -10261713.80146  -7934788.72044  23396930.4924   23396918.3984
        40.7504         26.0004
  -2424097.35946  -1880887.84843  24898746.5554   24898736.0434
        36.0004         20.2504
  -2929295.84246  -2239481.40643  24419436.1254   24419424.9694
        38.2504         20.7504
 07  3 30  0  2 39.0000000  0 11G 5G23G14G31G22G 1G19G11G20G30G25
  -1406613.01846  -1696765.92442  25238259.1804   25238249.0204
        36.0004         16.2504
    211985.42545    264188.55442  25331183.9774   25331171.1174
        33.7504         17.2504
 -19681405.10147 -15303599.87246  21812350.0394   21812337.7704
        45.5004         36.0004
 -22530145.30348 -17524296.82247  20974329.1484   20974316.7624
        50.5004         44.0004
 -10853798.47247  -8443196.93444  23255586.2734   23255573.4144
        45.5004         29.7504
 -25629916.95548 -19952441.81947  20494832.1644   20494820.5984
        51.0004         45.5004
  -4269413.80346  -3200784.32544  24603888.1254   24603877.3204
        39.2504         24.2504
 -19148749.29048 -14797970.73246  21603938.5084   21603926.7074
        49.2504         39.7504
 -10264542.31546  -7936992.76444  23396392.2664   23396379.5274
        40.5004         26.0004
  -2425405.65046  -1881907.30243  24898498.0864   24898487.3984
        36.5004         20.2504
  -2933012.82146  -2242377.78143  24418728.8284   24418717.4964
        38.0004         20.7504
 07  3 30  0  2 40.0000000  0 11G 5G23G14G31G22G 1G19G11G20G30G25
  -1406706.89746  -1696839.10642  25238241.5234   25238230.3094
        36.5004         16.2504
    208980.50845    261847.06442  25330612.2504   25330598.8054
        33.0004         17.2504
 -19679104.60247 -15301807.27845  21812787.5784   21812775.6024
        45.5004         35.7504
 -22531484.54548 -17525340.38747  20974074.3594   20974061.8554
        50.7504         44.0004
 -10851435.32547  -8441355.52344  23256036.0864   23256022.9924
        45.5004         29.2504
 -25629901.60448 -19952429.86147  20494835.2814   20494823.5984
        50.7504         45.5004
  -4266609.61746  -3198599.25544  24604421.9924   24604410.9534
        39.0004         24.5004
 -19149514.86548 -14798567.28946  21603792.9774   21603780.7664
        49.7504         39.7504
 -10267370.53746  -7939196.57144  23395854.0314   23395841.8204
        40.2504         26.0004
  -2426713.39346  -1882926.32843  24898249.7584   24898238.6604
        36.2504         20.2504
  -2936729.55446  -2245273.94743  24418021.5474   24418010.0394
        38.2504         20.7504
 07  3 30  0  2 41.0000000  0 11G 5G23G14G31G22G 1G19G11G20G30G25
  -1406800.46546  -1696912.03042  25238225.5704   25238213.0664
        36.2504         16.7504
    205975.43245    259505.45742  25330040.8984   25330026.9264
        33.5004         17.2504
 -19676804.17247 -15300014.73046  21813225.6334   21813213.1294
        45.5004         36.0004
 -22532823.44148 -17526383.68947  20973819.4774   20973806.9144
        51.0004         43.7504
 -10849072.24647  -8439514.16344  23256485.4924   23256472.6334
        45.0004         29.5004
 -25629886.11148 -19952417.78547  20494838.2194   20494826.5944
        50.7504         45.2504
  -4263805.67946  -3196414.36743  24604954.9614   24604944.8594
        38.7504         23.7504
 -19150280.09348 -14799163.56046  21603647.5474   21603635.1604
        49.5004         40.0004
 -10270199.01146  -7941400.56044  23395315.5394   23395303.6804
        40.5004         25.2504
  -2428020.86346  -1883945.14243  24898000.5944   24897989.4964
        36.0004         20.5004
  -2940446.44646  -2248170.22543  24417314.3364   24417302.8284
        38.0004         21.5004
 07  3 30  0  2 42.0000000  0 11G 5G23G14G31G22G 1G19G11G20G30G25
  -1406893.33946  -1696984.37842  25238207.9774   25238195.5904
        36.5004         16.7504
    202970.68145    257164.07942  25329468.2734   25329455.0634
        34.2504         17.2504
 -19674503.36847 -15298221.89246  21813662.9064   21813650.9304
        45.5004         36.0004
 -22534161.54548 -17527426.36147  20973564.7664   20973552.5554
        50.7504         43.7504
 -10846708.77047  -8437672.49344  23256935.1804   23256922.4414
        45.0004         29.2504
 -25629870.03148 -19952405.25447  20494841.0704   20494829.4454
        50.7504         45.5004
  -4261001.53546  -3194229.31043  24605488.8594   24605477.9384
        38.5004         22.7504
 -19151044.52948 -14799759.23346  21603501.8984   21603489.3364
        49.5004         40.0004
 -10273027.22446  -7943604.34944  23394777.3914   23394765.5314
        40.2504         25.0004
  -2429327.73246  -1884963.46243  24897751.7734   24897740.9694
        36.0004         20.5004
  -2944163.07646  -2251066.30343  24416606.2734   24416595.5864
        38.2504         21.0004
 07  3 30  0  2 43.0000000  0 11G 5G23G14G31G22G 1G19G11G20G30G25
  -1406985.69346  -1697056.35742  25238191.2504   25238177.9224
        36.0004         16.2504
    199966.00845    254822.79342  25328896.6334   25328882.8364
        34.7504         17.2504
 -19672202.48047 -15296428.98945  21814101.3914   21814088.8874
        46.0004         35.7504
 -22535499.12848 -17528468.63247  20973310.2584   20973297.6374
        50.7504         43.7504
 -10844345.19947  -8435830.74544  23257385.0314   23257371.7034
        45.2504         29.5004
 -25629853.67048 -19952392.50647  20494844.0944   20494832.6454
        50.7504         45.2504
  -4258197.49146  -3192044.35643  24606022.6334   24606011.7704
        38.5004         23.5004
 -19151808.48348 -14800354.51946  21603356.7114   21603344.3834
        48.7504         39.7504
 -10275855.48246  -7945808.19444  23394239.5784   23394227.6024
        40.2504         25.2504
  -2430634.18346  -1885981.47543  24897503.4694   24897492.1954
        36.2504         20.2504
  -2947879.76046  -2253962.41343  24415899.6254   24415887.8834
        37.0004         20.7504
 07  3 30  0  2 44.0000000  0 11G 5G23G14G31G22G 1G19G11G20G30G25
  -1407077.63346  -1697127.97042  25238173.2114   25238160.7664
        37.0004         15.5004
    196961.39445    252481.51242  25328325.6024   25328311.3954
        33.5004         17.2504
 -19669901.48747 -15294636.01346  21814539.1884   21814526.5664
        45.5004         36.0004
 -22536836.17348 -17529510.48347  20973055.7194   20973043.4494
        50.2504         43.7504
 -10841981.51147  -8433988.92244  23257834.9694   23257822.1724
        45.0004         29.5004
 -25629837.00448 -19952379.51847  20494846.9534   20494835.9144
        51.0004         45.5004
  -4255393.53146  -3189859.46344  24606556.3594   24606545.6724
        38.5004         24.7504
 -19152571.90748 -14800949.39446  21603211.1564   21603198.5944
        49.0004         39.7504
 -10278683.74546  -7948012.02144  23393701.0394   23393689.3554
        40.0004         24.7504
  -2431940.29846  -1886999.24443  24897253.7274   24897243.8594
        36.0004         20.0004
  -2951596.40946  -2256858.48643  24415192.3914   24415181.1174
        37.5004         20.7504
 07  3 30  0  2 45.0000000  0 11G 5G23G14G31G22G 1G19G11G20G30G25
  -1407169.09146  -1697199.21542  25238155.1414   25238143.4574
        36.0004         15.5004
    193956.67145    250140.20142  25327753.9774   25327739.2424
        34.5004         17.2504
 -19667600.40047 -15292842.96246  21814977.1414   21814964.8134
        46.0004         36.0004
 -22538172.70948 -17530551.94347  20972801.3444   20972789.3674
        50.5004         43.7504
 -10839617.76047  -8432147.03944  23258285.0164   23258271.9224
        45.5004         29.5004
 -25629820.02948 -19952366.29047  20494850.7344   20494839.2274
        50.7504         45.5004
  -4252589.69046  -3187674.65843  24607089.8364   24607079.3244
        38.7504         23.0004
 -19153334.82248 -14801543.88146  21603065.9304   21603053.6024
        49.2504         39.5004
 -10281512.05046  -7950215.89444  23393162.9774   23393151.2934
        40.2504         25.2504
  -2433246.10046  -1888016.74743  24897004.9224   24896995.2304
        36.0004         19.7504
  -2955313.05446  -2259754.55443  24414484.3594   24414473.8484
        37.5004         21.0004
 07  3 30  0  2 46.0000000  0 11G 5G23G14G31G22G 1G19G11G20G30G25
  -1407259.72346  -1697269.83442  25238137.8754   25238126.3674
        36.0004         15.5004
    190952.39145    247799.22442  25327181.7114   25327168.0314
        34.2504         17.2504
 -19665298.90147 -15291049.58646  21815415.0164   21815403.1564
        46.0004         36.2504
 -22539508.41148 -17531592.74847  20972547.1094   20972534.9574
        50.5004         43.7504
 -10837253.55447  -8430304.80845  23258734.9774   23258721.7664
        45.5004         30.2504
 -25629802.44348 -19952352.58947  20494854.1094   20494842.6604
        50.7504         45.5004
  -4249785.57446  -3185489.63444  24607623.1564   24607612.8204
        39.0004         24.2504
 -19154096.90848 -14802137.70746  21602921.1254   21602908.6214
        49.7504         39.7504
 -10284340.09646  -7952419.55944  23392625.1174   23392613.0824
        41.0004         25.7504
  -2434551.20846  -1889033.70143  24896756.9924   24896746.9494
        36.5004         19.7504
  -2959029.44346  -2262650.43443  24413777.6094   24413766.3364
        38.0004         21.5004
 07  3 30  0  2 47.0000000  0 11G 5G23G14G31G22G 1G19G11G20G30G25
  -1407349.93846  -1697340.13442  25238120.2894   25238109.1334
        36.0004         16.2504
    187948.11845    245458.23442  25326609.9144   25326595.8834
        34.0004         17.2504
 -19662997.30847 -15289256.13346  21815852.7274   21815840.6334
        46.0004         36.0004
 -22540843.58648 -17532633.13847  20972293.1334   20972281.0984
        50.7504         43.7504
 -10834889.24647  -8428462.48745  23259184.7114   23259171.3834
        45.5004         30.0004
 -25629784.54548 -19952338.64747  20494857.4064   20494845.9574
        50.7504         45.2504
  -4246981.57946  -3183304.70043  24608157.0164   24608146.4454
        38.5004         23.5004
 -19154858.48648 -14802731.14746  21602776.2114   21602763.9414
        49.5004         39.5004
 -10287168.18546  -7954623.26844  23392086.9614   23392074.6914
        40.7504         25.7504
  -2435855.89146  -1890050.34843  24896510.0474   24896498.8324
        36.5004         19.7504
  -2962745.85546  -2265546.34243  24413070.6884   24413059.7664
        38.2504         21.5004
 07  3 30  0  2 48.0000000  0 11G 5G23G14G31G22G 1G19G11G20G30G25
  -1407439.49046  -1697409.89442  25238102.9534   25238091.7384
        36.2504         16.7504
    184944.02845    243117.40842  25326037.8674   25326024.3054
        33.7504         17.2504
 -19660695.48747 -15287462.50746  21816290.8984   21816278.8634
        45.5004         36.0004
 -22542178.11048 -17533673.02647  20972039.3834   20972027.0554
        51.0004         43.7504
 -10832524.71447  -8426619.99545  23259634.8754   23259621.7814
        45.5004         30.0004
 -25629766.21848 -19952324.36447  20494860.8674   20494849.4184
        51.0004         45.0004
  -4244177.51646  -3181119.70843  24608689.7424   24608679.6994
        38.0004         22.5004
 -19155619.41248 -14803324.07546  21602631.2734   21602619.1214
        49.5004         39.7504
 -10289996.18346  -7956826.86444  23391548.5554   23391536.6374
        41.0004         26.7504
  -2437160.12346  -1891066.64043  24896261.6564   24896250.5594
        36.5004         19.5004
  -2966462.11746  -2268442.12043  24412363.2814   24412352.7704
        38.2504         21.7504
 07  3 30  0  2 49.0000000  0 11G 5G23G14G31G22G 1G19G11G20G30G25
  -1407528.54146  -1697479.28942  25238086.1094   25238074.9534
        36.2504         16.2504
    181939.96745    240776.60742  25325465.2584   25325452.6374
        33.0004         17.2504
 -19658393.50047 -15285668.75546  21816728.8674   21816716.5984
        45.7504         36.0004
 -22543512.07148 -17534712.48447  20971785.2664   20971772.9964
        51.2504         43.7504
 -10830160.01247  -8424777.37145  23260084.8444   23260071.5744
        46.0004         30.5004
 -25629747.53948 -19952309.81047  20494864.5864   20494852.8444
        51.0004         45.2504
  -4241373.50946  -3178934.76843  24609223.9384   24609213.3674
        38.2504         22.5004
 -19156379.78348 -14803916.57146  21602486.5314   21602474.3794
        49.5004         39.7504
 -10292824.12646  -7959030.50144  23391010.2424   23390998.1484
        41.2504         26.2504
  -2438463.95046  -1892082.61643  24896013.3134   24896002.6844
        36.5004         19.2504
  -2970178.34246  -2271337.87443  24411655.5084   24411645.4654
        38.2504         22.0004
 07  3 30  0  2 50.0000000  0 11G 5G23G14G31G22G 1G19G11G20G30G25
  -1407617.02646  -1697548.26742  25238069.5784   25238057.8954
        37.0004         16.7504
    178936.10845    238435.93542  25324896.0084   25324880.6884
        33.0004         17.7504
 -19656091.38847 -15283874.90246  21817167.0944   21817154.8244
        46.2504         36.0004
 -22544845.43048 -17535751.45747  20971531.6024   20971519.5084
        51.0004         43.7504
 -10827795.14347  -8422934.61645  23260534.8594   23260521.8834
        46.0004         30.0004
 -25629728.49348 -19952294.96847  20494868.1724   20494856.8984
        51.0004         45.2504
  -4238569.51946  -3176749.85743  24609757.3984   24609746.7114
        38.5004         22.7504
 -19157139.57348 -14804508.61646  21602342.1334   21602329.6884
        49.7504         40.0004
 -10295652.04346  -7961234.08044  23390472.6254   23390460.4144
        40.5004         26.5004
  -2439767.26346  -1893098.17643  24895765.0474   24895754.6524
        36.5004         19.5004
  -2973894.52546  -2274233.60943  24410948.9534   24410938.7934
        37.5004         22.0004
 07  3 30  0  2 51.0000000  0 11G 5G23G14G31G22G 1G19G11G20G30G25
  -1407705.19246  -1697617.00242  25238053.1724   25238041.6054
        36.7504         16.2504
    175932.07645    236095.10742  25324322.6174   25324309.4654
        32.2504         17.2504
 -19653789.22747 -15282081.01345  21817605.4224   21817593.0944
        46.5004         35.7504
 -22546178.34948 -17536790.09447  20971278.2664   20971265.8794
        51.0004         44.0004
 -10825430.23547  -8421091.83645  23260985.0554   23260972.0784
        45.7504         30.0004
 -25629709.20548 -19952279.93847  20494871.8134   20494860.3634
        51.0004         45.5004
  -4235765.67546  -3174565.04744  24610291.5164   24610280.5354
        38.2504         24.2504
 -19157898.90648 -14805100.30346  21602197.2664   21602185.1134
        50.0004         40.0004
 -10298480.10346  -7963437.76344  23389934.0314   23389921.9964
        40.5004         25.5004
  -2441070.32346  -1894113.52843  24895517.1024   24895506.6484
        36.5004         19.2504
  -2977610.77146  -2277129.37843  24410240.9384   24410231.5394
        38.0004         21.5004
 07  3 30  0  2 52.0000000  0 11G 5G23G14G31G22G 1G19G11G20G30G25
  -1407792.48546  -1697685.01642  25238037.2034   25238025.0514
        36.5004         16.2504
    172928.49945    233754.62942  25323751.5084   25323737.8284
        32.7504         16.7504
 -19651486.61947 -15280286.77045  21818043.8204   21818031.2584
        46.5004         35.5004
 -22547510.40348 -17537828.06147  20971024.4144   20971012.0274
        50.5004         43.7504
 -10823064.90947  -8419248.72645  23261435.2584   23261421.9304
        45.7504         30.5004
 -25629689.28848 -19952264.41347  20494875.6094   20494863.9844
        51.0004         45.5004
  -4232961.57946  -3172380.05043  24610824.3594   24610813.9654
        38.5004         23.0004
 -19158657.39848 -14805691.33346  21602053.3444   21602041.0164
        50.0004         40.0004
 -10301307.82446  -7965641.17544  23389395.5554   23389383.6374
        40.5004         25.2504
  -2442372.72946  -1895128.40143  24895269.8524   24895258.7544
        36.0004         19.0004
  -2981326.70846  -2280024.89143  24409533.5944   24409524.3134
        37.0004         21.5004
 07  3 30  0  2 53.0000000  0 11G 5G23G14G31G22G 1G19G11G20G30G25
  -1407879.35546  -1697752.69942  25238020.9774   25238008.1804
        37.0004         16.2504
    169925.04145    231414.27142  25323180.2894   25323166.3754
        32.7504         16.7504
 -19649183.94347 -15278492.47345  21818481.7344   21818469.8164
        46.5004         35.5004
 -22548841.94048 -17538865.62647  20970771.1724   20970758.7274
        50.2504         44.0004
 -10820699.46347  -8417405.51945  23261885.1954   23261871.9264
        45.5004         30.2504
 -25629669.07948 -19952248.67047  20494879.7114   20494868.0274
        51.0004         45.5004
  -4230157.58746  -3170195.09743  24611358.3134   24611347.3324
        39.0004         22.7504
 -19159415.39648 -14806281.98046  21601909.0864   21601896.6414
        50.0004         40.0004
 -10304135.61146  -7967844.63844  23388858.1954   23388846.3364
        40.2504         25.7504
  -2443674.74246  -1896142.95943  24895021.2344   24895010.6644
        36.0004         18.5004
  -2985042.69746  -2282920.44843  24408827.2584   24408817.1564
        37.7504         21.2504
 07  3 30  0  2 54.0000000  0 11G 5G23G14G31G22G 1G19G11G20G30G25
  -1407965.67046  -1697819.90842  25238004.6334   25237992.4804
        36.7504         16.2504
    166921.50845    229073.88042  25322608.7974   25322594.3554
        32.0004         17.2504
 -19646881.14647 -15276698.08945  21818919.9064   21818907.5204
        46.5004         35.5004
 -22550172.93948 -17539902.76447  20970517.5784   20970505.5434
        50.5004         44.0004
 -10818333.92447  -8415562.23744  23262335.5234   23262322.0204
        45.5004         29.7504
 -25629648.53948 -19952232.66447  20494883.5474   20494871.5704
        51.0004         45.2504
  -4227353.66246  -3168010.21443  24611892.0234   24611880.6914
        38.5004         22.7504
 -19160172.85948 -14806872.21246  21601764.8524   21601752.8164
        50.0004         40.2504
 -10306963.40246  -7970048.10844  23388320.2424   23388307.7974
        40.7504         26.2504
  -2444976.33845  -1897157.17543  24894773.6334   24894763.2384
        35.7504         18.5004
  -2988758.65646  -2285816.01143  24408119.8674   24408109.5314
        38.2504         20.7504
 07  3 30  0  2 55.0000000  0 11G 5G23G14G31G22G 1G19G11G20G30G25
  -1408050.77346  -1697886.19742  25237988.5704   25237976.0664
        36.7504         16.2504
                                  25322037.6334   25322022.7234
        32.0004         16.7504
 -19644577.42747 -15274902.98545  21819358.1724   21819346.1374
        46.7504         35.7504
 -22551502.59648 -17540938.86147  20970264.5634   20970252.4104
        50.5004         43.7504
 -10815967.42747  -8413718.20744  23262785.6024   23262772.2154
        45.7504         29.7504
 -25629626.88148 -19952215.78547  20494887.8674   20494876.2424
        51.0004         45.2504
  -4224549.01646  -3165824.77443  24612425.8284   24612414.6134
        38.7504         22.7504
 -19160928.99048 -14807461.40346  21601621.0944   21601608.4734
        49.7504         40.2504
 -10309790.43446  -7972250.99044  23387781.5314   23387770.0234
        40.5004         25.5004
  -2446276.76546  -1898170.49943  24894526.0314   24894515.4614
        36.0004         18.5004
  -2992473.79246  -2288710.93243  24407413.0864   24407402.6914
        37.2504         20.7504
 07  3 30  0  2 56.0000000  0 11G 5G23G14G31G22G 1G19G11G20G30G25
  -1408135.95246  -1697952.57042  25237972.2974   25237959.9694
        36.5004         16.7504
                                  25321466.4304   25321451.3444
        32.5004         16.7504
 -19642274.25247 -15273108.30545  21819796.6334   21819784.2464
        47.0004         35.7504
 -22552832.34948 -17541975.03147  20970011.5554   20969999.3444
        51.0004         44.0004
 -10813601.45947  -8411874.60545  23263235.6884   23263222.5944
        45.5004         30.2504
 -25629605.54148 -19952199.15947  20494891.6094   20494879.7504
        51.0004         45.2504
  -4221745.08046  -3163639.88643  24612959.3594   24612948.3204
        38.7504         23.0004
 -19161685.22348 -14808050.67946  21601476.8914   21601464.6804
        50.2504         40.2504
 -10312618.09346  -7974454.36744  23387243.7194   23387231.6844
        40.5004         25.0004
  -2447577.53045  -1899184.10243  24894279.3674   24894268.2114
        35.7504         19.0004
  -2996189.61946  -2291606.37143  24406705.7664   24406695.6644
        36.2504         20.5004
 07  3 30  0  2 57.0000000  0 11G 5G23G14G31G22G 1G19G11G20G30G25
  -1408220.58645  -1698018.54542  25237955.0634   25237943.9064
        35.7504         16.2504
                                  25320895.5704   25320879.8984
        32.2504         16.7504
 -19639970.86347 -15271313.45645  21820234.8524   21820222.8754
        46.7504         35.5004
 -22554161.48248 -17543010.71647  20969758.8674   20969746.3634
        51.2504         44.0004
 -10811235.29347  -8410030.84645  23263686.3364   23263672.7154
        45.7504         30.0004
 -25629583.81148 -19952182.22347  20494895.9224   20494884.1214
        51.2504         45.0004
  -4218941.10146  -3161454.97243  24613492.6724   24613481.5744
        38.7504         22.5004
 -19162440.84148 -14808639.47446  21601333.3754   21601320.9884
        50.2504         40.5004
 -10315445.69846  -7976657.68444  23386706.0394   23386693.7114
        41.0004         26.0004
  -2448877.70645  -1900197.20543  24894031.6334   24894021.1804
        35.5004         18.5004
  -2999905.29846  -2294501.71143  24405997.8364   24405988.5554
        36.2504         20.2504
 07  3 30  0  2 58.0000000  0 11G 5G23G14G31G22G 1G19G11G20G30G25
  -1408304.76446  -1698084.11742  25237939.7504   25237927.7734
        36.0004         15.5004
                                  25320323.5084   25320308.4804
        32.7504         16.2504
 -19637667.33947 -15269518.50245  21820673.1254   21820660.7974
        46.5004         35.5004
 -22555490.05048 -17544045.96047  20969506.0704   20969493.5084
        51.2504         44.0004
 -10808868.97647  -8408186.95845  23264136.7424   23264123.2974
        46.0004         30.0004
 -25629561.73148 -19952165.01447  20494899.9614   20494888.1024
        51.0004         45.2504
  -4216137.24746  -3159270.13543  24614026.5314   24614015.1994
        38.7504         22.7504
 -19163195.92148 -14809227.85046  21601189.5474   21601177.4534
        50.0004         40.7504
 -10318273.30146  -7978861.01344  23386167.5084   23386155.5904
        41.5004         27.5004
  -2450177.49346  -1901210.03943  24893783.4614   24893773.5354
        36.2504         18.5004
  -3003620.97846  -2297397.04443  24405290.2894   24405281.0084
        36.0004         20.2504
 07  3 30  0  2 59.0000000  0 11G 5G23G14G31G22G 1G19G11G20G30G25
  -1408388.43545  -1698149.36442  25237923.3834   25237912.0514
        35.5004         15.5004
                                  25319751.9614   25319736.9344
        32.0004         16.2504
 -19635363.76947 -15267723.51945  21821111.1884   21821099.3284
        46.7504         35.5004
 -22556818.13448 -17545080.83547  20969253.3284   20969240.8834
        51.2504         44.0004
 -10806502.57847  -8406343.01445  23264586.7194   23264573.2734
        46.0004         30.5004
 -25629539.38748 -19952147.61247  20494904.0084   20494892.5594
        51.0004         45.2504
  -4213333.44646  -3157085.37843  24614559.8204   24614548.7234
        39.0004         22.5004
 -19163950.53348 -14809815.85846  21601045.9774   21601033.4734
        50.0004         40.7504
 -10321100.95946  -7981064.37644  23385629.9924   23385617.7234
        41.5004         26.2504
  -2451477.04646  -1902222.70343  24893537.7584   24893526.6024
        36.5004         18.5004
  -3007336.70746  -2300292.41143  24404583.0944   24404573.8134
        36.5004         20.0004
 07  3 30  0  3  0.0000000  0 11G 5G23G14G31G22G 1G19G11G20G30G25
  -1408471.21545  -1698213.90842  25237906.2814   25237896.1214
        35.0004         14.7504
                                  25319181.7814   25319165.5824
        32.2504         15.5004
 -19633059.69147 -15265928.12646  21821549.8134   21821538.0124
        46.5004         36.0004
 -22558145.28548 -17546114.97647  20969000.8594   20968988.5314
        51.5004         44.0004
 -10804135.68047  -8404498.67745  23265036.9694   23265023.8164
        46.0004         30.5004
 -25629516.34748 -19952129.65347  20494908.7034   20494896.9024
        51.0004         45.2504
  -4210529.37646  -3154900.38143  24615093.7274   24615081.9844
        39.0004         22.5004
 -19164704.20848 -14810403.14046  21600902.6644   21600890.1604
        50.2504         40.5004
 -10323928.26647  -7983267.47044  23385091.3284   23385079.4694
        42.2504         25.7504
  -2452775.68945  -1903234.64543  24893289.8444   24893278.9224
        35.7504         19.0004
  -3011051.97446  -2303187.42643  24403876.1724   24403866.5984
        36.2504         19.7504
 07  3 30  0  3  1.0000000  0 11G 5G23G14G31G22G 1G19G11G20G30G25
  -1408553.76145  -1698278.23542  25237889.9304   25237880.2384
        34.7504         14.7504
  -1429519.13845  -1014905.84442  25318610.2814   25318594.0234
        33.5004         15.5004
 -19630755.68747 -15264132.79546  21821988.4224   21821976.0354
        45.7504         36.0004
 -22559472.10448 -17547148.86247  20968748.3204   20968735.7584
        51.5004         43.7504
 -10801768.86047  -8402654.40045  23265487.5554   23265474.4614
        45.7504         30.7504
 -25629493.15448 -19952111.58247  20494913.0394   20494901.5904
        51.0004         45.0004
  -4207725.53346  -3152715.55743  24615628.0554   24615615.8444
        39.7504         22.7504
 -19165457.56548 -14810990.17146  21600759.6174   21600746.8794
        50.5004         40.7504
 -10326755.78347  -7985470.73544  23384553.5554   23384541.5784
        42.5004         25.5004
  -2454074.27746  -1904246.51543  24893043.3054   24893032.0904
        36.0004         19.5004
  -3014767.53046  -2306082.67543  24403169.9774   24403159.4654
        36.5004         19.7504
 07  3 30  0  3  2.0000000  0 11G 5G23G14G31G22G 1G19G11G20G30G25
  -1408635.51245  -1698341.93542  25237874.7734   25237864.9654
        35.0004         14.7504
                                  25318038.7734   25318022.8674
        33.0004         15.5004
 -19628451.29947 -15262337.16746  21822427.1564   21822414.9454
        46.0004         36.2504
 -22560798.09348 -17548182.09647  20968496.5554   20968483.9344
        51.2504         43.7504
 -10799401.62447  -8400809.80745  23265937.7664   23265924.7894
        46.0004         30.7504
 -25629469.37548 -19952093.04747  20494917.4384   20494905.6374
        50.7504         45.0004
  -4204921.47346  -3150530.56343  24616161.5704   24616149.3014
        39.0004         22.7504
 -19166210.10648 -14811576.56546  21600616.3754   21600603.5784
        50.2504         41.0004
 -10329583.01447  -7987673.77044  23384015.3754   23384003.3984
        42.5004         27.0004
  -2455372.15745  -1905257.81643  24892795.3134   24892785.0944
        35.7504         19.2504
  -3018482.72146  -2308977.62343  24402463.3134   24402452.2734
        36.5004         19.7504
 07  3 30  0  3  3.0000000  0 11G 5G23G14G31G22G 1G19G11G20G30G25
  -1408716.85145  -1698405.30942  25237859.9224   25237849.1764
        35.0004         13.7504
                                  25317467.0944   25317451.5394
        32.2504         15.5004
 -19626146.89447 -15260541.53146  21822865.5634   21822853.2344
        46.0004         36.0004
 -22562123.64648 -17549214.99047  20968244.1884   20968231.4494
        51.2504         44.0004
 -10797034.36347  -8398965.19045  23266388.2504   23266375.0984
        46.0004         30.2504
 -25629445.37448 -19952074.34347  20494921.8054   20494910.3554
        50.5004         45.2504
  -4202117.59946  -3148345.72443  24616695.1804   24616683.0864
        39.5004         22.7504
 -19166962.21848 -14812162.62746  21600473.3284   21600460.8834
        50.2504         40.5004
 -10332410.38346  -7989876.92044  23383476.9614   23383464.9844
        41.7504         26.2504
  -2456669.78545  -1906268.93243  24892547.8754   24892538.0664
        35.5004         19.0004
  -3022198.03946  -2311872.67643  24401756.0784   24401745.6254
        36.7504         19.7504
 07  3 30  0  3  4.0000000  0 11G 5G23G14G31G22G 1G19G11G20G30G25
  -1408797.56145  -1698468.20642  25237845.2974   25237833.8484
        35.5004         14.7504
                                  25316896.7424   25316879.6644
        32.5004         15.5004
 -19623842.21047 -15258745.68245  21823305.1024   21823291.6564
        46.0004         35.5004
 -22563448.48548 -17550247.33947  20967991.6954   20967979.4264
        51.5004         43.7504
 -10794666.80947  -8397120.33845  23266838.6254   23266826.0044
        45.7504         30.0004
 -25629420.89748 -19952055.27547  20494926.6954   20494915.5984
        50.7504         45.0004
  -4199313.56946  -3146160.83243  24617228.2734   24617216.2384
        40.0004         23.0004
 -19167713.63148 -14812748.14446  21600330.2894   21600317.4924
        50.0004         40.7504
 -10335237.61247  -7992079.95744  23382939.2424   23382926.9734
        42.0004         25.7504
  -2457966.75645  -1907279.58643  24892300.9534   24892291.4964
        35.0004         18.5004
  -3025913.18646  -2314767.60343  24401049.1644   24401038.8284
        36.5004         19.7504
 07  3 30  0  3  5.0000000  0 11G 5G23G14G31G22G 1G19G11G20G30G25
  -1408877.70545  -1698530.61242  25237831.0004   25237818.6724
        35.7504         14.7504
                                  25316325.0004   25316308.5664
        32.2504         15.5004
 -19621537.39047 -15256949.71545  21823742.9064   21823730.0474
        46.2504         35.7504
 -22564772.76848 -17551279.24947  20967739.8914   20967727.4454
        52.0004         43.7504
 -10792299.12947  -8395275.39845  23267289.7034   23267276.0234
        46.2504         30.7504
 -25629396.07148 -19952035.92847  20494931.2344   20494919.6094
        51.0004         45.2504
  -4196509.69446  -3143975.94743  24617761.7034   24617749.7854
        39.7504         22.7504
 -19168464.49648 -14813333.22746  21600187.3134   21600174.8094
        50.0004         40.5004
 -10338064.81347  -7994282.97244  23382402.1644   23382389.3674
        42.0004         25.7504
  -2459263.34845  -1908289.94243  24892053.8674   24892044.5274
        34.7504         18.2504
  -3029628.31646  -2317662.50543  24400341.7894   24400331.6884
        36.7504         19.7504
 07  3 30  0  3  6.0000000  0 11G 5G23G14G31G22G 1G19G11G20G30G25
  -1408957.49245  -1698592.77042  25237815.7584   25237803.0784
        35.7504         14.7504
                                  25315754.2734   25315737.3714
        31.5004         15.5004
 -19619232.48347 -15255153.68245  21824181.5704   21824168.9494
        46.2504         35.5004
 -22566096.53948 -17552310.75847  20967487.7894   20967475.4614
        52.0004         43.5004
 -10789931.31247  -8393430.34545  23267739.9694   23267726.8164
        46.0004         30.2504
 -25629370.96848 -19952016.37147  20494936.1954   20494924.6294
        51.0004         45.2504
  -4193705.88146  -3141791.16443  24618295.8594   24618283.5314
        39.5004         23.0004
 -19169214.86148 -14813917.92746  21600044.6094   21600031.7504
        50.0004         40.5004
 -10340892.09947  -7996486.04344  23381863.3524   23381851.5514
        42.0004         25.2504
  -2460559.67045  -1909300.05243  24891807.1724   24891797.4224
        35.2504         18.2504
  -3033343.51246  -2320557.45443  24399634.7344   24399625.1024
        36.7504         20.0004
 07  3 30  0  3  7.0000000  0 11G 5G23G14G31G22G 1G19G11G20G30G25
  -1409036.59046  -1698654.36242  25237801.5394   25237788.3874
        36.2504         14.7504
  -1447532.71545  -1028942.38042  25315182.2734   25315166.3674
        30.5004         14.7504
 -19616927.35647 -15253357.48645  21824619.7974   21824607.5274
        46.0004         35.5004
 -22567419.65248 -17553341.75247  20967236.0234   20967223.5204
        51.5004         43.7504
 -10787563.31847  -8391585.15745  23268190.6174   23268177.4064
        45.7504         30.2504
 -25629345.42248 -19951996.45947  20494941.0474   20494929.5394
        51.0004         45.0004
  -4190902.01246  -3139606.33643  24618828.0314   24618816.9924
        38.0004         22.5004
 -19169964.57648 -14814502.12046  21599902.1884   21599889.3284
        50.0004         40.5004
 -10343719.24747  -7998689.00244  23381326.2274   23381313.4884
        42.2504         26.5004
  -2461855.33045  -1910309.62843  24891559.9844   24891550.5864
        34.5004         18.5004
  -3037058.49646  -2323452.23743  24398927.6174   24398918.1024
        36.7504         20.7504
 07  3 30  0  3  8.0000000  0 11G 5G23G14G31G22G 1G19G11G20G30G25
  -1409116.10145  -1698716.38442  25237786.9224   25237773.1254
        35.5004         15.5004
  -1450535.59645  -1031282.28842  25314609.7424   25314595.2424
        31.0004         14.7504
 -19614623.00947 -15251561.89245  21825058.6334   21825046.3054
        46.0004         35.5004
 -22568743.13148 -17554373.03947  20966984.0474   20966971.9534
        51.2504         44.0004
 -10785196.06847  -8389740.55945  23268641.2814   23268628.1294
        45.5004         30.0004
 -25629320.44448 -19951977.00147  20494945.5864   20494933.7854
        50.7504         45.2504
  -4188099.12646  -3137422.26243  24619361.7504   24619350.5944
        38.0004         22.5004
 -19170714.66148 -14815086.60346  21599758.7734   21599746.6214
        49.5004         40.5004
 -10346547.30847  -8000892.68344  23380787.4384   23380775.1094
        42.5004         26.7504
  -2463151.71645  -1911319.81043  24891313.0314   24891304.3364
        34.5004         18.5004
  -3040774.42346  -2326347.75843  24398220.7034   24398211.1294
        36.5004         20.5004
 07  3 30  0  3  9.0000000  0 11G 5G23G14G31G22G 1G19G11G20G30G25
  -1409194.01745  -1698777.06442  25237771.4064   25237758.5474
        35.0004         14.7504
  -1453537.28845  -1033621.24142  25314037.4144   25314023.0314
        31.7504         14.7504
 -19612317.43447 -15249765.33845  21825496.8444   21825484.9264
        46.2504         35.2504
 -22570064.93048 -17555403.00847  20966732.5084   20966720.6484
        51.5004         43.7504
 -10782827.57947  -8387894.98245  23269092.0084   23269078.6214
        45.5004         31.0004
 -25629294.04548 -19951956.42747  20494950.8524   20494939.1094
        51.0004         45.2504
  -4185295.18446  -3135237.37343  24619895.8754   24619883.8984
        38.2504         22.5004
 -19171463.08548 -14815669.79146  21599616.7194   21599603.9224
        49.5004         40.5004
 -10349374.28247  -8003095.51944  23380250.1254   23380237.5634
        42.2504         25.5004
  -2464446.43645  -1912328.70443  24891067.1484   24891058.2194
        34.2504         18.5004
  -3044489.22846  -2329242.40143  24397514.0004   24397504.3094
        37.0004         20.2504
 07  3 30  0  3 10.0000000  0 11G 5G23G14G31G22G 1G19G11G20G30G25
  -1409271.42245  -1698837.39342  25237756.0084   25237743.7384
        34.5004         14.7504
  -1456538.91545  -1035960.16742  25313467.2034   25313451.8834
        32.5004         14.7504
 -19610011.72347 -15247968.67645  21825935.7814   21825923.5124
        45.2504         35.7504
 -22571386.17448 -17556432.54747  20966480.8204   20966468.6094
        51.5004         43.5004
 -10780458.92747  -8386049.28145  23269542.5164   23269529.2464
        45.5004         30.0004
 -25629267.28648 -19951935.57747  20494956.0554   20494944.4884
        50.7504         45.5004
  -4182491.27846  -3133052.52343  24620428.8524   24620417.6374
        38.2504         22.5004
 -19172210.95048 -14816252.54146  21599474.3984   21599461.7194
        49.5004         40.5004
 -10352201.22947  -8005298.33144  23379712.4694   23379699.3754
        42.7504         26.2504
  -2465740.77045  -1913337.27543  24890820.7504   24890811.7034
        34.2504         18.5004
  -3048203.96446  -2332136.99943  24396806.5314   24396797.1914
        36.2504         20.0004
 07  3 30  0  3 11.0000000  0 11G 5G23G14G31G22G 1G19G11G20G30G25
  -1409348.45245  -1698897.41242  25237740.2974   25237728.8484
        34.2504         14.7504
  -1459540.61645  -1038299.13442  25312896.4144   25312880.9184
        32.2504         14.7504
 -19607706.05147 -15246172.04745  21826374.2504   21826362.2154
        45.5004         35.5004
 -22572707.03648 -17557461.79247  20966229.5474   20966217.3954
        51.5004         43.7504
 -10778090.32247  -8384203.60945  23269993.0084   23269980.0904
        45.7504         30.0004
 -25629240.37148 -19951914.60347  20494961.1254   20494949.7344
        51.0004         45.5004
  -4179687.59146  -3130867.82843  24620962.9844   24620951.4774
        38.0004         22.0004
 -19172958.44548 -14816835.00546  21599332.3674   21599319.5084
        49.5004         40.5004
 -10355028.37147  -8007501.29844  23379173.8594   23379161.5904
        43.0004         25.2504
  -2467034.90945  -1914345.70043  24890575.0234   24890565.5664
        33.7504         18.5004
  -3051918.89146  -2335031.72743  24396099.0004   24396090.4804
        36.2504         20.2504
 07  3 30  0  3 12.0000000  0 11G 5G23G14G31G22G 1G19G11G20G30G25
  -1409424.69445  -1698956.88042  25237724.4144   25237714.3134
        34.5004         13.7504
  -1462541.95845  -1040637.84342  25312324.4844   25312310.1024
        33.0004         15.5004
 -19605399.93147 -15244375.07145  21826812.8754   21826801.0744
        45.0004         35.7504
 -22574027.02648 -17558490.35347  20965978.2274   20965966.4844
        51.5004         43.5004
 -10775721.26047  -8382357.59045  23270443.7194   23270430.9224
        45.2504         30.0004
 -25629212.81548 -19951893.13047  20494966.3364   20494954.8284
        51.2504         45.5004
  -4176883.66646  -3128682.95843  24621495.3204   24621484.3984
        37.7504         22.2504
 -19173705.10848 -14817416.81746  21599190.5634   21599177.4104
        49.5004         40.5004
 -10357855.21747  -8009704.03544  23378635.0084   23378623.9104
        42.5004         27.0004
  -2468328.29545  -1915353.52343  24890329.2974   24890318.7274
        34.5004         18.5004
  -3055633.46445  -2337926.21043  24395392.8444   24395383.3874
        35.7504         19.7504
 07  3 30  0  3 13.0000000  0 11G 5G23G14G31G22G 1G19G11G20G30G25
  -1409500.29745  -1699015.83942  25237709.1414   25237700.0944
        34.7504         13.7504
  -1465543.15845  -1042976.45442  25311754.1254   25311738.7464
        32.0004         15.5004
 -19603093.56747 -15242577.90645  21827252.2194   21827240.0084
        45.0004         35.5004
 -22575346.32148 -17559518.37547  20965727.7734   20965715.3874
        51.5004         44.0004
 -10773351.95447  -8380511.38345  23270894.8444   23270882.1054
        45.5004         30.2504
 -25629184.78248 -19951871.28947  20494971.6174   20494960.2274
        51.5004         45.5004
  -4174079.67846  -3126498.05143  24622030.2424   24622018.2664
        38.0004         22.2504
 -19174451.05548 -14817998.07346  21599048.3674   21599035.6294
        49.5004         40.5004
 -10360681.91347  -8011906.66244  23378098.2344   23378085.8484
        42.5004         27.2504
  -2469621.18745  -1916360.97043  24890083.7894   24890072.7504
        34.5004         18.5004
  -3059347.87845  -2340820.55543  24394685.1024   24394677.1094
        35.5004         20.0004
 07  3 30  0  3 14.0000000  0 11G 5G23G14G31G22G 1G19G11G20G30G25
  -1409575.57445  -1699074.50642  25237695.1414   25237685.3324
        34.5004         13.7504
  -1468544.46145  -1045315.13142  25311182.8364   25311167.6334
        33.5004         15.5004
 -19600787.21647 -15240780.75345  21827690.9224   21827679.0634
        45.2504         35.5004
 -22576665.23748 -17560546.10347  20965476.6174   20965464.1134
        51.5004         44.0004
 -10770982.64247  -8378665.16745  23271345.7274   23271333.1644
        45.5004         30.2504
 -25629156.59048 -19951849.31547  20494976.9844   20494965.4184
        51.0004         45.2504
  -4171275.84246  -3124313.24643  24622563.6334   24622551.7154
        37.7504         21.7504
 -19175196.63248 -14818579.04346  21598906.3834   21598893.3484
        50.0004         40.5004
 -10363508.77147  -8014109.40244  23377560.1094   23377547.9574
        42.5004         26.7504
  -2470913.83445  -1917368.21443  24889837.4614   24889827.1844
        34.5004         18.2504
  -3063062.41545  -2343715.01743  24393978.8754   24393970.0634
        35.5004         20.0004
 07  3 30  0  3 15.0000000  0 11G 5G23G14G31G22G 1G19G11G20G30G25
  -1409650.29245  -1699132.71142  25237681.9844   25237671.2974
        35.0004         13.7504
  -1471545.56145  -1047653.59342  25310611.6094   25310596.6994
        32.0004         16.2504
 -19598480.72847 -15238983.49145  21828129.7504   21828117.7154
        45.2504         35.5004
 -22577983.55348 -17561573.35947  20965225.5704   20965213.5354
        51.2504         44.0004
 -10768613.15547  -8376818.81145  23271796.7034   23271783.9654
        45.2504         30.0004
 -25629128.01948 -19951827.05947  20494982.2424   20494970.6174
        51.0004         45.0004
  -4168472.10146  -3122128.52243  24623097.5784   24623085.2504
        38.5004         21.2504
 -19175941.65148 -14819159.57646  21598764.4064   21598751.8444
        49.7504         40.5004
 -10366335.61347  -8016312.13344  23377022.4304   23377010.1024
        43.0004         26.7504
  -2472206.05945  -1918375.15043  24889591.3284   24889581.1684
        34.5004         18.2504
  -3066776.92945  -2346609.45243  24393271.8054   24393262.7584
        35.7504         19.5004
 07  3 30  0  3 16.0000000  0 11G 5G23G14G31G22G 1G19G11G20G30G25
  -1409724.38445  -1699190.43242  25237669.6564   25237656.7974
        35.5004         13.7504
  -1474546.50745  -1049991.99042  25310040.3204   25310025.5274
        32.5004         16.2504
 -19596173.98547 -15237186.03045  21828569.0164   21828556.6294
        45.2504         35.7504
 -22579301.19548 -17562600.08747  20964974.9614   20964962.5164
        51.5004         44.0004
 -10766243.44347  -8374972.29144  23272247.6334   23272234.8954
        45.5004         29.7504
 -25629099.01448 -19951804.45647  20494987.8674   20494976.4774
        51.2504         45.2504
  -4165668.28146  -3119943.71843  24623631.4384   24623618.8754
        39.2504         21.0004
 -19176685.98848 -14819739.57946  21598622.6804   21598610.0004
        49.7504         40.5004
 -10369162.33747  -8018514.77644  23376484.6644   23376472.3954
        42.5004         25.5004
  -2473497.75745  -1919381.67142  24889345.6254   24889334.9964
        34.5004         17.7504
  -3070491.26146  -2349503.73943  24392564.9614   24392555.9144
        36.2504         19.7504
 07  3 30  0  3 17.0000000  0 11G 5G23G14G31G22G 1G19G11G20G30G25
  -1409798.01245  -1699247.79842  25237656.8984   25237643.0434
        35.5004         13.7504
  -1477547.43545  -1052330.40942  25309468.5634   25309454.1804
        32.5004         17.2504
 -19593867.14247 -15235388.49446  21829007.5784   21828995.9534
        45.7504         36.0004
 -22580618.31548 -17563626.41047  20964724.2274   20964711.9574
        51.7504         44.0004
 -10763873.61247  -8373125.67345  23272698.3594   23272685.5634
        45.5004         30.5004
 -25629069.70148 -19951781.61147  20494993.4534   20494981.8874
        51.5004         45.2504
  -4162864.56746  -3117759.01043  24624165.9384   24624152.7274
        39.0004         21.2504
 -19177429.82348 -14820319.19846  21598481.4534   21598468.3594
        50.0004         40.7504
 -10371989.09347  -8020717.43444  23375946.7034   23375934.2584
        43.0004         26.5004
  -2474789.07245  -1920387.89243  24889100.0004   24889089.5474
        34.7504         18.2504
  -3074205.65446  -2352398.06043  24391858.5394   24391849.1414
        37.0004         20.2504
 07  3 30  0  3 18.0000000  0 11G 5G23G14G31G22G 1G19G11G20G30G25
  -1409871.06646  -1699304.68542  25237643.1024   25237628.8364
        36.2504         13.7504
  -1480548.18745  -1054668.63142  25308898.0314   25308883.0044
        33.0004         17.2504
 -19591560.07247 -15233590.77645  21829446.6884   21829434.7704
        45.5004         35.2504
 -22581934.77848 -17564652.22947  20964473.8204   20964461.8444
        52.0004         44.0004
 -10761503.55847  -8371278.87345  23273149.4614   23273136.8984
        45.7504         30.0004
 -25629039.95448 -19951758.43147  20494999.0474   20494988.0664
        52.2504         45.2504
  -4160060.81046  -3115574.24643  24624699.2504   24624686.2734
        39.2504         21.5004
 -19178173.00248 -14820898.29646  21598339.8134   21598327.1334
        50.2504         40.5004
 -10374815.75647  -8022920.02744  23375409.0164   23375396.3954
        43.0004         26.5004
  -2476079.88345  -1921393.72043  24888854.2894   24888843.8954
        35.0004         18.2504
  -3077919.92546  -2355292.28243  24391152.3444   24391142.4184
        37.0004         20.0004
 07  3 30  0  3 19.0000000  0 11G 5G23G14G31G22G 1G19G11G20G30G25
  -1409943.46646  -1699361.08242  25237630.5554   25237615.1174
        36.0004         13.7504
  -1483548.75845  -1057006.74642  25308328.0394   25308312.3094
        33.5004         16.7504
 -19589252.77147 -15231792.88145  21829885.4304   21829873.8634
        45.5004         35.5004
 -22583250.57348 -17565677.52447  20964223.4304   20964210.9844
        52.0004         44.2504
 -10759133.22547  -8369431.86545  23273600.5944   23273587.9144
        45.2504         30.5004
 -25629009.76548 -19951734.91047  20495004.8284   20494993.2624
        51.5004         45.2504
  -4157256.97746  -3113389.44143  24625233.0784   24625219.2814
        39.0004         21.5004
 -19178915.53948 -14821476.89946  21598198.6174   21598185.9384
        49.5004         40.0004
 -10377642.28447  -8025122.52444  23374871.0314   23374858.2344
        42.5004         25.0004
  -2477370.22045  -1922399.17142  24888608.6414   24888598.2464
        35.2504         17.2504
  -3081634.03946  -2358186.39643  24390445.1334   24390435.2664
        36.2504         20.2504
 07  3 30  0  3 20.0000000  0 11G 5G23G14G31G22G 1G19G11G20G30G25
  -1410015.39845  -1699417.13742  25237615.8674   25237601.0744
        35.7504         13.7504
  -1486549.43145  -1059344.93742  25307755.8054   25307741.1884
        34.2504         17.2504
 -19586945.39547 -15229994.92945  21830324.9844   21830312.8914
        45.7504         35.5004
 -22584565.86348 -17566702.42347  20963973.2584   20963960.7544
        52.2504         44.0004
 -10756762.81847  -8367584.79245  23274051.4534   23274038.4774
        45.5004         30.5004
 -25628979.28648 -19951711.16147  20495010.7274   20494999.1604
        51.2504         45.5004
  -4154453.25046  -3111204.72843  24625765.6804   24625752.9414
        39.5004         21.7504
 -19179657.57148 -14822055.10746  21598056.9774   21598044.5314
        49.7504         40.0004
 -10380468.87447  -8027325.05644  23374332.6804   23374320.4694
        42.5004         25.0004
  -2478660.15945  -1923404.31242  24888362.8754   24888352.4804
        35.2504         17.7504
  -3085348.23946  -2361080.56843  24389738.2504   24389728.6174
        36.5004         20.2504
 07  3 30  0  3 21.0000000  0 11G 5G23G14G31G22G 1G19G11G20G30G25
  -1410086.74045  -1699472.71442  25237601.0314   25237587.7034
        35.2504         13.7504
  -1489549.80345  -1061682.88442  25307184.7344   25307170.4104
        33.5004         16.7504
 -19584637.76247 -15228196.77345  21830764.4064   21830752.1374
        45.7504         35.0004
 -22585880.47448 -17567726.80047  20963723.3674   20963710.9224
        52.2504         44.0004
 -10754392.15747  -8365737.53045  23274503.0394   23274489.8874
        45.7504         30.5004
 -25628948.36748 -19951687.07047  20495016.7974   20495005.3484
        51.0004         45.5004
  -4151649.48146  -3109019.97043  24626299.3984   24626286.6604
        39.0004         21.7504
 -19180398.95348 -14822632.80046  21597915.9614   21597903.6914
        50.0004         40.0004
 -10383295.36447  -8029527.52244  23373794.7274   23373782.2234
        42.2504         25.7504
  -2479949.63845  -1924409.09942  24888118.9694   24888107.1094
        35.0004         17.7504
  -3089062.22046  -2363974.58943  24389031.9144   24389022.2814
        36.5004         19.7504
 07  3 30  0  3 22.0000000  0 11G 5G23G14G31G22G 1G19G11G20G30G25
  -1410157.72745  -1699528.04442  25237586.9534   25237573.9774
        35.0004         13.7504
  -1492550.33645  -1064020.98742  25306613.8834   25306599.3244
        34.0004         16.7504
 -19582330.18347 -15226398.65545  21831203.5554   21831190.9924
        46.0004         35.5004
 -22587194.71448 -17568750.88447  20963473.0164   20963460.9224
        52.0004         44.2504
 -10752021.55247  -8363890.31145  23274954.1174   23274941.1994
        45.5004         31.0004
 -25628917.29948 -19951662.85747  20495022.4064   20495010.6644
        51.0004         45.5004
  -4148845.94946  -3106835.42243  24626832.9304   24626820.3094
        38.5004         21.7504
 -19181139.96648 -14823210.21646  21597775.0004   21597762.4384
        50.0004         40.5004
 -10386122.02647  -8031730.11044  23373256.2664   23373244.4064
        42.5004         26.0004
  -2481238.80745  -1925413.64843  24887873.5004   24887861.8164
        35.2504         18.5004
  -3092776.44046  -2366868.77343  24388325.2504   24388315.0314
        36.7504         20.0004
 07  3 30  0  3 23.0000000  0 11G 5G23G14G31G22G 1G19G11G20G30G25
  -1410227.88445  -1699582.72742  25237572.0864   25237560.8714
        34.2504         14.7504
  -1495550.41445  -1066358.68542  25306042.9534   25306028.5704
        34.2504         16.2504
 -19580022.10847 -15224600.15145  21831642.6484   21831630.3794
        46.2504         35.5004
 -22588508.02348 -17569774.24247  20963223.2584   20963210.6954
        51.7504         44.5004
 -10749650.40947  -8362042.67545  23275405.2114   23275392.3524
        45.7504         30.7504
 -25628885.51148 -19951638.08747  20495028.7194   20495016.6844
        51.5004         45.5004
  -4146042.12046  -3104650.61543  24627366.0004   24627353.6134
        38.7504         21.7504
 -19181880.04548 -14823786.90346  21597633.9924   21597621.1954
        49.7504         40.5004
 -10388948.30747  -8033932.40944  23372718.3914   23372706.4734
        42.5004         25.5004
  -2482527.22645  -1926417.63143  24887627.6484   24887616.0824
        35.0004         18.2504
  -3096490.19446  -2369762.61243  24387617.7814   24387608.7344
        37.0004         20.0004
 07  3 30  0  3 24.0000000  0 11G 5G23G14G31G22G 1G19G11G20G30G25
  -1410297.69945  -1699637.08242  25237557.7894   25237547.3364
        33.7504         14.7504
  -1498550.58745  -1068696.46842  25305470.9454   25305457.3244
        34.0004         16.7504
 -19577714.10747 -15222801.71045  21832081.7344   21832069.3484
        46.0004         35.2504
 -22589820.96348 -17570797.31547  20962973.2194   20962960.9494
        52.0004         44.5004
 -10747279.35147  -8360195.09745  23275856.5554   23275843.5204
        46.0004         30.7504
 -25628853.59248 -19951613.21247  20495034.6644   20495023.1564
        51.5004         45.5004
  -4143238.52246  -3102465.99443  24627900.0704   24627886.8594
        38.5004         22.0004
 -19182619.78648 -14824363.32046  21597493.6254   21597480.8874
        50.0004         40.5004
 -10391774.78947  -8036134.86144  23372181.1254   23372168.7384
        43.0004         24.5004
  -2483815.47845  -1927421.46243  24887382.5704   24887371.8244
        35.5004         19.0004
  -3100204.13246  -2372656.59043  24386912.0314   24386902.2814
        36.2504         19.5004
 07  3 30  0  3 25.0000000  0 11G 5G23G14G31G22G 1G19G11G20G30G25
  -1410366.57145  -1699690.80442  25237543.8134   25237533.8284
        33.5004         14.7504
  -1501550.35345  -1071033.96742  25304900.3524   25304886.9064
        34.5004         16.7504
 -19575405.58647 -15221002.86345  21832521.2424   21832509.0314
        46.2504         35.5004
 -22591132.95948 -17571819.64747  20962723.5634   20962711.5864
        52.0004         44.5004
 -10744907.74047  -8358347.08244  23276307.7194   23276294.9804
        46.5004         29.7504
 -25628820.92148 -19951587.75547  20495041.0634   20495029.6724
        51.5004         45.5004
  -4140434.57246  -3100281.08543  24628433.4774   24628420.8554
        38.2504         21.5004
 -19183358.55648 -14824938.98846  21597352.8674   21597340.1884
        50.0004         40.5004
 -10394600.88347  -8038337.01244  23371643.0864   23371630.5824
        42.5004         26.0004
  -2485102.95945  -1928424.69243  24887139.4924   24887126.4574
        34.5004         18.5004
  -3103917.65246  -2375550.23743  24386204.7814   24386195.6174
        36.7504         20.0004
 07  3 30  0  3 26.0000000  0 11G 5G23G14G31G22G 1G19G11G20G30G25
  -1410435.28845  -1699744.34342  25237531.1174   25237520.8404
        33.5004         13.7504
  -1504550.28345  -1073371.57242  25304329.8204   25304315.4384
        33.5004         16.7504
 -19573097.19147 -15219204.11445  21832960.5474   21832948.1024
        46.2504         35.2504
 -22592444.66748 -17572841.75647  20962474.0084   20962461.6214
        51.7504         44.5004
 -10742536.25847  -8356499.17744  23276758.5084   23276746.1804
        46.0004         29.5004
 -25628788.21648 -19951562.27447  20495047.3594   20495035.5594
        52.0004         45.5004
  -4137630.95046  -3098096.44943  24628965.9534   24628954.2704
        37.5004         21.2504
 -19184097.08948 -14825514.46446  21597212.6254   21597199.5904
        50.5004         40.5004
 -10397427.25547  -8040539.37544  23371104.9534   23371092.9774
        42.5004         25.5004
  -2486390.24245  -1929427.75843  24886893.1644   24886881.5984
        35.0004         18.5004
  -3107631.42546  -2378444.07643  24385498.4454   24385488.6954
        36.2504         20.7504
 07  3 30  0  3 27.0000000  0 11G 5G23G14G31G22G 1G19G11G20G30G25
  -1410503.31345  -1699797.33342  25237517.7584   25237507.8324
        33.5004         13.7504
  -1507550.07345  -1075709.07742  25303757.8914   25303744.5634
        33.5004         16.2504
 -19570788.56147 -15217405.18745  21833399.5084   21833387.2974
        46.5004         35.2504
 -22593755.68848 -17573863.32747  20962224.5394   20962212.1524
        51.7504         44.5004
 -10740164.51947  -8354651.07044  23277210.2814   23277197.1884
        46.0004         29.5004
 -25628755.04248 -19951536.42147  20495053.6804   20495041.9384
        52.0004         45.7504
  -4134827.29046  -3095911.78443  24629499.1334   24629488.0354
        38.0004         21.2504
 -19184834.91848 -14826089.39946  21597071.8754   21597059.3714
        50.5004         40.7504
 -10400253.48247  -8042741.63344  23370567.3914   23370554.9454
        42.5004         25.7504
  -2487677.01345  -1930430.42443  24886648.3674   24886636.6844
        35.0004         19.0004
  -3111345.02746  -2381337.78843  24384791.6094   24384782.2114
        36.0004         20.2504
 07  3 30  0  3 28.0000000  0 11G 5G23G14G31G22G 1G19G11G20G30G25
  -1410570.64145  -1699849.78042  25237507.1484   25237494.9384
        33.2504         13.7504
  -1510549.60345  -1078046.35142  25303187.5004   25303173.7624
        34.2504         16.2504
 -19568479.58247 -15215605.98245  21833838.9224   21833827.0044
        44.7504         35.2504
 -22595065.98848 -17574884.33647  20961975.1564   20961963.0634
        51.2504         44.5004
 -10737792.47747  -8352802.72844  23277661.5394   23277648.4454
        46.2504         29.7504
 -25628721.35948 -19951510.17647  20495060.0474   20495048.2464
        52.2504         45.5004
  -4132023.50646  -3093726.99043  24630033.5864   24630021.5514
        37.7504         21.5004
 -19185572.06248 -14826663.79846  21596932.0704   21596918.7424
        50.0004         40.5004
 -10403079.55547  -8044943.77844  23370029.4144   23370017.3204
        42.5004         25.7504
  -2488963.24245  -1931432.67143  24886404.4224   24886392.2114
        35.5004         19.0004
  -3115058.51045  -2384231.39043  24384084.7734   24384075.1414
        35.5004         20.5004
 07  3 30  0  3 29.0000000  0 11G 5G23G14G31G22G 1G19G11G20G30G25
  -1410637.56945  -1699901.91742  25237494.9384   25237482.2584
        33.5004         14.7504
  -1513549.10745  -1080383.62842  25302617.2114   25302603.2974
        34.2504         17.2504
 -19566170.57647 -15213806.75445  21834278.2974   21834266.3204
        45.0004         35.7504
 -22596375.77848 -17575904.95747  20961725.9844   20961713.1254
        51.5004         44.5004
 -10735420.33247  -8350954.29644  23278112.8204   23278099.9614
        46.2504         29.2504
 -25628687.38848 -19951483.70047  20495066.5234   20495054.8984
        52.2504         45.5004
  -4129219.79846  -3091542.28943  24630566.7584   24630554.9574
        37.2504         21.5004
 -19186308.66548 -14827237.77546  21596791.7584   21596778.9614
        50.2504         40.5004
 -10405905.67347  -8047145.94244  23369491.1804   23369479.7304
        42.7504         26.5004
  -2490249.10745  -1932434.62843  24886159.5004   24886147.4654
        35.7504         18.5004
  -3118771.96745  -2387124.98343  24383377.7344   24383369.0394
        35.5004         20.2504
 07  3 30  0  3 30.0000000  0 11G 5G23G14G31G22G 1G19G11G20G30G25
  -1410703.89145  -1699953.57642  25237482.8204   25237469.6684
        34.0004         15.5004
  -1516548.51545  -1082720.82142  25302046.5084   25302032.5354
        34.5004         17.2504
 -19563861.34147 -15212007.34745  21834717.9614   21834705.6334
        44.7504         35.2504
 -22597684.93648 -17576925.08047  20961476.8134   20961464.1914
        51.5004         44.5004
 -10733047.97547  -8349105.71444  23278564.7584   23278551.1954
        45.7504         29.5004
 -25628653.00348 -19951456.90647  20495073.0004   20495061.3164
        52.0004         45.5004
  -4126416.07946  -3089357.57443  24631099.4924   24631088.3954
        37.5004         21.5004
 -19187044.68248 -14827811.29346  21596651.7664   21596638.6134
        50.0004         40.5004
 -10408731.71747  -8049348.04644  23368953.7734   23368941.7974
        43.0004         25.7504
  -2491534.45645  -1933436.19343  24885915.2114   24885902.8834
        35.7504         18.2504
  -3122485.29645  -2390018.46543  24382671.1804   24382662.1914
        35.7504         20.0004
 07  3 30  0  3 31.0000000  0 11G 5G23G14G31G22G 1G19G11G20G30G25
  -1410769.71645  -1700004.87242  25237469.5394   25237457.9144
        33.7504         14.7504
  -1519547.69445  -1085057.83142  25301476.5944   25301461.5664
        34.7504         16.7504
 -19561552.00447 -15210207.86645  21835157.3674   21835144.9804
        44.7504         35.5004
 -22598993.51848 -17577944.75147  20961227.6804   20961215.5274
        51.2504         44.5004
 -10730675.49347  -8347257.03045  23279015.5634   23279002.5864
        45.5004         30.0004
 -25628618.28648 -19951429.85447  20495079.4694   20495067.8444
        52.2504         45.2504
  -4123612.41746  -3087172.91343  24631632.9614   24631621.8634
        37.5004         21.0004
 -19187780.12148 -14828384.35846  21596511.6564   21596499.0354
        50.0004         40.5004
 -10411557.74847  -8051550.13844  23368416.2584   23368403.8714
        43.2504         25.2504
  -2492819.37046  -1934437.40243  24885670.7424   24885657.9454
        36.0004         18.2504
  -3126198.61245  -2392911.95543  24381964.2344   24381955.5394
        35.2504         20.2504
 07  3 30  0  3 32.0000000  0 11G 5G23G14G31G22G 1G19G11G20G30G25
  -1410835.09245  -1700055.85142  25237456.9774   25237445.3524
        34.2504         14.7504
  -1522547.05845  -1087395.00842  25300906.3204   25300890.9414
        34.5004         17.7504
 -19559242.57747 -15208408.31545  21835596.5474   21835584.8634
        44.7504         35.0004
 -22600301.63648 -17578964.06947  20960978.6174   20960966.6414
        51.5004         44.5004
 -10728302.93047  -8345408.28444  23279467.2504   23279454.0984
        45.5004         29.0004
 -25628583.31448 -19951402.60747  20495086.0784   20495074.3954
        52.5004         45.2504
  -4120808.88946  -3084988.35843  24632166.7894   24632155.6334
        37.2504         20.7504
 -19188515.12648 -14828957.09146  21596371.6254   21596359.0634
        49.2504         40.2504
 -10414383.85047  -8053752.29644  23367878.7814   23367866.2774
        43.0004         26.0004
  -2494104.03546  -1935438.46343  24885427.3834   24885414.1724
        36.0004         18.5004
  -3129912.02645  -2395805.52343  24381258.1334   24381248.9694
        35.5004         19.7504
 07  3 30  0  3 33.0000000  0 11G 5G23G14G31G22G 1G19G11G20G30G25
  -1410899.72745  -1700106.25042  25237444.6174   25237432.8754
        34.0004         14.7504
  -1525546.00345  -1089731.85942  25300335.2974   25300320.4454
        33.5004         17.7504
 -19556932.79847 -15206608.48445  21836036.3594   21836024.0904
        45.0004         35.0004
 -22601608.94648 -17579982.74147  20960730.0554   20960717.7274
        51.7504         44.2504
 -10725929.98347  -8343559.23845  23279918.8284   23279905.9104
        45.5004         30.2504
 -25628547.74548 -19951374.88947  20495092.9144   20495081.5234
        52.7504         45.5004
  -4118005.20846  -3082803.68143  24632699.8134   24632688.9494
        37.0004         20.5004
 -19189249.29848 -14829529.17346  21596231.9534   21596219.2154
        49.7504         40.5004
 -10417209.71447  -8055954.26844  23367340.3284   23367328.1764
        42.7504         25.7504
  -2495388.02546  -1936438.99443  24885182.4224   24885169.9774
        36.0004         19.0004
  -3133625.12045  -2398698.84243  24380551.7034   24380541.9534
        35.5004         19.7504
 07  3 30  0  3 34.0000000  0 11G 5G23G14G31G22G 1G19G11G20G30G25
  -1410963.80645  -1700156.14542  25237432.4534   25237420.4184
        34.5004         14.7504
  -1528544.87145  -1092068.64842  25299764.5554   25299749.5274
        34.5004         17.2504
 -19554622.82447 -15204808.50945  21836475.8594   21836464.1764
        44.5004         35.0004
 -22602915.64248 -17581000.94847  20960481.3674   20960468.9804
        51.7504         44.0004
 -10723556.85347  -8341710.04444  23280370.8984   23280357.4534
        45.2504         29.7504
 -25628511.80948 -19951346.88547  20495099.8914   20495088.2664
        52.7504         45.5004
  -4115201.50446  -3080618.95143  24633232.8364   24633222.6174
        37.2504         20.7504
 -19189982.90548 -14830100.81446  21596092.7274   21596080.0474
        49.7504         40.5004
 -10420035.53147  -8058156.20944  23366803.0704   23366790.8014
        42.0004         26.7504
  -2496671.56546  -1937439.15443  24884937.6254   24884925.6484
        36.7504         18.5004
  -3137338.16346  -2401592.11943  24379845.0164   24379835.1484
        36.2504         19.5004
 07  3 30  0  3 35.0000000  0 11G 5G23G14G31G22G 1G19G11G20G30G25
  -1411027.43545  -1700205.78942  25237420.3204   25237408.3444
        33.2504         14.7504
  -1531543.79645  -1094405.45642  25299192.7974   25299178.8834
        34.2504         17.2504
 -19552312.83747 -15203008.52645  21836915.4064   21836903.6644
        44.5004         35.2504
 -22604221.88448 -17582018.79947  20960232.9534   20960220.5664
        52.0004         44.0004
 -10721183.68647  -8339860.83144  23280822.3054   23280809.0944
        45.5004         29.7504
 -25628475.63848 -19951318.69847  20495106.7274   20495095.1024
        52.5004         45.5004
  -4112397.93646  -3078434.34343  24633766.0944   24633755.9924
        37.0004         21.2504
 -19190716.03448 -14830672.08746  21595952.9614   21595940.2814
        49.7504         40.5004
 -10422861.42947  -8060358.20844  23366265.2814   23366252.8954
        42.5004         26.0004
  -2497954.77546  -1938439.03743  24884693.4924   24884681.6334
        37.0004         18.5004
  -3141051.25946  -2404485.46243  24379138.6804   24379128.5204
        36.5004         19.5004
 07  3 30  0  3 36.0000000  0 11G 5G23G14G31G22G 1G19G11G20G30G25
  -1411090.42545  -1700254.83642  25237408.5784   25237396.5434
        33.5004         15.5004
  -1534542.42945  -1096742.01842  25298622.0784   25298608.1644
        34.0004         16.7504
 -19550002.56347 -15201208.30845  21837355.2424   21837343.0314
        44.5004         35.0004
 -22605527.41648 -17583036.09647  20959984.3054   20959971.8014
        52.5004         44.0004
 -10718810.23247  -8338011.38644  23281273.9454   23281260.4414
        45.7504         29.0004
 -25628438.98348 -19951290.13647  20495113.9614   20495102.1604
        52.7504         45.5004
  -4109594.32146  -3076249.72043  24634300.0394   24634289.5864
        37.0004         21.2504
 -19191448.49248 -14831242.83346  21595813.2664   21595800.8794
        49.5004         40.5004
 -10425687.20347  -8062560.11044  23365727.6644   23365715.2194
        43.0004         26.2504
  -2499237.43646  -1939438.50943  24884449.6334   24884437.0704
        37.2504         18.5004
  -3144764.22446  -2407378.70743  24378431.8834   24378421.6054
        36.5004         19.2504
 07  3 30  0  3 37.0000000  0 11G 5G23G14G31G22G 1G19G11G20G30G25
  -1411152.92245  -1700303.43042  25237396.4144   25237384.3204
        33.0004         14.7504
  -1537541.07345  -1099078.60342  25298051.4614   25298037.8404
        33.0004         16.2504
 -19547692.13947 -15199407.97745  21837794.6334   21837783.1844
        44.7504         34.7504
 -22606832.36148 -17584052.93547  20959735.8204   20959723.6684
        52.2504         44.0004
 -10716436.57047  -8336161.78244  23281725.3054   23281712.2704
        45.7504         29.7504
 -25628401.94548 -19951261.27747  20495120.4844   20495109.1524
        52.7504         45.7504
  -4106790.67946  -3074065.07743  24634833.2194   24634822.4144
        36.7504         21.5004
 -19192180.34848 -14831813.10746  21595673.9774   21595661.8834
        49.0004         40.2504
 -10428512.92547  -8064761.96144  23365189.5314   23365177.3794
        43.0004         26.5004
  -2500519.69846  -1940437.67743  24884205.5704   24884194.0634
        37.2504         18.5004
  -3148477.09546  -2410271.86643  24377725.6174   24377715.2814
        37.0004         19.0004
 07  3 30  0  3 38.0000000  0 11G 5G23G14G31G22G 1G19G11G20G30G25
  -1411214.78245  -1700351.65942  25237384.6334   25237372.5394
        32.2504         16.2504
  -1540539.49445  -1101415.05742  25297479.9224   25297466.8284
        33.5004         16.7504
 -19545381.53547 -15197607.51145  21838234.4064   21838222.6054
        45.0004         34.7504
 -22608136.69748 -17585069.30047  20959487.8524   20959475.7584
        52.0004         44.0004
 -10714062.76747  -8334312.05845  23282176.8444   23282163.9844
        45.2504         30.2504
 -25628364.53648 -19951232.12647  20495127.8754   20495116.0164
        52.7504         45.5004
  -4103987.08746  -3071880.46243  24635366.3284   24635355.9344
        36.5004         21.2504
 -19192911.61048 -14832382.92546  21595534.9924   21595522.7234
        49.2504         40.2504
 -10431338.58447  -8066963.77144  23364652.1334   23364639.5704
        43.0004         27.5004
  -2501801.48046  -1941436.49943  24883961.7114   24883949.4414
        37.0004         18.5004
  -3152189.87546  -2413164.94543  24377019.5944   24377008.6134
        37.5004         19.0004
 07  3 30  0  3 39.0000000  0 11G 5G23G14G31G22G 1G19G11G20G30G25
  -1411276.16045  -1700399.47842  25237372.2664   25237361.1684
        33.2504         16.2504
  -1543537.79745  -1103751.40342  25296909.1094   25296896.5474
        33.5004         16.2504
 -19543070.77047 -15195806.91845  21838674.1644   21838662.3634
        45.0004         34.5004
 -22609440.41948 -17586085.18547  20959240.0634   20959227.4414
        52.2504         44.0004
 -10711688.76047  -8332462.18445  23282628.8204   23282615.7854
        45.5004         30.0004
 -25628326.74248 -19951202.67647  20495135.0474   20495123.5984
        52.7504         45.5004
  -4101183.49846  -3069695.85443  24635899.6954   24635889.4184
        36.5004         21.2504
 -19193642.30048 -14832952.29546  21595395.7584   21595383.3714
        49.0004         40.0004
 -10434164.22847  -8069165.57044  23364114.1954   23364102.2194
        43.2504         27.5004
  -2503082.82246  -1942434.94743  24883716.8204   24883705.4884
        37.0004         18.5004
  -3155902.58846  -2416057.97543  24376313.7114   24376302.4964
        37.5004         19.2504
 07  3 30  0  3 40.0000000  0 11G 5G23G14G31G22G 1G19G11G20G30G25
  -1411336.84545  -1700446.82242  25237360.4454   25237349.1134
        33.5004         16.2504
  -1546536.02445  -1106087.67242  25296339.8984   25296325.7504
        34.0004         15.5004
 -19540759.75347 -15194006.12645  21839114.2584   21839102.3984
        45.5004         35.0004
 -22610743.48948 -17587100.56447  20958992.1094   20958979.6644
        52.7504         44.0004
 -10709314.50847  -8330612.11145  23283080.7584   23283067.6644
        45.5004         30.0004
 -25628288.50548 -19951172.88447  20495142.3054   20495130.6804
        53.0004         45.5004
  -4098379.85646  -3067511.19143  24636433.3594   24636422.8484
        36.5004         21.7504
 -19194372.30948 -14833521.13146  21595257.1414   21595244.8134
        49.0004         39.7504
 -10436989.73947  -8071367.27344  23363576.9534   23363564.6254
        43.2504         26.2504
  -2504363.60046  -1943432.93143  24883472.2974   24883461.6684
        37.0004         18.2504
  -3159615.16646  -2418950.89643  24375606.0474   24375595.7704
        37.5004         19.5004
 07  3 30  0  3 41.0000000  0 11G 5G23G14G31G22G 1G19G11G20G30G25
  -1411397.06245  -1700493.79542  25237349.3364   25237337.5944
        33.5004         15.5004
  -1549534.12745  -1108423.83942  25295769.0944   25295755.1804
        34.2504         16.2504
 -19538448.64347 -15192205.25645  21839553.6804   21839541.9964
        45.7504         35.0004
 -22612046.00748 -17588115.50947  20958744.3594   20958732.0314
        53.0004         44.0004
 -10706940.14547  -8328761.96344  23283532.3754   23283519.6954
        45.5004         29.5004
 -25628249.96848 -19951142.86047  20495149.3984   20495137.9494
        52.5004         45.5004
  -4095576.27846  -3065326.57943  24636967.6724   24636956.7504
        36.7504         21.5004
 -19195101.81948 -14834089.58046  21595117.7894   21595105.6954
        49.5004         40.0004
 -10439815.29147  -8073568.99144  23363038.6884   23363026.9454
        43.5004         27.0004
  -2505644.07946  -1944430.70843  24883229.8754   24883217.6054
        36.5004         18.5004
  -3163327.78046  -2421843.84043  24374899.5784   24374889.8874
        37.0004         19.5004
 07  3 30  0  3 42.0000000  0 11G 5G23G14G31G22G 1G19G11G20G30G25
  -1411456.81445  -1700540.34042  25237337.1414   25237326.6884
        33.5004         16.2504
  -1552532.22145  -1110760.01242  25295198.5314   25295185.2624
        34.7504         16.2504
 -19536137.38147 -15190404.27445  21839993.3594   21839981.6764
        46.2504         35.2504
 -22613347.96148 -17589130.02647  20958496.6484   20958484.2624
        52.5004         44.2504
 -10704565.62047  -8326911.68144  23283984.6724   23283971.0514
        45.5004         29.5004
 -25628211.07648 -19951112.55047  20495157.2194   20495145.1254
        52.7504         45.5004
  -4092772.73546  -3063141.99243  24637502.0164   24637489.9804
        37.2504         21.5004
 -19195830.75048 -14834657.57746  21594979.3444   21594967.0744
        49.5004         39.7504
 -10442640.80447  -8075770.69544  23362501.2734   23362489.1214
        43.5004         26.7504
  -2506924.09946  -1945428.12343  24882986.0554   24882974.0784
        36.5004         18.5004
  -3167040.34746  -2424736.72743  24374193.0164   24374183.5004
        36.0004         19.2504
 07  3 30  0  3 43.0000000  0 11G 5G23G14G31G22G 1G19G11G20G30G25
  -1411515.94345  -1700586.39042  25237325.5784   25237315.3014
        33.5004         16.2504
  -1555530.05645  -1113096.00342  25294628.6884   25294614.4224
        35.5004         16.2504
 -19533825.89047 -15188603.11445  21840433.4064   21840421.6644
        45.2504         35.5004
 -22614649.24648 -17590144.00547  20958248.9064   20958236.2274
        52.2504         44.2504
 -10702190.82147  -8325061.19344  23284436.1564   23284423.2384
        46.0004         29.5004
 -25628171.72548 -19951081.88947  20495164.5474   20495153.0394
        52.7504         45.5004
  -4089969.15446  -3060957.38343  24638035.0474   24638023.7734
        37.5004         22.0004
 -19196559.03148 -14835225.06946  21594840.6024   21594828.5084
        49.2504         39.7504
 -10445466.21747  -8077972.31044  23361963.8444   23361951.3984
        43.7504         26.7504
  -2508203.64246  -1946425.16243  24882741.9304   24882730.8324
        36.5004         18.5004
  -3170752.69745  -2427629.45243  24373486.8444   24373476.8594
        35.2504         19.2504
 07  3 30  0  3 44.0000000  0 11G 5G23G14G31G22G 1G19G11G20G30G25
  -1411574.34145  -1700631.86642  25237314.0314   25237304.1644
        33.5004         16.2504
  -1558527.76245  -1115431.86942  25294057.6564   25294044.5634
        35.0004         15.5004
 -19531514.15747 -15186801.76445  21840873.7424   21840861.4144
        45.0004         35.2504
 -22615949.84748 -17591157.46647  20958001.5944   20957989.0314
        52.0004         44.2504
 -10699815.80747  -8323210.53844  23284887.6724   23284875.4614
        46.0004         29.2504
 -25628131.93648 -19951050.88147  20495172.2424   20495160.2664
        53.0004         45.5004
  -4087165.52346  -3058772.74043  24638567.7584   24638557.1294
        37.2504         22.0004
 -19197286.63648 -14835792.04146  21594702.3364   21594690.2424
        48.7504         39.7504
 -10448291.49847  -8080173.82144  23361426.4924   23361414.2814
        44.0004         25.5004
  -2509482.58746  -1947421.72843  24882498.4454   24882487.9344
        37.0004         18.5004
  -3174464.99745  -2430522.15043  24372780.2584   24372770.7424
        35.2504         19.5004
 07  3 30  0  3 45.0000000  0 11G 5G23G14G31G22G 1G19G11G20G30G25
  -1411632.41045  -1700677.10742  25237303.2974   25237292.9024
        34.0004         16.7504
  -1561525.46345  -1117767.75342  25293487.7814   25293473.9264
        35.0004         16.2504
 -19529202.37147 -15185000.37745  21841313.0864   21841301.2274
        45.2504         35.2504
 -22617249.98248 -17592170.55447  20957753.8754   20957741.6644
        52.0004         44.2504
 -10697440.70947  -8321359.81044  23285339.9694   23285327.0514
        45.2504         29.0004
 -25628091.88848 -19951019.67747  20495179.9614   20495167.9844
        53.0004         45.2504
  -4084362.03946  -3056588.22043  24639101.8364   24639090.2114
        37.2504         22.0004
 -19198013.80348 -14836358.66146  21594563.8594   21594551.5904
        49.0004         40.0004
 -10451116.87447  -8082375.42144  23360888.2114   23360876.0594
        43.7504         26.2504
  -2510761.23746  -1948418.07743  24882255.3674   24882243.9774
        36.7504         18.5004
  -3178177.26345  -2433414.80843  24372073.2894   24372064.1254
        35.7504         19.0004
 07  3 30  0  3 46.0000000  0 11G 5G23G14G31G22G 1G19G11G20G30G25
  -1411689.98845  -1700721.94942  25237292.7344   25237281.9304
        33.5004         16.7504
  -1564523.07945  -1120103.57542  25292917.7114   25292903.6214
        35.5004         16.2504
 -19526890.46647 -15183198.89545  21841753.2734   21841741.2974
        45.0004         35.0004
 -22618549.54048 -17593183.19647  20957506.4384   20957494.0514
        51.5004         44.0004
 -10695065.47547  -8319508.98544  23285791.8204   23285779.2584
        45.0004         28.5004
 -25628051.51248 -19950988.21847  20495187.6804   20495175.9964
        53.2504         45.5004
  -4081558.61046  -3054403.71543  24639634.7194   24639623.6214
        36.5004         21.5004
 -19198740.39248 -14836924.83446  21594425.3834   21594413.3484
        48.7504         40.0004
 -10453942.24447  -8084577.00844  23360350.8524   23360338.8164
        43.5004         27.0004
  -2512039.51046  -1949414.14543  24882011.4224   24882000.8524
        36.5004         18.2504
  -3181889.52345  -2436307.46543  24371366.9064   24371358.2114
        35.5004         19.2504
 07  3 30  0  3 47.0000000  0 11G 5G23G14G31G22G 1G19G11G20G30G25
  -1411746.78245  -1700766.21642  25237282.8674   25237271.0664
        33.7504         16.2504
  -1567520.39545  -1122439.13442  25292347.4064   25292333.6684
        35.7504         16.2504
 -19524578.17147 -15181397.10445  21842193.4694   21842181.1994
        45.0004         35.0004
 -22619848.30548 -17594195.22047  20957259.3284   20957247.0594
        52.0004         44.0004
 -10692689.86447  -8317657.86244  23286244.0474   23286231.3674
        45.0004         29.0004
 -25628010.54448 -19950956.29347  20495195.2974   20495183.5554
        53.0004         45.2504
  -4078754.97246  -3052219.07343  24640168.6804   24640157.2304
        36.5004         21.5004
 -19199466.19348 -14837490.39046  21594287.7424   21594275.4734
        49.0004         40.0004
 -10456767.36547  -8086778.40344  23359812.8594   23359801.0004
        43.7504         26.5004
  -2513317.07746  -1950409.63442  24881769.3284   24881757.6454
        36.5004         17.7504
  -3185601.54645  -2439199.93043  24370660.1484   24370651.5704
        35.7504         19.2504
 07  3 30  0  3 48.0000000  0 11G 5G23G14G31G22G 1G19G11G20G30G25
  -1411803.10145  -1700810.10242  25237273.1024   25237260.1844
        34.0004         15.5004
  -1570517.71046  -1124774.70342  25291777.0234   25291762.9344
        36.0004         17.2504
 -19522265.84047 -15179595.28145  21842633.2344   21842621.0824
        45.5004         35.0004
 -22621146.58948 -17595206.86847  20957012.0164   20956999.8054
        52.0004         44.0004
 -10690314.19347  -8315806.69544  23286695.9304   23286683.1334
        45.5004         29.0004
 -25627969.34148 -19950924.18447  20495203.0474   20495191.3054
        52.2504         45.2504
  -4075951.48546  -3050034.53143  24640702.5864   24640691.0784
        37.2504         21.7504
 -19200191.52848 -14838055.59346  21594149.5314   21594136.9694
        49.2504         39.7504
 -10459592.58647  -8088979.87544  23359276.0164   23359263.2774
        43.7504         26.2504
  -2514594.38046  -1951404.93543  24881525.7274   24881514.6884
        36.5004         18.2504
  -3189313.62645  -2442092.44543  24369953.8834   24369945.1294
        35.5004         19.2504
 07  3 30  0  3 49.0000000  0 11G 5G23G14G31G22G 1G19G11G20G30G25
  -1411858.93045  -1700853.57742  25237261.7734   25237249.7384
        33.5004         15.5004
  -1573514.94746  -1127110.20042  25291207.0944   25291193.0634
        36.0004         17.7504
 -19519953.34547 -15177793.34245  21843073.6094   21843061.2234
        45.2504         35.0004
 -22622444.28148 -17596218.05747  20956765.0234   20956753.2234
        51.7504         44.2504
 -10687938.33947  -8313955.37744  23287148.1414   23287135.4614
        45.5004         29.2504
 -25627927.75948 -19950891.78747  20495211.1334   20495199.2734
        52.5004         45.2504
  -4073148.04146  -3047850.03043  24641236.2504   24641224.5084
        37.5004         22.0004
 -19200916.28648 -14838620.33246  21594011.6414   21593999.2544
        49.7504         40.0004
 -10462417.76547  -8091181.30544  23358738.4304   23358725.5124
        44.0004         26.5004
  -2515871.19746  -1952399.86543  24881282.7814   24881272.0354
        37.0004         18.5004
  -3193025.61046  -2444984.87143  24369248.1094   24369238.8874
        36.5004         19.7504
 07  3 30  0  3 50.0000000  0 11G 5G23G14G31G22G 1G19G11G20G30G25
  -1411914.07945  -1700896.58042  25237252.5784   25237239.0744
        32.5004         14.7504
  -1576511.96246  -1129445.53542  25290637.0164   25290622.0474
        36.2504         17.7504
 -19517640.55847 -15175991.17145  21843513.6804   21843501.7624
        45.5004         35.2504
 -22623741.25348 -17597228.68147  20956518.4224   20956506.0944
        52.0004         44.2504
 -10685562.20447  -8312103.83944  23287600.8524   23287587.6414
        45.7504         29.0004
 -25627885.67848 -19950858.99047  20495218.8524   20495207.3444
        52.5004         45.2504
  -4070344.48846  -3045665.44143  24641769.2894   24641758.0164
        37.0004         22.0004
 -19201640.33348 -14839184.53146  21593873.9384   21593861.3754
        49.7504         40.0004
 -10465242.75647  -8093382.59744  23358200.7274   23358188.2234
        44.0004         27.0004
  -2517147.52146  -1953394.39243  24881039.4694   24881029.0164
        37.0004         18.5004
  -3196737.42146  -2447877.19843  24368542.5784   24368532.6524
        36.5004         20.0004
 07  3 30  0  3 51.0000000  0 11G 5G23G14G31G22G 1G19G11G20G30G25
  -1411968.82245  -1700939.20642  25237241.9844   25237229.0084
        33.0004         14.7504
  -1579509.02846  -1131780.91743  25290066.2114   25290051.8874
        36.0004         18.2504
 -19515327.77547 -15174189.00545  21843953.8914   21843941.6804
        46.0004         35.0004
 -22625037.80048 -17598238.97447  20956271.5784   20956259.3674
        52.0004         44.2504
 -10683186.04647  -8310252.28644  23288052.4924   23288039.5744
        45.7504         29.7504
 -25627843.40648 -19950826.05047  20495227.1884   20495215.5634
        52.5004         45.0004
  -4067541.14746  -3043481.02543  24642302.9614   24642291.4534
        37.2504         22.0004
 -19202363.95948 -14839748.39546  21593736.3204   21593723.9344
        50.0004         40.2504
 -10468067.88247  -8095583.98844  23357663.2344   23357650.3164
        44.0004         27.0004
  -2518423.47046  -1954388.63543  24880797.1564   24880786.1764
        38.0004         18.5004
  -3200449.34346  -2450769.62343  24367836.4534   24367826.0594
        36.2504         19.7504
 07  3 30  0  3 52.0000000  0 11G 5G23G14G31G22G 1G19G11G20G30G25
  -1412023.15845  -1700981.57442  25237231.0704   25237218.5084
        32.0004         14.7504
  -1582506.12146  -1134116.32443  25289495.6334   25289481.8954
        37.0004         18.2504
 -19513014.93647 -15172386.79245  21844394.0394   21844381.9454
        46.0004         35.5004
 -22626333.83148 -17599248.87347  20956024.9694   20956012.6994
        51.7504         44.5004
 -10680809.82847  -8308400.68744  23288504.9774   23288491.8834
        45.0004         29.5004
 -25627800.87448 -19950792.91047  20495235.1094   20495223.6604
        52.7504         45.0004
  -4064737.93046  -3041296.69643  24642835.9694   24642824.5784
        37.0004         21.7504
 -19203087.10348 -14840311.88446  21593598.5944   21593586.2664
        49.2504         40.2504
 -10470893.09947  -8097785.44544  23357125.1644   23357113.2464
        43.5004         27.0004
  -2519699.17746  -1955382.69043  24880554.6334   24880543.8284
        37.0004         18.2504
  -3204161.28246  -2453662.05643  24367128.9844   24367119.6454
        36.5004         20.2504
 07  3 30  0  3 53.0000000  0 11G 5G23G14G31G22G 1G19G11G20G30G25
  -1412076.62845  -1701023.18442  25237220.7734   25237208.2704
        33.0004         14.7504
  -1585502.82046  -1136451.41043  25288926.5394   25288911.5704
        36.7504         18.2504
 -19510701.65347 -15170584.23145  21844834.2424   21844821.9734
        45.7504         35.5004
 -22627629.02348 -17600258.11647  20955778.5784   20955766.1334
        51.5004         44.2504
 -10678433.14347  -8306548.72844  23288956.8834   23288943.8484
        45.0004         29.7504
 -25627757.66548 -19950759.24347  20495243.5004   20495232.1684
        53.0004         45.2504
  -4061934.42946  -3039112.15543  24643370.1954   24643358.1604
        37.0004         22.0004
 -19203809.39248 -14840874.70546  21593461.2664   21593448.8794
        49.2504         40.5004
 -10473717.99447  -8099986.66444  23356587.5004   23356575.4064
        43.0004         26.7504
  -2520974.07646  -1956376.13643  24880311.0784   24880301.1524
        37.0004         18.2504
  -3207872.93446  -2456554.27143  24366422.3284   24366413.3404
        36.0004         20.5004
 07  3 30  0  3 54.0000000  0 11G 5G23G14G31G22G 1G19G11G20G30G25
  -1412129.60345  -1701064.47542  25237209.7734   25237198.0904
        32.5004         14.7504
  -1588499.38846  -1138786.38342  25288355.6094   25288341.5204
        36.5004         17.7504
 -19508388.20047 -15168781.54245  21845274.2894   21845262.4884
        45.7504         35.0004
 -22628923.58048 -17601266.85647  20955531.9144   20955520.3484
        52.0004         44.2504
 -10676056.27247  -8304696.62545  23289409.7504   23289396.3054
        44.7504         30.7504
 -25627714.10548 -19950725.29647  20495251.7584   20495240.1914
        52.7504         45.2504
  -4059130.95746  -3036927.63043  24643903.5784   24643891.5434
        37.7504         22.0004
 -19204531.09848 -14841437.07346  21593323.8914   21593311.0314
        50.0004         40.5004
 -10476542.83247  -8102187.83744  23356050.1254   23356038.2664
        43.5004         27.5004
  -2522248.56746  -1957369.25143  24880069.1564   24880058.6454
        37.0004         18.2504
  -3211584.49946  -2459446.40543  24365716.4534   24365707.0554
        36.0004         20.2504
 07  3 30  0  3 55.0000000  0 11G 5G23G14G31G22G 1G19G11G20G30G25
  -1412182.20745  -1701105.53742  25237198.4454   25237188.1094
        32.0004         14.7504
  -1591496.03045  -1141121.43642  25287784.6644   25287771.1024
        35.5004         17.7504
 -19506074.75147 -15166978.85545  21845714.3284   21845702.2934
        45.2504         35.2504
 -22630217.70748 -17602275.26847  20955285.9924   20955273.7234
        52.0004         44.5004
 -10673679.37447  -8302844.49244  23289862.0474   23289848.9534
        45.0004         29.7504
 -25627670.31548 -19950691.17447  20495260.2424   20495248.5004
        53.0004         45.2504
  -4056327.71146  -3034743.27543  24644437.1564   24644425.0634
        37.7504         22.2504
 -19205252.36648 -14841999.10046  21593186.7814   21593174.5124
        49.5004         40.2504
 -10479367.79847  -8104389.11244  23355512.8524   23355500.6994
        43.0004         26.0004
  -2523522.79546  -1958362.15643  24879826.6644   24879816.2704
        37.7504         18.2504
  -3215296.12546  -2462338.57443  24365010.0634   24365000.6054
        36.5004         20.0004
 07  3 30  0  3 56.0000000  0 11G 5G23G14G31G22G 1G19G11G20G30G25
  -1412233.87345  -1701145.84342  25237189.3524   25237178.2544
        32.2504         14.7504
  -1594492.27745  -1143456.15643  25287213.8364   25287201.2154
        34.7504         18.2504
 -19503760.86347 -15165175.82645  21846154.7894   21846142.2854
        45.7504         35.2504
 -22631510.97048 -17603283.00047  20955039.7734   20955027.5634
        52.0004         44.2504
 -10671302.05347  -8300992.03444  23290314.4924   23290301.0474
        45.5004         29.0004
 -25627625.89148 -19950656.55947  20495268.4384   20495256.7544
        53.0004         45.2504
  -4053524.14846  -3032558.67343  24644970.0864   24644958.5204
        37.5004         21.7504
 -19205972.77448 -14842560.45746  21593049.6884   21593037.2424
        50.0004         40.5004
 -10482192.46347  -8106590.14944  23354974.9534   23354962.9184
        43.5004         26.5004
  -2524796.27746  -1959354.48543  24879584.5084   24879573.9964
        37.5004         18.2504
  -3219007.43846  -2465230.50543  24364303.9694   24364294.2774
        36.7504         19.2504
 07  3 30  0  3 57.0000000  0 11G 5G23G14G31G22G 1G19G11G20G30G25
  -1412285.46645  -1701186.01542  25237179.0784   25237168.6844
        32.0004         14.7504
  -1597488.79145  -1145791.10043  25286643.1484   25286631.2894
        34.5004         18.2504
 -19501447.18447 -15163372.96445  21846595.0084   21846582.9734
        45.5004         35.2504
 -22632803.99248 -17604290.55047  20954793.9144   20954781.4104
        52.0004         44.5004
 -10668924.92847  -8299139.73445  23290766.5704   23290753.7114
        45.0004         30.0004
 -25627581.46048 -19950621.93747  20495277.0864   20495265.5784
        53.0004         45.2504
  -4050720.98046  -3030374.38443  24645503.7664   24645491.9654
        37.5004         21.7504
 -19206692.98348 -14843121.65546  21592912.4694   21592900.0824
        50.0004         40.5004
 -10485017.45747  -8108791.42944  23354437.1334   23354425.2734
        43.2504         25.5004
  -2526069.69746  -1960346.74242  24879342.1644   24879331.3594
        38.0004         17.7504
  -3222719.05646  -2468122.69143  24363597.3674   24363587.7344
        37.2504         19.5004
 07  3 30  0  3 58.0000000  0 11G 5G23G14G31G22G 1G19G11G20G30G25
  -1412336.16745  -1701225.47842  25237169.0084   25237158.8484
        31.7504         14.7504
  -1600484.89345  -1148125.73843  25286072.6174   25286060.6994
        34.5004         18.2504
 -19499132.96847 -15161569.67845  21847036.0474   21847023.0704
        45.0004         35.5004
 -22634096.07848 -17605297.37247  20954548.1804   20954535.3834
        51.5004         44.2504
 -10666547.22747  -8297286.98345  23291218.8524   23291206.1134
        45.2504         30.0004
 -25627536.31048 -19950586.75247  20495285.6644   20495274.2154
        53.0004         45.5004
  -4047917.53446  -3028189.88443  24646037.9224   24646025.7704
        37.7504         21.5004
 -19207412.22748 -14843682.10246  21592775.5004   21592763.2304
        49.2504         40.5004
 -10487842.03647  -8110992.39944  23353900.0314   23353887.9384
        43.0004         27.5004
  -2527342.31246  -1961338.38142  24879100.8524   24879089.1094
        38.2504         17.2504
  -3226430.30645  -2471014.59443  24362892.0164   24362881.2704
        35.7504         19.2504
 07  3 30  0  3 59.0000000  0 11G 5G23G14G31G22G 1G19G11G20G30G25
  -1412386.30045  -1701264.55742  25237161.0704   25237149.0944
        31.5004         14.7504
  -1603480.91645  -1150460.30543  25285502.5314   25285490.3204
        34.2504         18.5004
 -19496818.67347 -15159766.32845  21847475.8834   21847463.5554
        45.2504         35.2504
 -22635387.62248 -17606303.77147  20954302.4064   20954289.7274
        51.5004         44.0004
 -10664169.46847  -8295434.18845  23291671.6564   23291658.4454
        45.0004         30.0004
 -25627490.85348 -19950551.33147  20495294.3134   20495282.2774
        53.5004         45.2504
  -4045114.12246  -3026005.41443  24646570.4774   24646559.4384
        37.5004         21.2504
 -19208130.96548 -14844242.15846  21592638.9694   21592626.3484
        49.2504         40.5004
 -10490666.68447  -8113193.42344  23353362.0554   23353350.4884
        43.2504         26.2504
  -2528614.57046  -1962329.73342  24878858.3444   24878846.9534
        38.0004         17.7504
  -3230141.47845  -2473906.41143  24362185.1564   24362175.5234
        35.5004         19.2504
 07  3 30  0  4  0.0000000  0 11G 5G23G14G31G22G 1G19G11G20G30G25
  -1412435.98245  -1701303.27242  25237152.7814   25237139.5124
        31.7504         14.7504
  -1606476.76945  -1152794.72243  25284932.5634   25284920.5274
        34.5004         18.2504
 -19494504.17347 -15157962.82645  21847916.3284   21847903.8834
        45.5004         34.7504
 -22636678.53848 -17607309.68147  20954056.9144   20954044.1764
        52.0004         44.0004
 -10661791.46847  -8293581.20144  23292124.2034   23292111.2854
        45.5004         29.2504
 -25627444.98948 -19950515.59347  20495303.1334   20495291.2154
        53.7504         45.2504
  -4042310.74346  -3023820.97343  24647104.2894   24647092.8984
        37.7504         21.5004
 -19208849.08948 -14844801.73646  21592502.3984   21592489.6024
        49.0004         40.5004
 -10493491.22847  -8115394.36444  23352824.8984   23352812.4534
        43.5004         25.2504
  -2529886.30246  -1963320.69042  24878616.8284   24878605.4964
        37.7504         17.7504
  -3233852.62346  -2476798.18043  24361478.5004   24361469.2774
        36.0004         19.0004
 07  3 30  0  4  1.0000000  0 11G 5G23G14G31G22G 1G19G11G20G30G25
  -1412485.07445  -1701341.52542  25237143.0084   25237129.8554
        31.7504         14.7504
  -1609472.61345  -1155129.15843  25284362.3054   25284350.2114
        33.7504         18.2504
 -19492189.50847 -15156159.18545  21848357.0784   21848344.3984
        45.2504         34.7504
 -22637968.88348 -17608315.14447  20953811.0084   20953798.7384
        52.0004         44.5004
 -10659413.31547  -8291728.09944  23292576.2344   23292563.4384
        45.2504         29.5004
 -25627398.77248 -19950479.58447  20495311.6954   20495300.0124
        53.5004         45.2504
  -4039507.37246  -3021636.54443  24647638.5234   24647626.5474
        37.5004         21.5004
 -19209566.63048 -14845360.86046  21592365.8984   21592352.8054
        48.7504         40.2504
 -10496315.74147  -8117595.27944  23352287.4534   23352275.4184
        43.0004         26.2504
  -2531157.64046  -1964311.35243  24878374.7504   24878363.5944
        38.0004         18.2504
  -3237563.69846  -2479689.90843  24360773.2664   24360763.2234
        36.5004         19.0004
 07  3 30  0  4  2.0000000  0 11G 5G23G14G31G22G 1G19G11G20G30G25
  -1412533.76145  -1701379.44742  25237134.5784   25237120.8404
        32.0004         15.5004
  -1612468.44445  -1157463.54842  25283791.7894   25283779.8134
        35.0004         17.7504
 -19489874.86447 -15154355.56945  21848797.5394   21848784.8014
        45.7504         34.7504
 -22639258.80348 -17609320.27747  20953565.4924   20953553.2814
        51.7504         44.0004
 -10657035.17547  -8289874.99545  23293029.7274   23293016.0474
        45.5004         30.0004
 -25627352.36248 -19950443.41747  20495320.6174   20495308.9344
        53.2504         45.0004
  -4036704.18546  -3019452.23743  24648171.3914   24648159.7074
        37.5004         21.5004
 -19210283.78548 -14845919.68046  21592229.3444   21592216.7814
        49.2504         40.0004
 -10499140.40047  -8119796.31044  23351749.7274   23351737.5744
        43.2504         25.7504
  -2532428.71746  -1965301.80642  24878132.6334   24878121.5944
        37.7504         17.7504
  -3241274.81346  -2482581.66543  24360066.8984   24360056.8554
        37.0004         19.5004
 07  3 30  0  4  3.0000000  0 11G 5G23G14G31G22G 1G19G11G20G30G25
  -1412581.73645  -1701416.87842  25237125.2194   25237111.7734
        33.5004         15.5004
  -1615464.04345  -1159797.78242  25283222.1094   25283210.1914
        34.5004         17.7504
 -19487559.91147 -15152551.71145  21849238.3284   21849225.2344
        45.5004         35.0004
 -22640547.93148 -17610324.79347  20953320.4454   20953308.3524
        51.2504         44.0004
 -10654656.67147  -8288021.61845  23293481.8284   23293467.9734
        45.5004         30.0004
 -25627305.40748 -19950406.82847  20495329.5784   20495317.8364
        53.5004         45.2504
  -4033900.91246  -3017267.85643  24648704.9454   24648693.8484
        37.5004         21.7504
 -19211000.16648 -14846477.90046  21592092.8134   21592080.2504
        49.5004         40.0004
 -10501964.84347  -8121997.18244  23351212.2034   23351200.1684
        43.2504         26.0004
  -2533699.14146  -1966291.74042  24877891.8284   24877879.8524
        38.2504         17.7504
  -3244985.77246  -2485473.31343  24359360.7894   24359351.0984
        37.0004         19.5004
 07  3 30  0  4  4.0000000  0 11G 5G23G14G31G22G 1G19G11G20G30G25
  -1412629.27645  -1701453.91642  25237116.3204   25237102.5824
        33.5004         14.7504
  -1618459.52245  -1162131.93342  25282652.3284   25282640.1174
        35.2504         17.7504
 -19485244.82347 -15150747.74645  21849678.8054   21849666.1254
        45.2504         35.0004
 -22641836.54748 -17611328.90947  20953074.9844   20953063.0084
        51.5004         44.0004
 -10652278.06347  -8286168.15745  23293934.3444   23293920.8984
        45.5004         30.2504
 -25627258.13448 -19950369.99147  20495338.3364   20495326.5354
        53.0004         45.2504
  -4031097.67946  -3015083.53243  24649238.6254   24649226.8834
        37.2504         22.0004
 -19211716.02948 -14847035.71146  21591956.4694   21591944.2584
        49.5004         40.0004
 -10504789.31947  -8124198.06644  23350674.9304   23350662.8364
        43.0004         27.0004
  -2534969.21146  -1967281.38742  24877650.1954   24877638.1024
        38.5004         17.7504
  -3248696.70446  -2488364.95543  24358654.8054   24358645.3484
        37.0004         20.0004
 07  3 30  0  4  5.0000000  0 11G 5G23G14G31G22G 1G19G11G20G30G25
  -1412676.22845  -1701490.49142  25237107.4774   25237093.7384
        34.5004         15.5004
  -1621454.97045  -1164466.05842  25282082.2034   25282069.8754
        34.7504         17.7504
 -19482929.56947 -15148943.65145  21850119.0864   21850106.5824
        45.7504         35.0004
 -22643124.52748 -17612332.52747  20952829.8284   20952817.7344
        51.5004         44.0004
 -10649899.25947  -8284314.54244  23294387.2894   23294373.8444
        45.5004         29.5004
 -25627210.49348 -19950332.87147  20495347.2814   20495335.7154
        53.2504         45.2504
  -4028294.42746  -3012899.17143  24649771.3134   24649760.3324
        36.5004         22.0004
 -19212431.27448 -14847593.05246  21591820.4774   21591808.0904
        49.5004         40.0004
 -10507613.70047  -8126398.88744  23350136.7584   23350125.0744
        42.5004         27.5004
  -2536238.81146  -1968270.68043  24877408.1024   24877396.3014
        38.5004         18.2504
  -3252407.48346  -2491256.46343  24357948.3524   24357938.9534
        37.2504         20.0004
 07  3 30  0  4  6.0000000  0 11G 5G23G14G31G22G 1G19G11G20G30G25
  -1412722.55945  -1701526.61942  25237097.8914   25237085.2704
        34.5004         14.7504
  -1624450.24945  -1166800.03642  25281512.3914   25281499.9454
        34.2504         17.2504
 -19480614.10947 -15147139.39745  21850559.6884   21850547.4774
        45.5004         35.0004
 -22644411.88848 -17613335.66647  20952584.9224   20952572.4184
        51.5004         43.7504
 -10647520.21647  -8282460.74944  23294840.0084   23294826.9144
        46.0004         29.7504
 -25627162.41448 -19950295.40647  20495356.4774   20495344.7344
        53.0004         45.5004
  -4025491.21646  -3010714.84743  24650304.6334   24650293.7114
        37.0004         21.7504
 -19213145.89848 -14848149.90246  21591684.5474   21591672.1604
        49.5004         40.0004
 -10510438.02247  -8128599.65144  23349599.3754   23349587.7504
        43.0004         26.0004
  -2537507.94646  -1969259.62443  24877165.5314   24877155.3714
        38.0004         18.2504
  -3256118.22746  -2494147.95743  24357243.0084   24357232.6134
        37.0004         20.7504
 07  3 30  0  4  7.0000000  0 11G 5G23G14G31G22G 1G19G11G20G30G25
  -1412768.41545  -1701562.32242  25237088.3204   25237076.5204
        34.0004         14.7504
  -1627445.47045  -1169133.96142  25280942.0234   25280930.2234
        35.0004         17.7504
 -19478298.51247 -15145335.03045  21851000.4064   21850987.9024
        45.0004         35.0004
 -22645698.68148 -17614338.35647  20952339.9304   20952327.8954
        51.5004         43.7504
 -10645141.04947  -8280606.85144  23295292.6414   23295279.7814
        46.0004         29.5004
 -25627114.01648 -19950257.69847  20495365.7504   20495354.1254
        53.0004         45.2504
  -4022687.98746  -3008530.51243  24650837.7114   24650827.1414
        36.5004         22.0004
 -19213859.98048 -14848706.33146  21591548.2734   21591536.0044
        49.2504         40.0004
 -10513262.36847  -8130800.44744  23349062.4614   23349049.8984
        43.0004         27.2504
  -2538776.66146  -1970248.21743  24876924.0004   24876913.6054
        38.5004         18.2504
  -3259828.93646  -2497039.41743  24356536.7504   24356526.5314
        37.5004         20.5004
 07  3 30  0  4  8.0000000  0 11G 5G23G14G31G22G 1G19G11G20G30G25
  -1412813.54645  -1701597.50542  25237080.0004   25237068.0824
        34.7504         14.7504
  -1630440.40245  -1171467.67142  25280372.5004   25280360.6414
        35.0004         17.2504
 -19475982.61747 -15143530.44145  21851440.5864   21851427.9064
        45.0004         35.0004
 -22646984.71848 -17615340.46547  20952095.4844   20952082.9224
        51.2504         43.7504
 -10642761.54947  -8278752.69544  23295745.0634   23295732.2034
        45.7504         29.2504
 -25627065.09748 -19950219.57347  20495374.9844   20495363.3014
        53.0004         45.5004
  -4019884.73346  -3006346.15743  24651370.9844   24651360.8244
        36.0004         22.0004
 -19214573.32648 -14849262.17846  21591412.8594   21591400.2384
        49.5004         40.0004
 -10516086.49947  -8133001.06344  23348525.1804   23348512.2034
        43.2504         26.2504
  -2540044.75346  -1971236.33443  24876682.9694   24876672.1644
        38.2504         18.5004
  -3263539.42646  -2499930.71643  24355830.2194   24355820.5274
        37.5004         21.2504
 07  3 30  0  4  9.0000000  0 11G 5G23G14G31G22G 1G19G11G20G30G25
  -1412858.50145  -1701632.50642  25237071.4224   25237058.9774
        34.7504         14.7504
  -1633435.56345  -1173801.55742  25279803.6644   25279790.5704
        35.5004         17.7504
 -19473666.82047 -15141725.92345  21851881.4924   21851869.1054
        45.0004         35.5004
 -22648270.43848 -17616342.31747  20951850.5784   20951838.2504
        51.2504         43.7504
 -10640382.17347  -8276898.64244  23296197.7894   23296185.2274
        45.7504         28.7504
 -25627016.07548 -19950181.37447  20495384.8674   20495372.8324
        53.5004         45.5004
  -4017081.67046  -3004161.96343  24651903.8674   24651893.9414
        36.2504         22.0004
 -19215286.34348 -14849817.77646  21591277.6644   21591264.6884
        50.0004         40.0004
 -10518910.86747  -8135201.87544  23347988.0944   23347975.0004
        43.2504         26.0004
  -2541312.71146  -1972224.36143  24876441.4844   24876430.8554
        38.0004         18.5004
  -3267250.09146  -2502822.14143  24355123.9224   24355114.1724
        37.2504         20.5004
 07  3 30  0  4 10.0000000  0 11G 5G23G14G31G22G 1G19G11G20G30G25
  -1412902.43345  -1701666.74742  25237064.5784   25237050.6054
        35.5004         14.7504
  -1636430.23145  -1176135.07542  25279233.1644   25279220.6024
        35.0004         17.2504
 -19471350.50247 -15139920.99745  21852322.1024   21852310.1254
        45.2504         35.0004
 -22649555.20948 -17617343.43647  20951606.2194   20951593.7734
        51.5004         44.0004
 -10638002.26647  -8275044.16944  23296651.0944   23296637.8834
        45.7504         29.0004
 -25626966.33948 -19950142.61547  20495393.7274   20495382.3954
        53.5004         45.5004
  -4014278.32245  -3001977.54943  24652438.1884   24652427.3244
        35.7504         22.0004
 -19215998.43848 -14850372.65746  21591141.9144   21591129.1764
        50.2504         40.0004
 -10521734.85647  -8137402.38544  23347451.0554   23347437.5514
        43.0004         25.2504
  -2542579.85346  -1973211.74643  24876199.8134   24876189.7704
        37.5004         18.5004
  -3270960.36846  -2505713.27643  24354417.6724   24354408.2154
        36.5004         20.7504
 07  3 30  0  4 11.0000000  0 11G 5G23G14G31G22G 1G19G11G20G30G25
  -1412946.00745  -1701700.72542  25237055.7194   25237042.3324
        34.5004         15.5004
  -1639424.87145  -1178468.55642  25278663.1414   25278650.5784
        35.5004         17.2504
 -19469034.16447 -15138116.07045  21852762.7664   21852750.9064
        44.7504         35.2504
 -22650839.50648 -17618344.18847  20951361.7664   20951349.3794
        51.7504         43.7504
 -10635622.28447  -8273189.63345  23297103.9534   23297090.6844
        45.7504         30.0004
 -25626916.35148 -19950103.66147  20495403.4774   20495391.6764
        53.2504         45.5004
  -4011475.11745  -2999793.26043  24652971.8134   24652960.9494
        35.7504         22.0004
 -19216710.05648 -14850927.16746  21591006.4224   21590993.7424
        49.7504         40.0004
 -10524558.93047  -8139602.96444  23346912.5234   23346900.6644
        43.0004         26.0004
  -2543846.68546  -1974198.88543  24875959.2034   24875949.1024
        37.5004         18.5004
  -3274670.75446  -2508604.50343  24353711.5864   24353702.1884
        36.5004         20.5004
 07  3 30  0  4 12.0000000  0 11G 5G23G14G31G22G 1G19G11G20G30G25
  -1412989.00645  -1701734.24242  25237049.3284   25237034.1254
        34.5004         14.7504
  -1642419.42845  -1180801.97442  25278092.8134   25278080.9534
        35.2504         17.2504
 -19466717.66847 -15136311.00945  21853203.6094   21853191.5164
        44.7504         34.7504
 -22652123.21948 -17619344.48147  20951117.4454   20951104.8834
        52.0004         44.0004
 -10633242.13147  -8271334.97144  23297556.6024   23297543.8634
        45.2504         29.5004
 -25626865.98348 -19950064.41547  20495413.2344   20495401.2584
        53.2504         45.5004
  -4008671.98846  -2997609.00443  24653505.5004   24653493.9924
        36.0004         22.0004
 -19217421.10948 -14851481.23846  21590871.1174   21590858.6724
        50.0004         40.2504
 -10527382.95947  -8141803.50344  23346375.6174   23346363.2894
        42.7504         26.7504
  -2545113.08246  -1975185.70543  24875717.6644   24875707.8554
        38.0004         18.5004
  -3278381.01746  -2511495.60543  24353005.4224   24352996.0824
        37.0004         20.5004
 07  3 30  0  4 13.0000000  0 11G 5G23G14G31G22G 1G19G11G20G30G25
  -1413031.59245  -1701767.47542  25237040.6954   25237025.9024
        33.5004         14.7504
  -1645414.08745  -1183135.48542  25277522.7424   25277511.3524
        35.0004         17.2504
 -19464401.09147 -15134505.88145  21853644.3674   21853632.5084
        45.5004         35.0004
 -22653406.42948 -17620344.38647  20950873.3054   20950861.1524
        52.0004         44.0004
 -10630861.92247  -8269480.26445  23298009.9454   23297996.7344
        44.5004         30.2504
 -25626815.37048 -19950024.97747  20495422.7274   20495410.6334
        53.0004         45.5004
  -4005868.96345  -2995424.82543  24654038.2504   24654027.3874
        35.7504         21.7504
 -19218131.68748 -14852034.92846  21590735.8364   21590722.9774
        50.2504         40.2504
 -10530207.05247  -8144004.09644  23345838.1954   23345825.7504
        43.2504         26.7504
  -2546379.13246  -1976172.25143  24875477.4534   24875466.5904
        38.2504         18.2504
  -3282091.32446  -2514386.73643  24352300.0944   24352290.1684
        37.2504         20.7504
 07  3 30  0  4 14.0000000  0 11G 5G23G14G31G22G 1G19G11G20G30G25
  -1413073.45745  -1701800.12442  25237033.1804   25237017.5664
        33.5004         14.7504
  -1648408.33345  -1185468.66442  25276953.0474   25276941.1884
        34.7504         17.7504
 -19462084.21147 -15132700.52345  21854085.5864   21854073.2584
        45.5004         34.7504
 -22654688.88748 -17621343.70347  20950629.1024   20950617.0664
        51.7504         44.0004
 -10628481.36247  -8267625.27444  23298462.4844   23298449.2734
        44.5004         29.2504
 -25626764.21948 -19949985.12247  20495432.7504   20495421.1254
        52.7504         45.5004
  -4003065.77845  -2993240.52243  24654571.4774   24654560.3794
        35.0004         22.0004
 -19218841.50848 -14852588.03846  21590600.6724   21590588.0514
        50.0004         40.2504
 -10533030.94747  -8146204.54144  23345300.4454   23345288.1764
        43.5004         27.5004
  -2547644.54346  -1977158.27543  24875236.5864   24875225.7814
        38.2504         18.2504
  -3285801.38346  -2517277.68043  24351593.7194   24351584.4964
        36.2504         20.5004
 07  3 30  0  4 15.0000000  0 11G 5G23G14G31G22G 1G19G11G20G30G25
  -1413114.89945  -1701832.34942  25237025.2974   25237009.7424
        33.5004         13.7504
  -1651402.66945  -1187801.90742  25276384.9304   25276371.7194
        35.2504         17.7504
 -19459767.28047 -15130895.12045  21854526.5944   21854513.7974
        44.7504         35.2504
 -22655970.85248 -17622342.63847  20950385.4694   20950372.7894
        51.7504         44.0004
 -10626100.73547  -8265770.24644  23298916.0084   23298902.4454
        44.7504         29.2504
 -25626712.82248 -19949945.07447  20495442.2034   20495430.2854
        52.7504         45.2504
  -4000262.74546  -2991056.32643  24655105.6334   24655094.4184
        36.0004         21.7504
 -19219550.85648 -14853140.77446  21590465.6564   21590453.0944
        50.0004         40.5004
 -10535854.91247  -8148405.03444  23344763.7344   23344750.7584
        43.7504         27.5004
  -2548909.65746  -1978144.07042  24874996.5084   24874985.0004
        39.0004         17.7504
  -3289511.56645  -2520168.74443  24350887.5704   24350878.4064
        35.7504         20.7504
 07  3 30  0  4 16.0000000  0 11G 5G23G14G31G22G 1G19G11G20G30G25
  -1413155.66345  -1701864.02542  25237016.9454   25237002.2704
        31.5004         13.7504
  -1654396.76845  -1190134.96143  25275813.8364   25275801.7424
        35.2504         18.5004
 -19457450.05747 -15129089.48845  21854967.2114   21854955.0004
        45.0004         35.0004
 -22657252.11648 -17623341.02447  20950141.2034   20950128.8754
        51.5004         44.0004
 -10623719.82947  -8263914.99344  23299368.6804   23299355.8204
        45.0004         29.0004
 -25626660.92248 -19949904.63347  20495451.9774   20495440.3524
        52.7504         45.2504
  -3997459.61346  -2988872.06943  24655638.4534   24655628.0594
        37.0004         21.5004
 -19220259.50748 -14853692.96946  21590330.9844   21590318.1884
        50.2504         40.5004
 -10538678.72947  -8150605.40144  23344225.7344   23344213.7584
        43.5004         27.0004
  -2550174.20246  -1979129.41343  24874755.2584   24874744.3364
        38.5004         18.5004
  -3293221.52045  -2523059.63043  24350181.7424   24350172.4614
        35.7504         20.7504
 07  3 30  0  4 17.0000000  0 11G 5G23G14G31G22G 1G19G11G20G30G25
  -1413195.81945  -1701895.38042  25237009.1334   25236994.9264
        32.0004         14.7504
  -1657390.71545  -1192467.88143  25275244.2814   25275232.1294
        35.7504         18.5004
 -19455132.60447 -15127283.68345  21855408.3054   21855395.8594
        45.0004         34.5004
 -22658532.71248 -17624338.89047  20949898.0554   20949885.1954
        51.5004         44.0004
 -10621338.66147  -8262059.54044  23299821.7734   23299808.6214
        45.0004         29.2504
 -25626608.59748 -19949863.85947  20495462.0314   20495450.2894
        52.7504         45.2504
  -3994656.47346  -2986687.80843  24656172.7504   24656161.3594
        36.7504         21.5004
 -19220967.51448 -14854244.66446  21590196.2584   21590183.7544
        49.7504         40.5004
 -10541502.43847  -8152805.68844  23343688.8444   23343676.8674
        43.7504         27.5004
  -2551438.22446  -1980114.35342  24874514.5864   24874503.6054
        38.5004         17.7504
  -3296931.31546  -2525950.37443  24349474.4224   24349466.6644
        36.2504         20.5004
 07  3 30  0  4 18.0000000  0 11G 5G23G14G31G22G 1G19G11G20G30G25
  -1413235.62045  -1701926.41142  25237000.9534   25236987.3914
        31.7504         14.7504
  -1660384.71845  -1194800.88043  25274674.3834   25274662.0554
        35.2504         18.5004
 -19452815.14547 -15125477.87545  21855849.2194   21855837.3014
        45.2504         35.0004
 -22659812.88048 -17625336.42547  20949654.2114   20949642.0594
        51.5004         44.0004
 -10618957.48347  -8260204.07144  23300275.1094   23300261.6054
        45.2504         29.2504
 -25626556.04748 -19949822.90547  20495472.0474   20495460.3054
        53.2504         45.0004
  -3991853.51846  -2984503.68843  24656706.0634   24656694.6724
        36.7504         21.5004
 -19221675.07648 -14854796.00746  21590061.4844   21590049.2154
        50.0004         40.5004
 -10544326.25847  -8155006.06244  23343151.2734   23343139.2384
        43.5004         26.5004
  -2552701.95846  -1981099.07943  24874274.3204   24874263.2234
        38.7504         18.2504
  -3300641.26746  -2528841.22043  24348769.2194   24348761.0514
        36.0004         20.7504
 07  3 30  0  4 19.0000000  0 11G 5G23G14G31G22G 1G19G11G20G30G25
  -1413274.74445  -1701956.93242  25236992.1024   25236979.7154
        31.5004         14.7504
  -1663378.45145  -1197133.66343  25274104.6414   25274092.0204
        35.2504         18.2504
 -19450497.41547 -15123671.85145  21856290.4534   21856278.4774
        44.5004         35.2504
 -22661092.30048 -17626333.36447  20949410.5554   20949398.3444
        51.2504         44.0004
 -10616575.97247  -8258348.34844  23300728.0084   23300715.0314
        45.0004         29.7504
 -25626503.00348 -19949781.57247  20495482.0084   20495470.5004
        53.0004         45.0004
  -3989050.39346  -2982319.42943  24657239.7114   24657227.8524
        36.5004         21.5004
 -19222381.93848 -14855346.81746  21589926.9304   21589914.4264
        49.5004         41.0004
 -10547149.92447  -8157206.32144  23342613.6174   23342602.1094
        43.0004         26.7504
  -2553965.12146  -1982083.37843  24874034.5314   24874022.7304
        38.0004         18.2504
  -3304350.99946  -2531731.89743  24348063.3594   24348055.6604
        36.5004         20.7504
 07  3 30  0  4 20.0000000  0 11G 5G23G14G31G22G 1G19G11G20G30G25
  -1413313.41145  -1701987.05242  25236983.8524   25236972.4614
        30.5004         13.7504
  -1666372.16345  -1199466.44643  25273535.5554   25273522.2274
        35.5004         18.2504
 -19448179.61847 -15121865.77745  21856731.6024   21856719.3324
        44.7504         35.0004
 -22662371.23648 -17627329.94047  20949167.0474   20949155.0704
        51.0004         44.0004
 -10614194.42947  -8256492.60244  23301181.2734   23301168.2384
        45.0004         29.0004
 -25626449.69348 -19949740.03547  20495492.3284   20495480.5274
        53.0004         45.2504
  -3986247.42946  -2980135.31243  24657773.3204   24657761.4614
        36.5004         21.5004
 -19223088.30048 -14855897.22246  21589792.7584   21589780.1954
        49.7504         40.7504
 -10549973.62947  -8159406.61644  23342076.1094   23342064.4844
        42.7504         27.2504
  -2555227.93946  -1983067.40043  24873794.1564   24873782.1804
        37.2504         18.2504
  -3308060.76646  -2534622.59843  24347357.0234   24347349.8524
        36.0004         20.7504
 07  3 30  0  4 21.0000000  0 11G 5G23G14G31G22G 1G19G11G20G30G25
  -1413351.48145  -1702016.67542  25236976.9384   25236965.3134
        31.0004         13.7504
  -1669365.78745  -1201799.14642  25272965.8444   25272952.1644
        35.7504         17.7504
 -19445861.65447 -15120059.56545  21857172.0394   21857160.1804
        45.2504         35.0004
 -22663649.56348 -17628326.04047  20948923.9534   20948911.6844
        51.0004         44.0004
 -10611812.68847  -8254636.70244  23301634.3674   23301621.6884
        44.5004         29.0004
 -25626396.01448 -19949698.20147  20495502.6254   20495490.7074
        52.7504         45.2504
  -3983444.53646  -2977951.25343  24658306.7114   24658294.5594
        36.5004         21.5004
 -19223794.09748 -14856447.19646  21589658.3984   21589645.3054
        50.0004         41.0004
 -10552797.32347  -8161606.89144  23341538.3364   23341527.4734
        42.5004         26.7504
  -2556490.32646  -1984051.06543  24873553.9304   24873542.2464
        37.7504         18.5004
  -3311770.46046  -2537513.27443  24346651.1174   24346643.7704
        37.5004         22.0004
 07  3 30  0  4 22.0000000  0 11G 5G23G14G31G22G 1G19G11G20G30G25
  -1413388.88045  -1702045.83542  25236969.8914   25236957.9144
        31.5004         13.7504
  -1672359.13046  -1204131.62643  25272396.3134   25272383.1024
        36.2504         18.2504
 -19443543.31247 -15118253.07445  21857613.6334   21857601.5394
        45.0004         34.7504
 -22664927.10248 -17629321.52747  20948680.8204   20948668.5514
        51.0004         43.7504
 -10609430.56447  -8252780.51244  23302087.5474   23302074.6294
        44.5004         29.5004
 -25626341.76848 -19949655.93647  20495512.8284   20495501.3794
        53.0004         45.2504
  -3980641.40146  -2975766.97743  24658840.0634   24658828.8484
        36.5004         21.5004
 -19224499.08948 -14856996.54046  21589524.1414   21589511.7544
        49.7504         40.7504
 -10555620.74547  -8163806.95644  23341001.2504   23340990.3284
        42.5004         26.7504
  -2557752.06846  -1985034.23743  24873312.9694   24873301.5784
        37.7504         18.5004
  -3315479.86146  -2540403.71143  24345946.0164   24345937.7304
        37.2504         22.0004
 07  3 30  0  4 23.0000000  0 11G 5G23G14G31G22G 1G19G11G20G30G25
  -1413425.53045  -1702074.38042  25236962.3204   25236951.0474
        31.7504         13.7504
  -1675352.20146  -1206463.89242  25271827.5864   25271813.0274
        36.0004         17.7504
 -19441224.68947 -15116446.35345  21858054.7194   21858042.5664
        45.7504         34.7504
 -22666203.91248 -17630316.43847  20948437.9304   20948425.4844
        51.2504         43.7504
 -10607048.12547  -8250924.06944  23302541.1484   23302528.1724
        44.5004         29.0004
 -25626287.00848 -19949613.26547  20495523.5234   20495511.6644
        53.0004         45.5004
  -3977838.21646  -2973582.67043  24659373.4614   24659361.6024
        36.7504         21.7504
 -19225203.35948 -14857545.31846  21589390.1884   21589377.8594
        50.0004         41.0004
 -10558444.01847  -8166006.91044  23340463.8134   23340452.8914
        42.7504         26.5004
  -2559013.20546  -1986016.95243  24873073.4064   24873061.7234
        37.7504         18.5004
  -3319189.05646  -2543293.98043  24345239.6174   24345232.5044
        36.7504         22.2504
 07  3 30  0  4 24.0000000  0 11G 5G23G14G31G22G 1G19G11G20G30G25
  -1413462.07945  -1702102.81242  25236956.8364   25236944.0984
        31.7504         13.7504
  -1678345.63246  -1208796.41042  25271258.0474   25271243.6054
        36.0004         17.2504
 -19438906.36147 -15114639.86545  21858496.1954   21858483.6334
        45.2504         35.0004
 -22667480.55448 -17631311.23047  20948194.9224   20948182.5354
        51.0004         44.0004
 -10604665.97347  -8249067.84644  23302994.7894   23302981.5204
        45.0004         29.2504
 -25626232.33848 -19949570.65947  20495533.9144   20495522.3484
        53.0004         45.2504
  -3975035.43946  -2971398.69843  24659906.2194   24659895.1214
        36.7504         21.5004
 -19225907.50248 -14858094.00146  21589256.2974   21589243.5594
        50.0004         40.7504
 -10561267.69947  -8168207.17844  23339926.4384   23339915.7504
        42.5004         27.2504
  -2560274.34846  -1986999.66243  24872833.3984   24872821.7154
        38.2504         18.2504
  -3322898.69846  -2546184.60443  24344534.6884   24344526.2274
        37.0004         22.2504
 07  3 30  0  4 25.0000000  0 11G 5G23G14G31G22G 1G19G11G20G30G25
  -1413498.00245  -1702130.79942  25236951.1094   25236937.3134
        31.7504         13.7504
  -1681338.81146  -1211128.74743  25270688.3204   25270674.3484
        36.5004         18.2504
 -19436587.75447 -15112833.15745  21858937.6484   21858924.7894
        45.0004         35.0004
 -22668756.49248 -17632305.46647  20947952.1334   20947939.9224
        51.0004         44.0004
 -10602283.52647  -8247211.40044  23303447.9224   23303434.9454
        45.0004         29.7504
 -25626177.16848 -19949527.66947  20495544.0784   20495532.4534
        53.0004         45.2504
  -3972232.62546  -2969214.68943  24660439.7584   24660428.3094
        36.0004         21.5004
 -19226610.95248 -14858642.13946  21589122.1414   21589109.9884
        49.5004         40.5004
 -10564091.23947  -8170407.33944  23339388.9144   23339378.2854
        42.2504         28.0004
  -2561534.91146  -1987981.91843  24872593.3754   24872582.1604
        37.7504         18.2504
  -3326608.09646  -2549075.04243  24343828.7894   24343820.3284
        37.0004         22.5004
 07  3 30  0  4 26.0000000  0 11G 5G23G14G31G22G 1G19G11G20G30G25
  -1413533.24445  -1702158.23542  25236944.5554   25236930.5824
        32.7504         14.7504
  -1684331.82246  -1213460.95543  25270118.4144   25270104.7344
        36.0004         18.5004
 -19434268.83347 -15111026.20745  21859378.6024   21859366.0394
        45.0004         34.5004
 -22670031.69548 -17633299.13247  20947709.2894   20947697.6054
        51.0004         44.0004
 -10599900.77747  -8245354.71644  23303901.3754   23303888.3404
        44.0004         29.0004
 -25626121.49248 -19949484.28947  20495554.5164   20495542.7154
        53.2504         45.2504
  -3969429.64646  -2967030.54943  24660972.7734   24660961.7344
        36.2504         21.5004
 -19227313.65948 -14859189.70446  21588988.2894   21588975.9024
        49.0004         40.5004
 -10566914.57047  -8172607.33344  23338851.7814   23338841.2704
        42.5004         27.5004
  -2562794.93446  -1988963.74843  24872353.4614   24872342.0124
        37.5004         18.2504
  -3330317.33746  -2551965.34843  24343122.3914   24343114.3404
        37.2504         22.7504
 07  3 30  0  4 27.0000000  0 11G 5G23G14G31G22G 1G19G11G20G30G25
  -1413567.89245  -1702185.26842  25236937.3834   25236923.8794
        32.7504         15.5004
  -1687324.59046  -1215792.99643  25269548.8444   25269535.1054
        36.0004         18.5004
 -19431949.70947 -15109219.09345  21859820.0554   21859807.6094
        45.2504         34.7504
 -22671306.22448 -17634292.26747  20947466.7814   20947454.8634
        51.2504         44.0004
 -10597517.77447  -8243497.82444  23304354.7584   23304342.4884
        44.0004         28.5004
 -25626065.40148 -19949440.57647  20495565.6414   20495553.9574
        53.2504         45.5004
  -3966626.65846  -2964846.41543  24661506.5704   24661495.3554
        36.7504         21.2504
 -19228015.73248 -14859736.77246  21588854.7504   21588842.2464
        49.5004         40.5004
 -10569737.82247  -8174807.26444  23338314.9064   23338303.8094
        42.7504         28.2504
  -2564054.41746  -1989945.17943  24872114.1414   24872102.3404
        38.0004         18.5004
  -3334026.37446  -2554855.51743  24342417.8754   24342408.7114
        37.5004         22.7504
 07  3 30  0  4 28.0000000  0 11G 5G23G14G31G22G 1G19G11G20G30G25
  -1413602.02345  -1702211.88242  25236930.5314   25236917.6724
        32.0004         15.5004
  -1690317.37345  -1218125.04343  25268979.3054   25268965.6844
        35.0004         18.5004
 -19429630.46747 -15107411.89245  21860261.2424   21860248.9144
        45.5004         35.0004
 -22672580.22348 -17635284.99047  20947224.3834   20947212.3484
        51.2504         44.0004
 -10595134.66447  -8241640.85844  23304808.1804   23304795.8524
        44.0004         29.0004
 -25626008.97948 -19949396.61247  20495575.7894   20495563.8714
        53.7504         45.5004
  -3963823.78446  -2962662.34343  24662039.7274   24662028.9224
        36.5004         21.0004
 -19228717.27348 -14860283.43346  21588721.1804   21588708.9104
        49.5004         40.5004
 -10572561.09347  -8177007.20644  23337777.7114   23337766.8484
        42.7504         27.5004
  -2565313.52146  -1990926.30143  24871874.3524   24871862.1994
        38.2504         18.2504
  -3337735.41846  -2557745.69343  24341712.1484   24341702.7504
        36.0004         22.5004
